[[{"header":{"parameterUnit":"m.s-1","parameterCategory":1,"la1":31.0,"la2":29.5877,"lo1":-88.7671,"lo2":-86.6584,"dy":0.0162,"dx":0.0185,"nx":115,"ny":88,"refTime":"2023-08-03T00:00:00:Z","depth":0,"parameterNumber":2,"parameterNumberName":"U-component_of_WINDS"},"data":[0.0,0.0,0.0,0.0,0.0,0.0,0.0,0.0,0.0,0.0,0.0,0.0,0.0,0.0,0.0,0.0,0.0,0.0,0.0,0.0,0.0,0.0,0.0,0.0,0.0,0.0,0.0,0.0,0.0,0.0,0.0,0.0,0.0,0.0,0.0,0.0,0.0,0.0,0.0,0.0,0.0,0.0,0.0,0.0,0.0,0.0,0.0,0.0,0.0,0.0,0.0,0.0,0.0,0.0,0.0,0.0,0.0,0.0,0.0,0.0,0.0,0.0,0.0,0.0,0.0,0.0,0.0,0.0,0.0,0.0,0.0,0.0,0.0,0.0,0.0,0.0,0.0,0.0,0.0,0.0,0.0,0.0,0.0,0.0,0.0,0.0,0.0,0.0,0.0,0.0,0.0,0.0,0.0,0.0,0.0,0.0,0.0,0.0,0.0,0.0,0.0,0.0,0.0,0.0,0.0,0.0,0.0,0.0,0.0,0.0,0.0,0.0,0.0,0.0,0.0,0.0,0.0,0.0,0.0,0.0,0.0,0.0,0.0,0.0,0.0,0.0,0.0,0.0,0.0,0.0,0.0,0.0,0.0,0.0,0.0,0.0,0.0,0.0,0.0,0.0,0.0,0.0,0.0,0.0,0.0,0.0,0.0,0.0,0.0,0.0,0.0,0.0,0.0,0.0,0.0,0.0,0.0,0.0,0.0,0.0,0.0,0.0,0.0,0.0,0.0,0.0,0.0,0.0,0.0,0.0,0.0,0.0,0.0,0.0,0.0,0.0,0.0,0.0,0.0,0.0,0.0,0.0,0.0,0.0,0.0,0.0,0.0,0.0,0.0,0.0,0.0,0.0,0.0,0.0,0.0,0.0,0.0,0.0,0.0,0.0,0.0,0.0,0.0,0.0,0.0,0.0,0.0,0.0,0.0,0.0,0.0,0.0,0.0,0.0,0.0,0.0,0.0,0.0,0.0,0.0,0.0,0.0,0.0,0.0,0.0,0.0,0.0,0.0,0.0,0.0,0.0,0.0,0.0,0.0,0.0,0.0,0.0,0.0,0.0,0.0,0.0,0.0,0.0,0.0,0.0,0.0,0.0,0.0,0.0,0.0,0.0,0.0,0.0,0.0,0.0,0.0,0.0,0.0,0.0,0.0,0.0,0.0,0.0,0.0,0.0,0.0,0.0,0.0,0.0,0.0,0.0,0.0,0.0,0.0,0.0,0.0,0.0,0.0,0.0,0.0,0.0,0.0,0.0,0.0,0.0,0.0,0.0,0.0,0.0,0.0,0.0,0.0,0.0,0.0,0.0,0.0,0.0,0.0,0.0,0.0,0.0,0.0,0.0,0.0,0.0,0.0,0.0,0.0,0.0,0.0,0.0,0.0,0.0,0.0,0.0,0.0,0.0,0.0,0.0,0.0,0.0,0.0,0.0,0.0,0.0,0.0,0.0,0.0,0.0,0.0,0.0,0.0,0.0,0.0,0.0,0.0,0.0,0.0,0.0,0.0,0.0,0.0,0.0,0.0,0.0,0.0,0.0,0.0,0.0,0.0,0.0,0.0,0.0,0.0,0.0,0.0,0.0,0.0,0.0,0.0,0.0,0.0,0.0,0.0,0.0,0.0,0.0,0.0,0.0,0.0,0.0,0.0,0.0,0.0,0.0,0.0,0.0,0.0,0.0,0.0,0.0,0.0,0.0,0.0,0.0,0.0,0.0,0.0,0.0,0.0,0.0,0.0,0.0,0.0,0.0,0.0,0.0,0.0,0.0,0.0,0.0,0.0,0.0,0.0,0.0,0.0,0.0,0.0,0.0,0.0,0.0,0.0,0.0,0.0,0.0,0.0,0.0,0.0,0.0,0.0,0.0,0.0,0.0,0.0,0.0,0.0,0.0,0.0,0.0,0.0,0.0,0.0,0.0,0.0,0.0,0.0,0.0,0.0,0.0,0.0,0.0,0.0,0.0,0.0,0.0,0.0,0.0,0.0,0.0,0.0,0.0,0.0,0.0,0.0,0.0,0.0,0.0,0.0,0.0,0.0,0.0,0.0,0.0,0.0,0.0,0.0,0.0,0.0,0.0,0.0,0.0,0.0,0.0,0.0,0.0,0.0,0.0,0.0,0.0,0.0,0.0,0.0,0.0,0.0,0.0,0.0,0.0,0.0,0.0,0.0,0.0,0.0,0.0,0.0,0.0,0.0,0.0,0.0,0.0,0.0,0.0,0.0,0.0,0.0,0.0,0.0,0.0,0.0,0.0,0.0,0.0,0.0,0.0,0.0,0.0,0.0,0.0,0.0,0.0,0.0,0.0,0.0,0.0,0.0,0.0,0.0,0.0,0.0,0.0,0.0,0.0,0.0,0.0,0.0,0.0,0.0,0.0,0.0,0.0,0.0,0.0,0.0,0.0,0.0,0.0,0.0,0.0,0.0,0.0,0.0,0.0,0.0,0.0,0.0,0.0,0.0,0.0,0.0,0.0,0.0,0.0,0.0,0.0,0.0,0.0,0.0,0.0,0.0,0.0,0.0,0.0,0.0,0.0,0.0,0.0,0.0,0.0,0.0,0.0,0.0,0.0,0.0,0.0,0.0,0.0,0.0,0.0,0.0,0.0,0.0,0.0,0.0,0.0,0.0,0.0,0.0,0.0,0.0,0.0,0.0,0.0,0.0,0.0,0.0,0.0,0.0,0.0,0.0,0.0,0.0,0.0,0.0,0.0,0.0,0.0,0.0,0.0,0.0,0.0,0.0,0.0,0.0,0.0,0.0,0.0,0.0,0.0,0.0,0.0,0.0,0.0,0.0,0.0,0.0,0.0,0.0,0.0,0.0,0.0,0.0,0.0,0.0,0.0,0.0,0.0,0.0,0.0,0.0,0.0,0.0,0.0,0.0,0.0,0.0,0.0,0.0,0.0,0.0,0.0,0.0,0.0,0.0,0.0,0.0,0.0,0.0,0.0,0.0,0.0,0.0,0.0,0.0,0.0,0.0,0.0,0.0,0.0,0.0,0.0,0.0,0.0,0.0,0.0,0.0,0.0,0.0,0.0,0.0,0.0,0.0,0.0,0.0,0.0,0.0,0.0,0.0,0.0,0.0,0.0,0.0,0.0,0.0,0.0,0.0,0.0,0.0,0.0,0.0,0.0,0.0,0.0,0.0,0.0,0.0,0.0,0.0,0.0,0.0,0.0,0.0,0.0,0.0,0.0,0.0,0.0,0.0,0.0,0.0,0.0,0.0,0.0,0.0,0.0,0.0,0.0,0.0,0.0,0.0,0.0,0.0,0.0,0.0,0.0,0.0,0.0,0.0,0.0,0.0,0.0,0.0,0.0,0.0,0.0,0.0,0.0,0.0,0.0,0.0,0.0,0.0,0.0,0.0,0.0,0.0,0.0,0.0,0.0,0.0,0.0,0.0,0.0,0.0,0.0,0.0,0.0,0.0,0.0,0.0,0.0,0.0,0.0,0.0,0.0,0.0,0.0,0.0,0.0,0.0,0.0,0.0,0.0,0.0,0.0,0.0,0.0,0.0,0.0,0.0,0.0,0.0,0.0,0.0,0.0,0.0,0.0,0.0,0.0,0.0,0.0,0.0,0.0,0.0,0.0,0.0,0.0,0.0,0.0,0.0,0.0,0.0,0.0,0.0,0.0,0.0,0.0,0.0,0.0,0.0,0.0,0.0,0.0,0.0,0.0,0.0,0.0,0.0,0.0,0.0,0.0,0.0,0.0,0.0,0.0,0.0,0.0,0.0,0.0,0.0,0.0,0.0,0.0,0.0,0.0,0.0,0.0,0.0,0.0,0.0,0.0,0.0,0.0,0.0,0.0,0.0,0.0,0.0,0.0,0.0,0.0,0.0,0.0,0.0,0.0,0.0,0.0,0.0,0.0,0.0,0.0,0.0,0.0,0.0,0.0,0.0,0.0,0.0,0.0,0.0,0.0,0.0,0.0,0.0,0.0,0.0,0.0,0.0,0.0,0.0,0.0,0.0,0.0,0.0,0.0,0.0,0.0,0.0,0.0,0.0,0.0,0.0,0.0,0.0,0.0,0.0,0.0,0.0,0.0,0.0,0.0,0.0,0.0,0.0,0.0,0.0,0.0,0.0,0.0,0.0,0.0,0.0,0.0,0.0,0.0,0.0,0.0,0.0,0.0,0.0,0.0,0.0,0.0,0.0,0.0,0.0,0.0,0.0,0.0,0.0,0.0,0.0,0.0,0.0,0.0,0.0,0.0,0.0,0.0,0.0,0.0,0.0,0.0,0.0,0.0,0.0,0.0,0.0,-2.9907,0.0,0.0,0.0,0.0,0.0,0.0,0.0,0.0,0.0,0.0,0.0,0.0,0.0,0.0,0.0,0.0,0.0,0.0,0.0,0.0,0.0,0.0,0.0,0.0,0.0,0.0,0.0,0.0,0.0,0.0,0.0,0.0,0.0,0.0,0.0,0.0,0.0,0.0,0.0,0.0,0.0,0.0,0.0,0.0,0.0,0.0,0.0,0.0,0.0,0.0,0.0,0.0,0.0,0.0,0.0,0.0,0.0,0.0,0.0,0.0,0.0,0.0,0.0,0.0,0.0,0.0,0.0,0.0,0.0,0.0,0.0,0.0,0.0,0.0,0.0,0.0,0.0,0.0,0.0,0.0,0.0,0.0,0.0,0.0,0.0,0.0,0.0,0.0,0.0,0.0,0.0,0.0,0.0,0.0,0.0,0.0,0.0,0.0,0.0,0.0,0.0,0.0,0.0,0.0,0.0,0.0,0.0,0.0,0.0,0.0,-3.052,-3.0353,-3.0132,-2.9885,-2.9533,0.0,0.0,0.0,0.0,0.0,0.0,0.0,0.0,0.0,0.0,0.0,0.0,0.0,0.0,0.0,0.0,0.0,0.0,0.0,0.0,0.0,0.0,0.0,0.0,0.0,0.0,0.0,0.0,0.0,0.0,0.0,0.0,0.0,0.0,0.0,0.0,0.0,0.0,0.0,0.0,0.0,0.0,0.0,0.0,0.0,0.0,0.0,0.0,0.0,0.0,0.0,0.0,0.0,0.0,0.0,0.0,0.0,0.0,0.0,0.0,0.0,0.0,0.0,0.0,0.0,0.0,0.0,0.0,0.0,0.0,0.0,0.0,0.0,0.0,0.0,0.0,0.0,0.0,0.0,0.0,0.0,0.0,0.0,0.0,0.0,0.0,0.0,0.0,0.0,0.0,0.0,0.0,0.0,0.0,0.0,0.0,0.0,0.0,0.0,0.0,0.0,0.0,0.0,0.0,0.0,0.0,0.0,0.0,0.0,0.0,0.0,0.0,-3.0446,-2.9982,-2.9412,0.0,0.0,0.0,0.0,0.0,0.0,0.0,0.0,0.0,0.0,0.0,0.0,0.0,0.0,0.0,0.0,0.0,0.0,0.0,0.0,0.0,0.0,0.0,0.0,0.0,0.0,0.0,0.0,0.0,0.0,0.0,0.0,0.0,0.0,0.0,0.0,0.0,0.0,0.0,0.0,0.0,0.0,0.0,0.0,0.0,0.0,0.0,0.0,0.0,0.0,0.0,0.0,0.0,0.0,0.0,0.0,0.0,0.0,0.0,0.0,0.0,0.0,0.0,0.0,0.0,0.0,0.0,0.0,0.0,0.0,0.0,0.0,0.0,0.0,0.0,0.0,0.0,0.0,0.0,0.0,0.0,0.0,0.0,0.0,0.0,0.0,0.0,0.0,0.0,0.0,0.0,0.0,0.0,0.0,0.0,0.0,0.0,0.0,0.0,0.0,0.0,0.0,0.0,0.0,0.0,0.0,0.0,0.0,0.0,0.0,-3.087,-3.2409,-3.1739,0.0,-3.0006,0.0,0.0,0.0,0.0,0.0,0.0,0.0,0.0,0.0,0.0,0.0,0.0,0.0,0.0,0.0,0.0,0.0,0.0,0.0,0.0,0.0,0.0,0.0,0.0,0.0,0.0,0.0,0.0,0.0,0.0,0.0,0.0,0.0,0.0,0.0,0.0,0.0,0.0,0.0,0.0,0.0,0.0,0.0,0.0,0.0,0.0,0.0,0.0,0.0,0.0,0.0,0.0,0.0,0.0,0.0,0.0,0.0,0.0,0.0,0.0,0.0,0.0,0.0,0.0,0.0,0.0,0.0,0.0,0.0,0.0,0.0,0.0,0.0,0.0,0.0,0.0,0.0,0.0,0.0,0.0,0.0,0.0,0.0,0.0,0.0,0.0,0.0,0.0,0.0,0.0,0.0,0.0,0.0,0.0,0.0,0.0,0.0,0.0,0.0,0.0,0.0,0.0,0.0,0.0,0.0,0.0,0.0,0.0,0.0,0.0,-3.0815,-3.2315,-3.1561,-3.0342,0.0,0.0,0.0,0.0,0.0,0.0,0.0,0.0,0.0,0.0,0.0,0.0,0.0,0.0,0.0,0.0,0.0,0.0,0.0,0.0,0.0,0.0,0.0,0.0,0.0,0.0,0.0,0.0,0.0,0.0,0.0,0.0,0.0,0.0,0.0,0.0,0.0,0.0,0.0,0.0,0.0,0.0,0.0,0.0,0.0,0.0,0.0,0.0,0.0,0.0,0.0,0.0,0.0,0.0,0.0,0.0,0.0,0.0,0.0,0.0,0.0,0.0,0.0,0.0,0.0,0.0,0.0,0.0,0.0,0.0,0.0,0.0,0.0,0.0,0.0,0.0,0.0,0.0,0.0,0.0,0.0,0.0,0.0,0.0,0.0,0.0,0.0,0.0,0.0,0.0,0.0,0.0,0.0,0.0,0.0,0.0,0.0,0.0,0.0,0.0,0.0,0.0,0.0,0.0,0.0,0.0,0.0,0.0,0.0,0.0,-3.1026,-3.1247,-3.2269,-3.0849,-2.9339,-2.7892,0.0,0.0,0.0,0.0,0.0,0.0,0.0,0.0,0.0,0.0,0.0,0.0,0.0,0.0,0.0,0.0,0.0,0.0,0.0,0.0,0.0,0.0,0.0,0.0,0.0,0.0,0.0,0.0,0.0,0.0,0.0,0.0,0.0,0.0,0.0,0.0,0.0,0.0,0.0,0.0,0.0,0.0,0.0,0.0,0.0,0.0,0.0,0.0,0.0,0.0,0.0,0.0,0.0,0.0,0.0,0.0,0.0,0.0,0.0,0.0,0.0,0.0,0.0,0.0,0.0,0.0,0.0,0.0,0.0,0.0,0.0,0.0,0.0,0.0,0.0,0.0,0.0,0.0,0.0,0.0,0.0,0.0,0.0,0.0,0.0,0.0,0.0,0.0,0.0,0.0,0.0,0.0,0.0,0.0,0.0,0.0,0.0,0.0,0.0,0.0,0.0,0.0,0.0,0.0,0.0,0.0,0.0,0.0,-3.4666,-3.3066,-3.2484,-3.2958,-2.9783,-2.8188,0.0,0.0,0.0,0.0,0.0,0.0,0.0,0.0,0.0,0.0,0.0,0.0,0.0,0.0,0.0,0.0,0.0,0.0,0.0,0.0,0.0,0.0,0.0,0.0,0.0,0.0,0.0,0.0,0.0,0.0,0.0,0.0,0.0,0.0,0.0,0.0,0.0,0.0,0.0,0.0,0.0,0.0,0.0,0.0,0.0,0.0,0.0,0.0,0.0,0.0,0.0,0.0,0.0,0.0,0.0,0.0,0.0,0.0,0.0,0.0,0.0,0.0,0.0,0.0,0.0,0.0,0.0,0.0,0.0,0.0,0.0,0.0,0.0,0.0,0.0,0.0,0.0,0.0,0.0,0.0,0.0,0.0,0.0,0.0,0.0,0.0,0.0,0.0,0.0,0.0,0.0,0.0,0.0,0.0,0.0,0.0,0.0,0.0,0.0,0.0,0.0,0.0,0.0,0.0,0.0,0.0,0.0,0.0,0.0,-3.1758,-3.1634,-3.1186,-3.0325,-2.9433,-2.8475,0.0,0.0,0.0,0.0,0.0,0.0,0.0,0.0,0.0,0.0,0.0,0.0,0.0,0.0,0.0,0.0,0.0,0.0,0.0,0.0,0.0,0.0,0.0,0.0,0.0,0.0,0.0,0.0,0.0,0.0,0.0,0.0,0.0,0.0,0.0,0.0,0.0,0.0,0.0,0.0,0.0,0.0,0.0,0.0,0.0,0.0,0.0,0.0,0.0,0.0,0.0,0.0,0.0,0.0,0.0,0.0,0.0,0.0,0.0,0.0,0.0,0.0,0.0,0.0,0.0,0.0,0.0,0.0,0.0,0.0,0.0,0.0,0.0,0.0,0.0,0.0,0.0,0.0,0.0,0.0,0.0,0.0,0.0,0.0,0.0,0.0,0.0,0.0,0.0,0.0,0.0,0.0,0.0,0.0,0.0,0.0,0.0,0.0,0.0,0.0,0.0,0.0,0.0,0.0,0.0,0.0,0.0,0.0,0.0,-3.0761,0.0,-3.0959,-2.9467,-2.9039,-2.792,0.0,0.0,0.0,0.0,0.0,0.0,0.0,0.0,0.0,0.0,0.0,0.0,0.0,0.0,0.0,0.0,0.0,0.0,0.0,0.0,0.0,0.0,0.0,0.0,0.0,0.0,0.0,0.0,0.0,0.0,0.0,0.0,0.0,0.0,0.0,0.0,0.0,0.0,0.0,0.0,0.0,0.0,0.0,0.0,0.0,0.0,0.0,0.0,0.0,0.0,0.0,0.0,0.0,0.0,0.0,0.0,0.0,0.0,0.0,0.0,0.0,0.0,0.0,0.0,0.0,0.0,0.0,0.0,0.0,0.0,0.0,0.0,0.0,0.0,0.0,0.0,0.0,0.0,0.0,0.0,0.0,0.0,0.0,0.0,0.0,0.0,0.0,0.0,0.0,0.0,0.0,0.0,0.0,0.0,0.0,0.0,0.0,0.0,0.0,0.0,0.0,0.0,0.0,0.0,0.0,0.0,0.0,0.0,-3.242,-3.2453,-3.261,-3.2007,-3.0785,-2.8466,-2.6333,0.0,0.0,0.0,0.0,0.0,0.0,0.0,0.0,0.0,0.0,0.0,0.0,0.0,0.0,0.0,0.0,0.0,0.0,0.0,0.0,0.0,0.0,0.0,0.0,0.0,0.0,0.0,0.0,0.0,0.0,0.0,0.0,0.0,0.0,0.0,0.0,0.0,0.0,0.0,0.0,0.0,0.0,0.0,0.0,0.0,0.0,0.0,0.0,0.0,0.0,0.0,0.0,0.0,0.0,0.0,0.0,0.0,0.0,0.0,0.0,0.0,0.0,0.0,0.0,0.0,0.0,0.0,0.0,0.0,0.0,0.0,0.0,0.0,0.0,0.0,0.0,0.0,0.0,0.0,0.0,0.0,0.0,0.0,0.0,0.0,0.0,0.0,0.0,0.0,0.0,0.0,0.0,0.0,0.0,0.0,0.0,0.0,0.0,0.0,0.0,0.0,0.0,0.0,0.0,0.0,0.0,0.0,0.0,0.0,-2.9283,-3.0491,-3.1007,-3.0577,-2.7905,-2.6535,0.0,0.0,0.0,0.0,0.0,0.0,0.0,0.0,0.0,0.0,0.0,0.0,0.0,0.0,0.0,0.0,0.0,0.0,0.0,0.0,0.0,0.0,0.0,0.0,0.0,0.0,0.0,0.0,0.0,0.0,0.0,0.0,0.0,0.0,0.0,0.0,0.0,0.0,0.0,0.0,0.0,0.0,0.0,0.0,0.0,0.0,0.0,0.0,0.0,0.0,0.0,0.0,0.0,0.0,0.0,0.0,0.0,0.0,0.0,0.0,0.0,0.0,0.0,0.0,0.0,0.0,0.0,0.0,0.0,0.0,0.0,0.0,0.0,0.0,0.0,0.0,0.0,0.0,0.0,0.0,0.0,0.0,0.0,0.0,0.0,0.0,0.0,0.0,0.0,0.0,0.0,0.0,0.0,0.0,0.0,0.0,0.0,0.0,0.0,0.0,0.0,0.0,0.0,0.0,0.0,0.0,0.0,0.0,0.0,-2.9161,-3.0228,-3.0603,-3.0117,-2.7742,-2.6134,-2.5496,0.0,0.0,0.0,0.0,0.0,0.0,0.0,0.0,0.0,0.0,0.0,0.0,0.0,0.0,0.0,0.0,0.0,0.0,0.0,0.0,0.0,0.0,0.0,0.0,0.0,0.0,0.0,0.0,0.0,0.0,0.0,0.0,0.0,0.0,0.0,0.0,0.0,0.0,0.0,0.0,0.0,0.0,0.0,0.0,0.0,0.0,0.0,0.0,0.0,0.0,0.0,0.0,0.0,0.0,0.0,0.0,0.0,0.0,0.0,0.0,0.0,0.0,0.0,0.0,0.0,0.0,0.0,0.0,0.0,0.0,0.0,0.0,0.0,0.0,0.0,0.0,0.0,0.0,0.0,0.0,0.0,0.0,0.0,0.0,0.0,0.0,0.0,0.0,0.0,0.0,0.0,0.0,0.0,0.0,0.0,0.0,0.0,0.0,0.0,0.0,0.0,0.0,0.0,0.0,0.0,0.0,0.0,0.0,-3.1505,-3.1715,-3.1187,-2.9754,-2.7992,-2.5514,0.0,0.0,0.0,0.0,0.0,0.0,0.0,0.0,0.0,0.0,0.0,0.0,0.0,0.0,0.0,0.0,0.0,0.0,0.0,0.0,0.0,0.0,0.0,0.0,0.0,0.0,0.0,0.0,0.0,0.0,0.0,0.0,0.0,0.0,0.0,0.0,0.0,0.0,0.0,0.0,0.0,0.0,0.0,0.0,0.0,0.0,0.0,0.0,0.0,0.0,0.0,0.0,0.0,0.0,0.0,0.0,0.0,0.0,0.0,0.0,0.0,0.0,0.0,0.0,0.0,0.0,0.0,0.0,0.0,0.0,0.0,0.0,0.0,0.0,0.0,0.0,0.0,0.0,0.0,0.0,0.0,0.0,0.0,0.0,0.0,0.0,0.0,0.0,0.0,0.0,0.0,0.0,0.0,0.0,0.0,0.0,0.0,0.0,0.0,0.0,0.0,0.0,0.0,0.0,0.0,0.0,0.0,0.0,0.0,-3.3276,-3.4163,-3.4353,-3.3651,-2.961,-2.6823,0.0,0.0,0.0,0.0,0.0,0.0,0.0,0.0,0.0,0.0,0.0,0.0,0.0,0.0,0.0,0.0,0.0,0.0,0.0,0.0,0.0,0.0,0.0,0.0,0.0,0.0,0.0,0.0,0.0,0.0,0.0,0.0,0.0,0.0,0.0,0.0,0.0,0.0,0.0,0.0,0.0,0.0,0.0,0.0,0.0,0.0,0.0,0.0,0.0,0.0,0.0,0.0,0.0,0.0,0.0,0.0,0.0,0.0,0.0,0.0,0.0,0.0,0.0,0.0,0.0,0.0,0.0,0.0,0.0,0.0,0.0,0.0,0.0,0.0,0.0,0.0,0.0,0.0,0.0,0.0,0.0,0.0,0.0,0.0,0.0,0.0,0.0,0.0,0.0,0.0,0.0,0.0,0.0,0.0,0.0,0.0,0.0,0.0,0.0,0.0,0.0,0.0,0.0,0.0,0.0,0.0,0.0,0.0,-3.3154,-3.5038,-3.6123,-3.6586,-3.6402,-3.209,-2.84,0.0,0.0,0.0,0.0,0.0,0.0,0.0,0.0,0.0,0.0,0.0,0.0,0.0,0.0,0.0,0.0,0.0,0.0,0.0,0.0,0.0,0.0,0.0,0.0,0.0,0.0,0.0,0.0,0.0,0.0,0.0,0.0,0.0,0.0,0.0,0.0,0.0,0.0,0.0,0.0,0.0,0.0,0.0,0.0,0.0,0.0,0.0,0.0,0.0,0.0,0.0,0.0,0.0,0.0,0.0,0.0,0.0,0.0,0.0,0.0,0.0,0.0,0.0,0.0,0.0,0.0,0.0,0.0,0.0,0.0,0.0,0.0,0.0,0.0,0.0,0.0,0.0,0.0,0.0,0.0,0.0,0.0,0.0,0.0,0.0,0.0,0.0,0.0,0.0,0.0,0.0,0.0,0.0,0.0,0.0,0.0,0.0,0.0,0.0,0.0,0.0,0.0,0.0,0.0,0.0,0.0,0.0,0.0,-3.5652,-3.6536,-3.7639,-3.8084,-3.7758,-3.4494,-2.995,0.0,0.0,0.0,0.0,0.0,0.0,0.0,0.0,0.0,0.0,0.0,0.0,0.0,0.0,0.0,0.0,0.0,0.0,0.0,0.0,0.0,0.0,0.0,0.0,0.0,0.0,0.0,0.0,0.0,0.0,0.0,0.0,0.0,0.0,0.0,0.0,0.0,0.0,0.0,0.0,0.0,0.0,0.0,0.0,0.0,0.0,0.0,0.0,0.0,0.0,0.0,0.0,0.0,0.0,0.0,0.0,0.0,0.0,0.0,0.0,0.0,0.0,0.0,0.0,0.0,0.0,0.0,0.0,0.0,0.0,0.0,0.0,0.0,0.0,0.0,0.0,0.0,0.0,0.0,0.0,0.0,0.0,0.0,0.0,0.0,0.0,0.0,0.0,0.0,0.0,0.0,0.0,0.0,0.0,0.0,0.0,0.0,0.0,0.0,0.0,0.0,0.0,0.0,0.0,0.0,0.0,0.0,0.0,-3.4906,-3.6786,-3.8496,-3.879,-3.7703,-3.3468,-2.9544,0.0,0.0,0.0,0.0,0.0,0.0,0.0,0.0,0.0,0.0,0.0,0.0,0.0,0.0,0.0,0.0,0.0,0.0,0.0,0.0,0.0,0.0,0.0,0.0,0.0,0.0,0.0,0.0,0.0,0.0,0.0,0.0,0.0,0.0,0.0,0.0,0.0,0.0,0.0,0.0,0.0,0.0,0.0,0.0,0.0,0.0,0.0,0.0,-1.9604,0.0,0.0,0.0,0.0,0.0,0.0,0.0,0.0,0.0,0.0,0.0,0.0,0.0,0.0,0.0,0.0,0.0,0.0,0.0,0.0,0.0,0.0,0.0,0.0,0.0,0.0,0.0,0.0,0.0,0.0,0.0,0.0,0.0,0.0,0.0,0.0,0.0,0.0,0.0,0.0,0.0,0.0,0.0,0.0,0.0,0.0,0.0,0.0,0.0,0.0,0.0,0.0,0.0,0.0,0.0,0.0,0.0,0.0,0.0,-3.5109,-3.7742,-3.8767,-3.87,-3.7521,-3.3506,-2.9909,0.0,0.0,0.0,0.0,0.0,0.0,0.0,0.0,0.0,0.0,0.0,0.0,0.0,0.0,0.0,0.0,0.0,0.0,0.0,0.0,0.0,0.0,0.0,0.0,0.0,0.0,0.0,0.0,0.0,0.0,0.0,0.0,0.0,0.0,0.0,0.0,0.0,0.0,0.0,0.0,0.0,0.0,0.0,0.0,0.0,0.0,0.0,0.0,0.0,0.0,0.0,0.0,0.0,0.0,0.0,0.0,0.0,0.0,0.0,0.0,0.0,0.0,0.0,0.0,0.0,0.0,0.0,0.0,0.0,0.0,0.0,0.0,0.0,0.0,0.0,0.0,0.0,0.0,0.0,0.0,0.0,0.0,0.0,0.0,0.0,0.0,0.0,0.0,0.0,0.0,0.0,0.0,0.0,0.0,0.0,0.0,0.0,0.0,0.0,0.0,0.0,0.0,0.0,0.0,0.0,0.0,0.0,-3.3604,-3.5676,-3.8642,-3.8695,-3.8325,-3.7561,-3.3754,-3.0292,-2.7384,0.0,0.0,0.0,0.0,0.0,0.0,0.0,0.0,0.0,0.0,0.0,0.0,0.0,0.0,0.0,0.0,0.0,0.0,0.0,0.0,0.0,0.0,0.0,0.0,0.0,0.0,0.0,0.0,0.0,0.0,0.0,0.0,0.0,0.0,0.0,0.0,0.0,0.0,-1.6316,-1.6459,0.0,0.0,0.0,0.0,0.0,0.0,0.0,0.0,-1.9785,0.0,0.0,0.0,0.0,0.0,0.0,0.0,0.0,0.0,0.0,0.0,0.0,0.0,0.0,0.0,0.0,0.0,0.0,0.0,0.0,0.0,0.0,0.0,0.0,0.0,0.0,0.0,0.0,0.0,0.0,0.0,0.0,0.0,0.0,0.0,0.0,0.0,0.0,0.0,0.0,0.0,0.0,0.0,0.0,0.0,0.0,0.0,0.0,0.0,0.0,0.0,0.0,0.0,0.0,0.0,0.0,-3.2725,-3.4107,-3.5987,-3.8256,-3.8432,-3.8191,-3.7519,-3.3204,-2.992,-2.7939,0.0,0.0,0.0,0.0,0.0,0.0,0.0,0.0,0.0,0.0,0.0,0.0,0.0,0.0,0.0,0.0,0.0,0.0,0.0,0.0,0.0,0.0,0.0,0.0,0.0,0.0,0.0,0.0,0.0,0.0,0.0,0.0,0.0,0.0,0.0,0.0,0.0,0.0,0.0,-1.6786,-1.7296,0.0,0.0,0.0,0.0,0.0,0.0,0.0,0.0,-1.963,0.0,0.0,0.0,0.0,0.0,0.0,0.0,0.0,0.0,0.0,0.0,0.0,0.0,0.0,0.0,0.0,0.0,0.0,0.0,0.0,0.0,0.0,0.0,0.0,0.0,0.0,0.0,0.0,0.0,0.0,0.0,0.0,0.0,0.0,0.0,0.0,0.0,0.0,0.0,0.0,0.0,0.0,0.0,0.0,0.0,0.0,0.0,0.0,0.0,0.0,0.0,0.0,0.0,0.0,0.0,-3.2378,-3.3806,-3.5483,-3.7434,-3.7317,-3.6823,-3.5957,-3.2206,-2.9402,0.0,0.0,0.0,0.0,0.0,0.0,0.0,0.0,0.0,0.0,0.0,0.0,0.0,0.0,0.0,0.0,0.0,0.0,0.0,0.0,0.0,0.0,0.0,0.0,0.0,0.0,0.0,0.0,0.0,0.0,0.0,0.0,0.0,0.0,0.0,0.0,0.0,0.0,0.0,0.0,-1.7597,-1.8076,-1.8418,0.0,0.0,0.0,0.0,0.0,0.0,-1.9906,-2.0,0.0,0.0,0.0,0.0,0.0,0.0,0.0,0.0,0.0,0.0,0.0,0.0,0.0,0.0,0.0,0.0,0.0,0.0,0.0,0.0,0.0,0.0,0.0,0.0,0.0,0.0,0.0,0.0,0.0,0.0,0.0,0.0,0.0,0.0,0.0,0.0,0.0,0.0,0.0,0.0,0.0,0.0,0.0,0.0,0.0,0.0,0.0,0.0,0.0,0.0,0.0,0.0,0.0,0.0,0.0,-3.19,-3.3106,-3.4685,-3.6592,-3.5975,-3.5188,-3.4286,-3.1187,-2.8725,0.0,0.0,0.0,0.0,0.0,0.0,0.0,0.0,0.0,0.0,0.0,0.0,0.0,0.0,0.0,0.0,0.0,0.0,0.0,0.0,0.0,0.0,0.0,0.0,0.0,0.0,0.0,0.0,0.0,0.0,0.0,0.0,0.0,0.0,0.0,0.0,0.0,0.0,0.0,0.0,0.0,-1.9037,-1.8999,-1.9765,0.0,0.0,0.0,0.0,-1.9986,-2.0451,0.0,0.0,0.0,0.0,0.0,0.0,0.0,0.0,0.0,0.0,0.0,0.0,0.0,0.0,0.0,0.0,0.0,0.0,0.0,0.0,0.0,0.0,0.0,0.0,0.0,0.0,0.0,0.0,0.0,0.0,0.0,0.0,0.0,0.0,0.0,0.0,0.0,0.0,0.0,0.0,0.0,0.0,0.0,0.0,0.0,0.0,0.0,0.0,0.0,0.0,0.0,0.0,0.0,0.0,0.0,0.0,-3.1279,-3.2115,-3.3691,-3.5919,-3.4687,-3.3933,-3.375,-3.0241,-2.7745,0.0,0.0,0.0,0.0,0.0,0.0,0.0,0.0,0.0,0.0,0.0,0.0,0.0,0.0,0.0,0.0,0.0,0.0,0.0,0.0,0.0,0.0,0.0,0.0,0.0,0.0,0.0,0.0,0.0,0.0,0.0,0.0,0.0,0.0,0.0,0.0,0.0,0.0,0.0,0.0,0.0,-2.0079,-1.9718,-2.1014,-2.1484,0.0,0.0,-2.1613,-2.0501,-2.1502,0.0,0.0,0.0,0.0,0.0,0.0,0.0,0.0,0.0,0.0,0.0,0.0,0.0,0.0,0.0,0.0,0.0,0.0,0.0,0.0,0.0,0.0,0.0,0.0,0.0,0.0,0.0,0.0,0.0,0.0,0.0,0.0,0.0,0.0,0.0,0.0,0.0,0.0,0.0,0.0,0.0,0.0,0.0,0.0,0.0,0.0,0.0,0.0,0.0,0.0,0.0,0.0,0.0,0.0,0.0,-3.0104,-3.1303,-3.1494,-3.2415,-3.4128,-3.2738,-3.1803,-3.147,-2.867,-2.6791,0.0,0.0,0.0,0.0,0.0,0.0,0.0,0.0,0.0,0.0,0.0,0.0,0.0,0.0,0.0,0.0,0.0,0.0,0.0,0.0,0.0,0.0,0.0,0.0,0.0,0.0,0.0,0.0,0.0,0.0,0.0,0.0,0.0,0.0,0.0,0.0,0.0,0.0,0.0,0.0,0.0,0.0,-2.0774,-2.1805,0.0,0.0,0.0,-2.1956,-2.1666,0.0,0.0,0.0,0.0,0.0,0.0,0.0,0.0,0.0,0.0,0.0,0.0,0.0,0.0,0.0,0.0,0.0,0.0,0.0,0.0,0.0,0.0,0.0,0.0,0.0,0.0,0.0,0.0,0.0,0.0,0.0,0.0,0.0,0.0,0.0,0.0,0.0,0.0,0.0,0.0,0.0,0.0,0.0,0.0,0.0,0.0,0.0,0.0,0.0,0.0,0.0,0.0,0.0,0.0,0.0,0.0,0.0,-3.1234,-3.1143,-3.1594,-3.2587,-3.1215,-3.0174,-2.9553,-2.7454,0.0,0.0,0.0,0.0,0.0,0.0,0.0,0.0,0.0,0.0,0.0,0.0,0.0,0.0,0.0,0.0,0.0,0.0,0.0,0.0,0.0,0.0,0.0,0.0,0.0,0.0,0.0,-1.7048,0.0,0.0,0.0,0.0,0.0,0.0,0.0,0.0,0.0,0.0,0.0,0.0,0.0,0.0,-2.2806,-2.1952,-2.2782,-2.3399,0.0,0.0,-2.2635,-2.2549,-2.2482,-2.2389,0.0,0.0,0.0,0.0,0.0,0.0,0.0,0.0,0.0,0.0,0.0,0.0,0.0,0.0,0.0,0.0,0.0,0.0,0.0,0.0,0.0,0.0,0.0,0.0,0.0,0.0,0.0,0.0,0.0,0.0,0.0,0.0,0.0,0.0,0.0,0.0,0.0,0.0,0.0,0.0,0.0,0.0,0.0,0.0,0.0,0.0,0.0,0.0,0.0,0.0,0.0,0.0,0.0,0.0,0.0,-3.0684,-3.1051,-3.155,-3.2001,-3.0781,-2.9748,-2.895,-2.6816,-2.541,0.0,0.0,0.0,0.0,0.0,0.0,0.0,0.0,0.0,0.0,0.0,0.0,0.0,0.0,0.0,0.0,0.0,0.0,0.0,0.0,0.0,0.0,0.0,0.0,0.0,0.0,0.0,0.0,0.0,0.0,0.0,0.0,0.0,0.0,0.0,0.0,0.0,0.0,0.0,0.0,0.0,-2.3415,-2.3301,-2.4336,-2.469,0.0,0.0,-2.432,-2.267,-2.3636,-2.4065,-2.2476,0.0,0.0,0.0,0.0,0.0,0.0,0.0,0.0,0.0,0.0,0.0,0.0,0.0,0.0,0.0,0.0,0.0,0.0,0.0,0.0,0.0,0.0,0.0,0.0,0.0,0.0,0.0,0.0,0.0,0.0,0.0,0.0,0.0,0.0,0.0,0.0,0.0,0.0,0.0,0.0,0.0,0.0,0.0,0.0,0.0,0.0,0.0,0.0,0.0,0.0,0.0,0.0,0.0,-3.1004,-3.1727,-3.1002,-3.1088,-3.1956,-2.9996,-2.8692,-2.8423,-2.6289,-2.5001,0.0,0.0,0.0,0.0,0.0,0.0,0.0,0.0,0.0,0.0,0.0,0.0,0.0,0.0,0.0,0.0,0.0,0.0,0.0,0.0,0.0,0.0,0.0,0.0,0.0,0.0,0.0,0.0,-1.8343,-1.8204,-1.7965,0.0,0.0,0.0,0.0,0.0,0.0,0.0,0.0,0.0,0.0,-2.4157,-2.3937,-2.4811,0.0,0.0,-2.4721,-2.4507,-2.3812,-2.3691,-2.3474,-2.2806,-2.2294,0.0,0.0,0.0,0.0,0.0,0.0,0.0,0.0,0.0,0.0,0.0,0.0,0.0,0.0,0.0,0.0,0.0,0.0,0.0,0.0,0.0,0.0,0.0,0.0,0.0,0.0,0.0,0.0,0.0,0.0,0.0,0.0,0.0,0.0,0.0,0.0,0.0,0.0,0.0,0.0,0.0,0.0,0.0,0.0,0.0,0.0,0.0,0.0,0.0,0.0,0.0,0.0,-3.1027,-3.1843,-3.0971,-3.0833,-3.1441,-2.9502,-2.8352,-2.8047,-2.6113,-2.4951,0.0,0.0,0.0,0.0,0.0,0.0,0.0,0.0,0.0,0.0,0.0,0.0,0.0,0.0,0.0,0.0,0.0,0.0,0.0,0.0,0.0,0.0,0.0,0.0,0.0,0.0,0.0,0.0,-1.876,-1.8533,-1.8243,0.0,0.0,0.0,0.0,0.0,0.0,0.0,0.0,0.0,0.0,-2.4502,-2.4536,-2.5119,-2.5619,-2.5754,-2.5033,-2.4448,-2.4338,-2.3688,-2.3144,-2.2799,0.0,0.0,0.0,0.0,0.0,0.0,0.0,0.0,0.0,0.0,0.0,0.0,0.0,0.0,0.0,0.0,0.0,0.0,0.0,0.0,0.0,0.0,0.0,0.0,0.0,0.0,0.0,0.0,0.0,0.0,-3.7102,0.0,0.0,0.0,0.0,0.0,0.0,0.0,0.0,0.0,0.0,0.0,0.0,0.0,0.0,0.0,0.0,0.0,0.0,0.0,0.0,0.0,0.0,-3.0582,-3.0455,-3.0974,-3.0849,-3.0121,-2.9536,-2.8831,-2.8083,-2.6465,-2.5335,-2.4833,0.0,0.0,0.0,0.0,0.0,0.0,0.0,0.0,0.0,0.0,0.0,0.0,0.0,0.0,0.0,0.0,0.0,0.0,0.0,0.0,0.0,0.0,0.0,0.0,0.0,0.0,-1.9694,-1.8944,-1.8523,0.0,0.0,0.0,0.0,0.0,0.0,0.0,0.0,0.0,0.0,-2.2944,-2.4314,-2.5142,-2.5441,-2.5729,-2.6009,-2.518,-2.4362,-2.3881,-2.3818,-2.3433,0.0,0.0,0.0,0.0,0.0,0.0,0.0,0.0,0.0,0.0,0.0,0.0,0.0,0.0,0.0,0.0,0.0,0.0,0.0,0.0,0.0,0.0,0.0,0.0,0.0,0.0,0.0,-3.9382,-3.8671,0.0,0.0,0.0,0.0,0.0,0.0,0.0,0.0,0.0,0.0,0.0,-3.6417,-3.5851,0.0,0.0,0.0,0.0,0.0,0.0,0.0,0.0,0.0,0.0,0.0,0.0,-3.0752,-3.0956,-3.0709,-3.04,-3.0059,-2.9006,-2.821,-2.757,-2.6289,-2.536,-2.4833,0.0,0.0,0.0,0.0,0.0,0.0,0.0,0.0,0.0,0.0,0.0,0.0,0.0,0.0,0.0,0.0,0.0,0.0,0.0,0.0,0.0,0.0,0.0,0.0,0.0,-2.1439,0.0,0.0,0.0,0.0,0.0,0.0,0.0,0.0,0.0,0.0,0.0,-2.0621,-2.2046,-2.3145,-2.4168,-2.5158,-2.5648,-2.5853,0.0,0.0,0.0,0.0,0.0,0.0,0.0,0.0,0.0,0.0,0.0,0.0,0.0,0.0,-2.1999,-2.1738,-2.1524,-2.1164,-2.0423,0.0,0.0,0.0,0.0,0.0,0.0,0.0,0.0,0.0,0.0,0.0,0.0,0.0,0.0,-4.0564,0.0,-3.9779,0.0,0.0,0.0,0.0,0.0,0.0,0.0,0.0,-3.8129,-3.8011,-3.7579,-3.6953,-3.6126,0.0,-3.4282,-3.3549,0.0,0.0,0.0,0.0,0.0,0.0,0.0,0.0,-3.1039,-3.1231,-3.0774,-3.045,-3.033,-2.8879,-2.7946,-2.757,-2.6289,-2.5536,-2.5385,-2.5184,-2.5184,0.0,0.0,0.0,0.0,0.0,0.0,0.0,0.0,0.0,0.0,0.0,0.0,0.0,0.0,0.0,0.0,0.0,0.0,0.0,0.0,0.0,0.0,0.0,-2.2136,0.0,0.0,0.0,0.0,0.0,0.0,0.0,0.0,0.0,-1.9713,-1.9985,-2.0819,-2.2506,-2.3224,-2.4022,-2.5147,0.0,0.0,0.0,0.0,0.0,0.0,0.0,-2.4338,-2.389,-2.3905,-2.4059,-2.4025,-2.3455,-2.2853,-2.2455,0.0,0.0,-2.1449,-2.1221,-2.0864,-2.0172,-1.9629,-1.9483,-2.0138,-1.9375,-1.8889,0.0,0.0,0.0,0.0,0.0,0.0,0.0,0.0,-4.1442,-4.1409,0.0,-4.0613,0.0,0.0,0.0,0.0,0.0,-3.899,0.0,0.0,-4.0023,-4.0381,-4.0202,-3.9344,-3.8306,-3.7044,-3.5963,-3.4902,-3.3703,-3.2288,0.0,0.0,0.0,0.0,0.0,0.0,-3.1438,-3.1321,-3.1192,-3.1083,-3.079,-2.9094,-2.8158,-2.8021,-2.649,-2.5887,-2.6424,-2.5946,-2.5887,-2.6449,-2.6474,0.0,0.0,0.0,0.0,0.0,0.0,0.0,0.0,0.0,0.0,0.0,0.0,0.0,0.0,0.0,0.0,0.0,0.0,0.0,0.0,-2.293,0.0,0.0,0.0,0.0,0.0,0.0,0.0,0.0,0.0,0.0,-1.9941,-2.0369,-2.1246,-2.2789,0.0,0.0,0.0,0.0,-2.5264,-2.5229,-2.4821,-2.4534,-2.4568,-2.4578,-2.4434,-2.3986,0.0,0.0,-2.4486,-2.3442,-2.2731,-2.3222,-2.2227,-2.1385,-2.135,-2.093,-2.0583,-2.0473,-1.9628,-1.9185,-1.9594,-1.9276,-1.8887,-4.576,0.0,0.0,0.0,0.0,-4.2062,-4.1934,-4.1442,-4.1943,-4.164,-4.0647,-4.0509,0.0,0.0,0.0,0.0,0.0,0.0,-4.0094,-4.0094,-4.0323,-3.9832,-3.8711,-3.8021,-3.7164,-3.622,-3.5369,-3.4785,-3.4376,-3.3423,-3.2454,-3.1526,0.0,0.0,0.0,0.0,-3.1438,-3.1321,-3.1706,-3.14,-3.0357,-2.9788,-2.8882,-2.7544,-2.67,-2.6323,-2.6499,-2.6323,-2.6323,-2.6474,-2.6499,0.0,0.0,0.0,0.0,0.0,0.0,0.0,0.0,0.0,0.0,0.0,0.0,0.0,0.0,0.0,0.0,0.0,0.0,0.0,-2.3174,-2.3236,-2.3339,0.0,0.0,0.0,0.0,0.0,0.0,0.0,0.0,0.0,-2.0524,-2.0536,-2.1229,0.0,0.0,-2.3342,-2.3981,-2.4288,-2.4456,-2.4456,-2.4642,0.0,-2.5565,-2.5636,-2.5588,-2.5444,-2.4767,-2.4188,-2.4223,-2.327,-2.2425,-2.2296,-2.1616,-2.0971,-2.0705,-2.0615,-2.03,-1.9569,-1.9226,-1.9198,-1.9404,-1.8888,-1.8522,-4.7414,-4.471,-4.3802,-4.3311,-4.3197,-4.3628,-4.3562,-4.3164,-4.3628,-4.3164,-4.2071,-4.1773,-4.1243,-4.0547,-4.0249,0.0,0.0,0.0,-4.0775,-4.0716,-4.0716,-4.004,-3.8849,-3.8318,-3.7541,-3.654,-3.5716,-3.521,-3.4976,-3.3972,-3.3064,-3.2309,0.0,0.0,-3.138,-3.1961,-3.223,-3.2179,-3.2506,-3.2201,-3.1343,-3.0315,-2.898,-2.7354,-2.6776,-2.6499,-2.6499,-2.6499,-2.6499,-2.6499,-2.6499,-2.6499,0.0,0.0,0.0,0.0,0.0,0.0,0.0,0.0,0.0,0.0,0.0,-2.4453,-2.3684,0.0,0.0,0.0,-2.3252,-2.3587,-2.3732,-2.3817,0.0,0.0,0.0,0.0,0.0,0.0,0.0,-2.288,-2.2714,-2.2412,-2.1889,-2.1411,-2.1471,-2.2465,-2.253,-2.273,-2.3275,0.0,-2.3703,-2.3868,-2.4161,-2.4619,-2.524,-2.5191,-2.5043,-2.4871,-2.4228,-2.3694,-2.3635,-2.2771,-2.2004,-2.1662,-2.1049,-2.045,-2.0177,-2.024,-2.0186,-1.9564,-1.9633,-1.9776,-1.9869,-1.9487,-1.9097,-4.9125,-4.7968,-4.6734,-4.6038,-4.5781,-4.5781,-4.5781,-4.5781,-4.5781,-4.5351,-4.4556,-4.3896,-4.3168,-4.2373,-4.1678,0.0,-4.1423,-4.1423,-4.1288,-4.1148,-4.1148,-4.0634,-3.9819,-3.9546,-3.8788,-3.7565,-3.6677,-3.5996,-3.545,-3.4288,-3.3707,-3.3649,-3.3035,-3.2626,-3.2542,-3.3151,-3.3503,-3.3503,-3.338,-3.3248,-3.3178,-3.0653,-2.8705,-2.7511,-2.6836,-2.6499,-2.6499,-2.6499,-2.6499,-2.6499,-2.6499,-2.6499,-2.6499,0.0,0.0,0.0,0.0,0.0,0.0,0.0,0.0,0.0,0.0,0.0,0.0,0.0,0.0,0.0,-2.3929,0.0,-2.4496,-2.452,0.0,0.0,0.0,-2.4259,-2.59,-2.4785,-2.432,-2.5315,0.0,0.0,-2.3494,-2.265,-2.1928,-2.183,-2.1838,-2.2084,-2.2805,-2.2911,-2.3057,-2.3373,-2.3503,-2.3698,-2.4159,-2.3957,-2.3639,-2.3363,-2.2979,-2.2883,-2.2852,-2.208,-2.1471,-2.1357,-2.0547,-1.9902,-1.9863,-1.9885,-1.9942,-2.0139,-2.0314,-2.0489,-2.0391,-2.0255,-1.9831,-5.0326,-4.8829,-4.8498,-4.737,-4.5814,-4.5781,-4.5781,-4.5781,-4.5781,-4.5086,-4.386,-4.3664,-4.287,-4.1674,-4.148,-4.142,-4.1469,-4.1469,-4.1086,-4.0439,-4.0405,-3.9843,-3.8841,-3.8332,-3.7856,-3.7346,-3.6635,-3.6228,-3.6083,-3.5793,-3.5386,-3.4956,-3.4811,-3.3964,-3.26,-3.3184,-3.3503,-3.3503,-3.3912,-3.3825,-3.315,-3.0653,-2.917,-2.8802,-2.7316,-2.6499,-2.6499,-2.6499,-2.6499,-2.6499,-2.6499,-2.6499,-2.6499,-2.6499,0.0,0.0,0.0,0.0,0.0,0.0,0.0,0.0,0.0,-2.502,-2.4173,0.0,-2.4091,0.0,-2.4145,-2.4496,-2.4496,-2.4856,0.0,0.0,-2.5637,-2.5499,-2.5683,-2.5448,-2.4876,-2.3804,-2.3945,-2.3668,-2.2509,-2.2634,-2.2575,-2.1988,-2.2087,-2.2243,-2.2211,-2.2113,-2.2138,-2.2268,-2.2583,-2.3066,-2.3655,-2.3744,-2.3596,-2.3471,-2.2691,-2.2147,-2.2289,-2.1366,-2.0527,-2.0333,-1.9981,-1.9706,-1.9685,-1.9685,-1.9685,-1.9764,-1.9803,-1.9843,-1.9824,-1.9276,-1.8602,-5.1058,-5.0055,-4.9723,-4.8895,-4.7703,-4.7073,-4.6775,-4.6775,-4.6775,-4.6146,-4.5052,-4.4721,-4.4125,-4.3363,-4.3032,-4.2888,-4.2855,-4.2286,-4.1502,-4.0653,-4.027,-3.9493,-3.8501,-3.8076,-3.7791,-3.768,-3.707,-3.6751,-3.6722,-3.617,-3.5741,-3.5392,-3.5096,-3.4399,-3.3441,-3.3703,-3.391,-3.3906,-3.4225,-3.3997,-3.3185,-3.0969,-2.975,-2.9598,-2.7599,-2.6625,-2.6851,-2.6625,-2.6499,-2.6499,-2.6499,-2.6499,-2.6499,-2.6499,-2.6223,0.0,0.0,0.0,0.0,0.0,0.0,0.0,0.0,0.0,0.0,0.0,-2.4499,-2.4131,-2.4578,-2.4963,-2.5204,-2.5276,-2.5636,-2.6382,-2.5883,-2.5639,-2.5922,-2.5639,-2.4952,-2.3846,-2.4156,-2.395,-2.2653,-2.2802,-2.2928,-2.2484,-2.2425,-2.2289,-2.1981,-2.1869,-2.1908,-2.207,-2.2191,-2.233,-2.2598,-2.2595,-2.2494,-2.2247,-2.1635,-2.1168,-2.1291,-2.0566,-1.9942,-1.9803,-1.9587,-1.9469,-1.9469,-1.9469,-1.9469,-1.9469,-1.9469,-1.9453,-1.9442,-1.8901,-1.8304,-5.1521,-5.1249,-5.0618,-5.0286,-5.0087,-4.873,-4.8133,-4.8133,-4.8034,-4.7603,-4.6841,-4.6113,-4.5748,-4.5582,-4.4984,-4.4591,-4.4337,-4.3159,-4.2045,-4.1062,-4.0309,-3.9421,-3.8493,-3.8315,-3.8202,-3.8173,-3.768,-3.7418,-3.7389,-3.6322,-3.5712,-3.5625,-3.5067,-3.4748,-3.4661,-3.4661,-3.4574,-3.4395,-3.4366,-3.4065,-3.3353,-3.1475,-3.0392,-3.0056,-2.7838,-2.6801,-2.7143,-2.6751,-2.6499,-2.6499,-2.6499,-2.6499,-2.6499,-2.6499,-2.6273,0.0,-2.6223,0.0,0.0,0.0,0.0,0.0,0.0,0.0,0.0,-2.4891,-2.4798,-2.4626,-2.5083,-2.5588,-2.6045,-2.5733,-2.5889,-2.6849,-2.5826,-2.5386,-2.6183,-2.5613,-2.4907,-2.4361,-2.4402,-2.4145,-2.3236,-2.3101,-2.3101,-2.3023,-2.2773,-2.2484,-2.2148,-2.1975,-2.2016,-2.2402,-2.207,-2.1745,-2.141,-2.1252,-2.1095,-2.0762,-2.0547,-2.0293,-2.037,-1.9978,-1.9606,-1.9566,-1.9429,-1.9292,-1.9292,-1.9292,-1.9292,-1.9292,-1.9256,-1.9226,-1.9182,-1.8864,-1.8468,-5.1986,-5.1282,-5.1149,-5.075,-5.0154,-4.926,-4.8895,-4.8862,-4.8266,-4.757,-4.6841,-4.6113,-4.545,-4.4917,-4.4785,-4.4083,-4.2999,-4.2713,-4.1819,-4.0409,-4.0235,-3.9565,-3.853,-3.8456,-3.8352,-3.8202,-3.8086,-3.8028,-3.8028,-3.7767,-3.7418,-3.6954,-3.6809,-3.6489,-3.5967,0.0,0.0,0.0,-3.4366,-3.4332,-3.4133,-3.2166,-3.0887,-3.03,-2.8273,0.0,-2.6675,-2.6549,-2.6499,-2.6499,-2.6499,0.0,0.0,0.0,0.0,0.0,0.0,0.0,0.0,0.0,0.0,0.0,-2.5654,-2.5703,-2.546,-2.532,-2.5191,-2.518,-2.5636,-2.5997,-2.6093,-2.643,-2.6849,-2.7387,-2.6667,-2.6041,-2.5953,-2.5729,-2.5104,-2.3541,-2.4036,-2.4166,-2.3276,-2.3101,-2.3101,-2.3101,-2.3023,-2.2945,-2.2847,-2.2324,-2.1953,-2.1973,-2.1719,-2.1327,-2.121,-2.0977,-2.082,-2.0739,-2.0526,-2.033,-2.0259,-1.9912,-1.9527,-1.939,-1.9332,-1.9292,-1.9292,-1.9292,-1.9292,-1.9292,-1.9054,-1.8797,-1.8801,-1.8507,-1.8101,-5.2743,0.0,-5.2011,-5.1647,0.0,-5.0485,-4.9988,-4.9591,-4.8465,-4.7802,-4.7438,-4.704,-4.6676,-4.6278,-4.5549,-4.4865,-4.4128,-4.3098,-4.1949,-4.0823,-4.0409,-3.9702,-3.8789,-3.8575,-3.8456,-3.8352,-3.824,-3.8202,-3.8173,-3.7912,-3.7593,-3.7302,-3.6983,-3.6635,-3.6315,-3.6286,-3.5822,-3.4893,-3.4574,-3.4366,-3.4303,-3.2754,-3.166,-3.1186,0.0,0.0,0.0,0.0,0.0,0.0,0.0,0.0,0.0,0.0,0.0,-2.6499,-2.6499,-2.659,-2.6737,-2.6762,-2.6721,-2.6684,-2.6564,-2.6237,-2.5513,-2.5359,-2.542,-2.5685,-2.5949,-2.631,-2.6801,-2.6771,-2.6855,-2.7284,-2.6269,-2.5371,-2.5147,-2.4723,-2.4102,-2.3343,-2.3517,-2.3604,-2.3188,-2.3101,-2.3101,-2.3101,-2.3101,-2.3101,-2.3062,-2.275,-2.2461,-2.2246,-2.2031,-2.1797,-2.1562,-2.1172,-2.0917,-2.0973,-2.0543,-2.0153,-2.0106,-1.9736,-1.9429,-1.9292,-1.9292,-1.9292,-1.9292,-1.9292,-1.9292,-1.9274,-1.9146,-1.8926,-1.8742,-1.8229,-1.7752,-5.34,-5.3334,-5.2672,-5.2409,-5.2343,-5.1614,-5.0817,-4.9922,0.0,0.0,0.0,-4.8001,-4.7934,-4.7736,-4.6543,-4.5914,-4.5684,-4.371,-4.2398,-4.165,-4.0712,-3.9844,-3.909,-3.8723,-3.853,-3.8493,-3.8277,-3.8202,-3.8173,-3.7709,-3.7476,-3.7418,-3.6896,-3.6635,-3.6635,-3.6548,-3.6228,-3.5741,-3.4951,-3.4516,-3.4366,-3.318,-3.234,-3.1947,-3.0343,-2.9238,-2.875,-2.8348,-2.7896,-2.7444,-2.7444,-2.7253,-2.6826,-2.6776,-2.6776,-2.6801,-2.6801,-2.6977,-2.7358,-2.7276,-2.7343,-2.7742,-2.7397,-2.6674,-2.5661,-2.5553,-2.5733,-2.6069,-2.6262,-2.6719,-2.7474,-2.7129,-2.6926,-2.7342,-2.5799,-2.4744,-2.4659,-2.3734,-2.3188,-2.3101,-2.3144,-2.3101,-2.3101,-2.3101,-2.3101,-2.3101,-2.3101,-2.3101,-2.3101,-2.3062,-2.2906,-2.2652,-2.248,-2.2344,-2.2051,-2.1641,-2.1307,-2.103,-2.0501,-1.9997,-1.9764,-1.9508,-1.9292,-1.9292,-1.9292,-1.9292,-1.9292,-1.9292,-1.9292,-1.9292,-1.9292,-1.9201,-1.8852,-1.8229,-1.7734,-5.3434,-5.3334,-5.2672,-5.2409,-5.2343,-5.1614,-5.0518,-4.9226,-4.8365,-4.8001,-4.8001,-4.8001,-4.7636,-4.704,-4.6841,-4.6378,-4.5717,-4.4233,-4.3137,0.0,-4.1069,-3.9955,-3.909,-3.887,-3.8649,-3.8493,-3.8277,-3.8202,-3.8202,-3.8115,-3.8086,-3.8057,-3.797,-3.7912,-3.7883,-3.7418,-3.7128,-3.7012,-3.5851,-3.4951,-3.4395,-3.3539,-3.2563,-3.1447,-3.0529,-2.9445,-2.8259,-2.8172,-2.8072,-2.7996,-2.7996,-2.7946,-2.7871,-2.7846,-2.7871,-2.7871,-2.7871,-2.7823,-2.7752,-2.7862,-2.7839,-2.7545,-2.7173,-2.6863,-2.6681,-2.6681,-2.6513,-2.6214,-2.6935,-2.7344,-2.7138,-2.7717,-2.806,-2.8075,-2.667,-2.561,-2.5442,-2.4059,-2.3101,-2.3101,-2.3101,-2.3101,-2.3101,-2.3101,-2.3101,-2.3101,-2.3101,-2.3101,-2.3101,-2.3101,-2.3081,-2.2984,-2.2691,-2.2519,-2.2402,-2.207,-2.1557,-2.0805,-2.0609,-2.0181,-1.9545,-1.9371,-1.9292,-1.9292,-1.9292,-1.9292,-1.9292,-1.9292,-1.9292,-1.9292,-1.9292,-1.9256,-1.9164,-1.8779,-1.8302,-5.403,-5.3864,-5.2837,-5.2409,-5.2376,-5.1578,-5.0684,-4.9657,-4.8928,-4.8398,-4.8034,-4.8001,-4.7835,-4.7471,-4.7073,-4.6709,-4.6344,-4.5334,-4.4204,-4.3139,-4.2482,-4.152,-4.0353,-3.9654,-3.9496,-3.9677,-3.9051,-3.8899,-3.9189,-3.8899,-3.8754,-3.8725,-3.8405,-3.8202,-3.8173,-3.7941,-3.7622,-3.7302,-3.6373,-3.5735,-3.5444,-3.4755,-3.3713,-3.2264,-3.1531,-3.0498,-2.9064,-2.9026,-2.8875,-2.8537,-2.8549,-2.8423,-2.8122,-2.8122,-2.8122,-2.8122,-2.8122,-2.8186,-2.8375,-2.8787,-2.8837,-2.8393,-2.8201,-2.797,-2.7777,-2.7234,-2.6922,-2.6946,-2.7464,-2.7714,-2.7738,-2.7774,-2.7592,-2.708,-2.5841,-2.4914,-2.436,-2.3691,-2.3144,-2.3101,-2.3101,-2.3101,-2.3101,-2.3101,-2.3101,-2.3101,-2.3101,-2.3101,-2.3101,-2.3101,-2.3101,-2.3081,-2.2925,-2.2828,-2.2789,-2.25,-2.1945,-2.1211,-2.084,-2.0294,-1.9601,-1.939,-1.9292,-1.9292,-1.9292,-1.9292,-1.9292,-1.9292,-1.9292,-1.9292,-1.9292,-1.9292,-1.9256,-1.8981,-1.8522,-5.4527,-5.4394,-5.297,-5.2409,-5.2376,-5.1812,-5.1015,-5.0153,-4.9591,-4.8862,-4.8067,-4.8001,-4.8001,-4.7934,-4.7404,-4.7139,-4.7008,-4.6186,-4.5179,-4.4143,-4.357,-4.2731,-4.1633,-4.0553,-4.0377,-4.0722,-4.0002,-3.977,-4.011,-3.9702,-3.946,-3.9334,-3.8754,-3.8434,-3.8434,-3.8289,-3.797,-3.7506,-3.6983,-3.6606,-3.6286,-3.5741,-3.4633,-3.31,-3.2409,-3.1368,-2.9895,-2.9779,-2.9578,-2.9139,-2.9088,-2.8925,-2.8524,-2.8473,-2.8473,-2.8499,-2.8473,-2.8674,-2.9101,-2.949,-2.9585,-2.9209,-2.9091,-2.8895,-2.8545,-2.7777,-2.7354,-2.7642,-2.7786,-2.8041,-2.8131,-2.7867,-2.7162,-2.6442,-2.5421,-2.4659,-2.3844,-2.3387,-2.3101,-2.3101,-2.3101,-2.3101,-2.3101,-2.3101,-2.3101,-2.3101,-2.3101,-2.3101,-2.3101,-2.3101,-2.3101,-2.3101,-2.3101,-2.3081,-2.3081,-2.2871,-2.2353,-2.1717,-2.1107,-2.0501,-1.9885,-1.9482,-1.9292,-1.9292,-1.9292,-1.9292,-1.9292,-1.9292,-1.9292,-1.9292,-1.9292,-1.9292,-1.9274,-1.8837,-1.8362,-5.449,-5.4295,-5.3003,-5.2409,-5.2409,-5.2343,-5.1479,-5.0286,-5.0121,-4.9326,-4.8067,-4.8001,-4.8001,-4.8001,-4.7901,-4.7868,-4.7769,-4.6453,-4.5729,-4.5329,-4.3514,-4.252,-4.2358,-4.1408,-4.0982,-4.1062,-4.0781,-4.0588,-4.0539,-4.0422,-4.0227,-3.9983,-3.9392,-3.9102,-3.9044,-3.8522,-3.8173,-3.8115,-3.8057,-3.7447,-3.6344,-3.5741,-3.4598,-3.3053,-3.2436,-3.1368,-2.9856,-2.9779,-2.9754,-2.9729,-2.9679,-2.9679,-2.9628,-2.9628,-2.9628,-2.9603,-2.9603,-2.9679,-2.9704,-2.9535,-2.9419,-2.9341,-2.9028,-2.8855,-2.8776,-2.8521,-2.8162,-2.7921,-2.8162,-2.8234,-2.7897,-2.8115,-2.8179,-2.7874,-2.6629,-2.561,-2.5231,-2.4102,-2.3101,-2.3101,-2.3101,-2.3101,-2.3101,-2.3101,-2.3101,-2.3101,-2.3101,-2.3101,-2.3101,-2.3101,-2.3101,-2.3101,-2.3101,-2.3101,-2.3081,-2.3081,-2.2616,-2.1926,-2.14,-2.078,-2.0061,-1.9571,-1.9292,-1.9292,-1.9292,-1.9292,-1.9292,-1.9292,-1.9292,-1.9292,-1.9292,-1.9292,-1.9213,-1.8665,-1.7948,-5.4887,-5.4427,-5.3434,-5.2738,-5.2442,-5.2409,-5.1545,-5.0253,-5.022,-4.9392,-4.81,-4.8001,-4.8001,-4.8001,-4.8001,-4.8001,-4.7935,-4.7342,-4.6812,-4.634,-4.5009,-4.4127,-4.3574,-4.2294,-4.1852,-4.2149,-4.1627,-4.142,-4.1525,-4.1102,-4.043,-3.9654,-3.9654,-3.9567,-3.9218,-3.8928,-3.8609,-3.8231,-3.8202,-3.7941,-3.7418,-3.6838,-3.5573,-3.3786,-3.2989,-3.1724,-3.0036,-2.9779,-2.9779,-2.9779,-2.9779,-2.9779,-2.9779,-2.9779,-2.9779,-2.9779,-2.9779,-2.9779,-2.9779,-2.9702,-2.956,-2.9419,-2.9263,-2.9106,-2.8973,-2.8816,-2.8639,-2.8572,-2.8497,-2.8402,-2.8234,-2.8378,-2.8299,-2.7753,-2.704,-2.6257,-2.5126,-2.4402,-2.3777,-2.3232,-2.3101,-2.3101,-2.3101,-2.3101,-2.3101,-2.3101,-2.3101,-2.3101,-2.3101,-2.3101,-2.3101,-2.3101,-2.3101,-2.3101,-2.3101,-2.2969,-2.2601,-2.1978,-2.1349,-2.0727,-2.009,-1.9586,-1.9311,-1.9292,-1.9292,-1.9292,-1.9292,-1.9292,-1.9292,-1.9292,-1.9292,-1.9292,-1.9292,-1.8598,-1.7746,-5.4854,-5.4125,-5.3434,-5.2837,-5.2409,-5.221,-5.138,-5.0253,-5.0021,-4.9193,-4.8067,-4.8001,-4.8001,-4.8001,-4.8001,-4.8001,-4.8001,-4.8001,-4.7704,-4.7033,-4.6163,-4.5369,-4.4675,-4.3201,-4.2644,-4.2942,-4.2456,-4.2286,-4.2386,-4.175,-4.0902,-4.0147,-4.0263,-4.0147,-3.9741,-3.9567,-3.9218,-3.8783,-3.8725,-3.8638,-3.8463,-3.8057,-3.6796,-3.4748,-3.3537,-3.2182,-3.0471,-3.0009,-2.9779,-2.9779,-2.9779,-2.9779,-2.9779,-2.9779,-2.9779,-2.9779,-2.9779,-2.9779,-2.9779,-2.9779,-2.9702,-2.956,-2.9457,-2.9341,-2.9184,-2.8988,-2.8934,-2.8949,-2.8736,-2.8578,-2.8578,-2.8538,-2.8219,-2.7632,-2.7389,-2.6547,-2.5105,-2.4701,-2.4122,-2.3256,-2.3101,-2.3101,-2.3101,-2.3101,-2.3101,-2.3101,-2.3101,-2.3101,-2.3101,-2.3101,-2.3101,-2.3101,-2.3101,-2.3101,-2.3101,-2.3013,-2.2577,-2.2049,-2.148,-2.0806,-2.0163,-1.9677,-1.9311,-1.9292,-1.9292,-1.9292,-1.9292,-1.9292,-1.9253,-1.9253,-1.9134,-1.8975,-1.8816,-1.8037,-1.7147,-5.4092,-5.3434,-5.2738,-5.244,-5.2376,-5.168,-5.0916,-5.0154,-4.9491,-4.873,-4.8067,-4.8001,-4.8001,-4.8001,-4.8001,-4.8001,-4.8001,-4.8001,-4.7968,-4.7704,-4.6375,-4.566,-4.5551,-4.4051,-4.326,-4.325,-4.319,-4.2961,-4.2659,-4.224,-4.2034,-4.1889,-4.1308,-4.1047,-4.0815,-4.035,-4.0031,-3.9886,-3.9886,-3.9712,-3.9218,-3.9102,-3.8055,-3.6127,-3.4073,-3.2648,-3.1717,-3.0496,-2.9804,-2.9779,-2.9779,-2.9779,-2.9779,-2.9779,-2.9779,-2.9779,-2.9779,-2.9779,-2.9779,-2.9779,-2.9779,-2.974,-2.956,-2.9419,-2.938,-2.9209,-2.9052,-2.8831,-2.8855,-2.8791,-2.8752,-2.8618,-2.8459,-2.8339,-2.7672,-2.6835,-2.5819,-2.5041,-2.4145,-2.3343,-2.3101,-2.3101,-2.3101,-2.3101,-2.3101,-2.3101,-2.3101,-2.3101,-2.3101,-2.3101,-2.3101,-2.3101,-2.3101,-2.3101,-2.3101,-2.3013,-2.2818,-2.2282,-2.1617,-2.1006,-2.0435,-1.9934,-1.9549,-1.9292,-1.9292,-1.9292,-1.9292,-1.9253,-1.9213,-1.9054,-1.8559,-1.8318,-1.8118,-1.6617,-1.5891,-5.4096,-5.3367,-5.2672,-5.2409,-5.2343,-5.1578,-5.0883,-5.0154,-4.9425,-4.8696,-4.8067,-4.8001,-4.8001,-4.8001,-4.8001,-4.8001,-4.8001,-4.8001,-4.8001,-4.7836,-4.641,-4.5697,-4.5515,-4.4082,-4.329,-4.329,-4.329,-4.2962,-4.2357,-4.2309,-4.2065,-4.1773,-4.1738,-4.1541,-4.1134,-4.0873,-4.0525,-4.0147,-4.0089,-3.9973,-3.977,-3.9392,-3.8775,-3.8045,-3.5509,-3.345,-3.1937,-3.0853,-3.0156,-2.9804,-2.9779,-2.9779,-2.9779,-2.9779,-2.9779,-2.9779,-2.9779,-2.9779,-2.9779,-2.9779,-2.9779,-2.9779,-2.9702,-2.9663,-2.9599,-2.9443,-2.9302,-2.9365,-2.9131,-2.9013,-2.8934,-2.8697,-2.8522,-2.8459,-2.8219,-2.7429,-2.6152,-2.5484,-2.4787,-2.3517,-2.3101,-2.3101,-2.3101,-2.3101,-2.3101,-2.3101,-2.3101,-2.3101,-2.3101,-2.3101,-2.3101,-2.3101,-2.3101,-2.3101,-2.3101,-2.2969,-2.2755,-2.2282,-2.1706,-2.1025,-2.0463,-1.9842,-1.9421,-1.9329,-1.9311,-1.9329,-1.9347,-1.9134,-1.9094,-1.8674,-1.8175,-1.7472,-1.7253,-1.6041,-1.5519,-5.3533,-5.3069,-5.2572,-5.2241,-5.1978,-5.1282,-5.0518,-4.979,-4.9061,-4.8465,-4.8067,-4.8001,-4.8001,-4.8001,-4.8001,-4.8001,-4.8001,-4.8001,-4.8001,-4.7869,-4.641,-4.5697,-4.5442,-4.4082,-4.329,-4.329,-4.325,-4.2892,-4.2446,-4.2441,-4.225,-4.1898,-4.2065,-4.1983,-4.1564,-4.1465,-4.1163,-4.0786,-4.0757,-4.067,-4.0379,-3.9828,-3.9392,-3.8842,-3.6526,-3.4414,-3.2838,-3.1419,-3.0457,-3.0105,-2.988,-2.9779,-2.9779,-2.9779,-2.9779,-2.9779,-2.9779,-2.9779,-2.9779,-2.9779,-2.9779,-2.9779,-2.9779,-2.9779,-2.9804,-2.9663,-2.9624,-2.9585,-2.9326,-2.9091,-2.8973,-2.8697,-2.8522,-2.8522,-2.8522,-2.7874,-2.6464,-2.5986,-2.4956,-2.3517,-2.3101,-2.3101,-2.3101,-2.3101,-2.3101,-2.3101,-2.3101,-2.3101,-2.3101,-2.3101,-2.3101,-2.3101,-2.3101,-2.3101,-2.3101,-2.3013,-2.2882,-2.249,-2.1773,-2.1104,-2.0597,-1.9961,-1.9494,-1.9384,-1.9347,-1.9384,-1.9286,-1.9073,-1.8714,-1.829,-1.7424,-1.6576,-1.618,-1.5643,-1.5159,-5.2442,-5.2373,-5.2409,-5.1945,-5.1249,-5.0518,-4.979,-4.9127,-4.8365,-4.8067,-4.8001,-4.8001,-4.8001,-4.8001,-4.8001,-4.8001,-4.8001,-4.8001,-4.8001,-4.7869,-4.641,-4.5697,-4.5588,-4.4082,-4.329,-4.329,-4.313,-4.3021,-4.2961,-4.278,-4.2659,-4.2618,-4.2456,-4.2363,-4.2363,-4.214,-4.2046,-4.1959,-4.1889,-4.1657,-4.1105,-4.0379,-3.9731,-3.9015,-3.6877,-3.5315,-3.4627,-3.2042,-3.0633,-3.0482,-3.0055,-2.9804,-2.9779,-2.9779,-2.9779,-2.9779,-2.9779,-2.9779,-2.9779,-2.9779,-2.9779,-2.9779,-2.9779,-2.9779,-2.9779,-2.9779,-2.9702,-2.9482,-2.9263,-2.9091,-2.8895,-2.8697,-2.8562,-2.8522,-2.8522,-2.8059,-2.7121,-2.6235,-2.5105,-2.3517,-2.3101,-2.3101,-2.3101,-2.3101,-2.3101,-2.3101,-2.3101,-2.3101,-2.3101,-2.3101,-2.3101,-2.3101,-2.3101,-2.3101,-2.3101,-2.3101,-2.2969,-2.2741,-2.1907,-2.1179,-2.0871,-2.0356,-1.9806,-1.96,-1.9476,-1.9454,-1.8851,-1.8656,-1.8331,-1.7782,-1.6689,-1.5726,-1.5325,-1.4922,-1.4587,-5.2144,-5.168,-5.1647,-5.1214,-5.0485,-4.9756,-4.9293,-4.9028,-4.8332,-4.8001,-4.8001,-4.8001,-4.8001,-4.8001,-4.8001,-4.8001,-4.8001,-4.8001,-4.8001,-4.7704,-4.641,-4.5697,-4.5405,-4.4043,-4.329,-4.329,-4.325,-4.321,-4.317,-4.301,-4.29,-4.289,-4.2688,-4.2607,-4.2566,-4.2392,-4.231,-4.2269,-4.2175,-4.1976,-4.1686,-4.067,-3.9765,-3.8882,-3.7366,-3.5907,-3.4509,-3.2327,-3.0849,-3.0131,-2.988,-2.9779,-2.9779,-2.9779,-2.9779,-2.9779,-2.9779,-2.9779,-2.9779,-2.9779,-2.9779,-2.9779,-2.9779,-2.9779,-2.9779,-2.9779,-2.9779,-2.9663,-2.9624,-2.9468,-2.9091,-2.8973,-2.8776,-2.8538,-2.8483,-2.7874,-2.6464,-2.4956,-2.382,-2.3256,-2.3101,-2.3101,-2.3101,-2.3101,-2.3101,-2.3101,-2.3101,-2.3101,-2.3101,-2.3101,-2.3101,-2.3101,-2.3101,-2.3101,-2.3101,-2.3101,-2.3057,-2.2804,-2.2107,-2.1452,-2.1165,-2.0763,-2.0251,-1.9838,-1.9674,-1.9272,-1.8687,-1.8175,-1.7806,-1.7033,-1.5906,-1.52,-1.4769,-1.4432,-1.4166,-5.2144,-5.1713,-5.1415,-5.085,-5.0154,-4.9425,-4.8961,-4.8663,-4.8199,-4.8001,-4.8001,-4.8001,-4.8001,-4.8001,-4.8001,-4.8001,-4.8001,-4.8001,-4.7836,-4.7404,-4.6304,-4.5697,-4.5478,-4.4043,-4.329,-4.329,-4.329,-4.329,-4.329,-4.317,-4.313,-4.3061,-4.293,-4.2809,-4.2809,-4.2607,-4.2514,-4.2392,-4.2298,-4.2175,-4.1831,-4.0786,-3.9693,-3.8799,-3.7318,-3.5682,-3.4114,-3.2332,-3.1085,-3.0432,-3.003,-2.9804,-2.9779,-2.9779,-2.9779,-2.9779,-2.9779,-2.9779,-2.9779,-2.9779,-2.9779,-2.9779,-2.9779,-2.9779,-2.9779,-2.9779,-2.9779,-2.9779,-2.9702,-2.9521,-2.9287,-2.9052,-2.8895,-2.8657,-2.8538,-2.7713,-2.6027,-2.4531,-2.3517,-2.3256,-2.3101,-2.3101,-2.3101,-2.3101,-2.3101,-2.3101,-2.3101,-2.3101,-2.3101,-2.3101,-2.3101,-2.3101,-2.3101,-2.3101,-2.3101,-2.3101,-2.3101,-2.2771,-2.2323,-2.1859,-2.1513,-2.1102,-2.0613,-2.0168,-1.993,-1.9201,-1.8579,-1.7749,-1.7204,-1.6124,-1.52,-1.4755,-1.4348,-1.4264,-1.4082,-5.2343,-5.221,-5.1547,-5.0684,-4.9955,-4.926,-4.863,-4.81,-4.8001,-4.8001,-4.8001,-4.8001,-4.8001,-4.8001,-4.8001,-4.8001,-4.8001,-4.8001,-4.7605,-4.6862,-4.6024,-4.5588,-4.511,-4.3888,-4.3329,-4.329,-4.329,-4.329,-4.329,-4.329,-4.329,-4.325,-4.313,-4.305,-4.301,-4.2809,-4.2637,-4.2474,-4.2392,-4.2269,-4.2046,-4.0786,-3.9693,-3.8871,-3.705,-3.5331,-3.3799,-3.2255,-3.1336,-3.1135,-3.0231,-2.9779,-2.9779,-2.9779,-2.9779,-2.9779,-2.9779,-2.9779,-2.9779,-2.9779,-2.9779,-2.9779,-2.9779,-2.9779,-2.9779,-2.9779,-2.9779,-2.9804,-2.9599,-2.9443,-2.9341,-2.9106,-2.887,-2.8752,-2.8435,-2.7528,-2.6027,-2.4999,-2.4059,-2.3299,-2.3101,-2.3101,-2.3101,-2.3101,-2.3101,-2.3101,-2.3101,-2.3101,-2.3101,-2.3101,-2.3101,-2.3101,-2.3101,-2.3101,-2.3101,-2.3101,-2.3101,-2.2892,-2.2519,-2.2144,-2.1782,-2.1324,-2.0869,-2.0503,-2.0053,-1.924,-1.829,-1.74,-1.6509,-1.5533,-1.4838,-1.4292,-1.4082,-1.4082,-1.4082,-5.1744,-5.0783,-5.0551,-4.9756,-4.8663,-4.8365,-4.8199,-4.8001,-4.8001,-4.8001,-4.8001,-4.8001,-4.8001,-4.8001,-4.8001,-4.8001,-4.8001,-4.8001,-4.7571,-4.6793,-4.6056,-4.4962,-4.412,-4.3566,-4.3319,-4.329,-4.329,-4.329,-4.329,-4.329,-4.329,-4.329,-4.325,-4.321,-4.321,-4.305,-4.285,-4.2607,-4.2474,-4.231,-4.1901,-4.0786,-3.9722,-3.8896,-3.7951,-3.6318,-3.4263,-3.2383,-3.1025,-3.0256,-2.998,-2.9779,-2.9779,-2.9779,-2.9779,-2.9779,-2.9779,-2.9779,-2.9779,-2.9779,-2.9779,-2.9779,-2.9779,-2.9779,-2.9779,-2.9779,-2.9779,-2.9779,-2.9702,-2.9599,-2.9419,-2.9302,-2.9106,-2.8752,-2.8155,-2.7203,-2.5986,-2.502,-2.4102,-2.3319,-2.3101,-2.3101,-2.3101,-2.3101,-2.3101,-2.3101,-2.3101,-2.3101,-2.3101,-2.3101,-2.3101,-2.3101,-2.3101,-2.3101,-2.3101,-2.3101,-2.3101,-2.3013,-2.2717,-2.2347,-2.1939,-2.1571,-2.1047,-2.0534,-2.0223,-1.957,-1.8074,-1.6878,-1.5906,-1.509,-1.4545,-1.4082,-1.4082,-1.4082,-1.4082,-5.1448,-5.0585,-4.9988,-4.926,-4.8465,-4.8133,-4.8001,-4.8001,-4.8001,-4.8001,-4.8001,-4.8001,-4.8001,-4.8001,-4.8001,-4.8001,-4.8001,-4.8001,-4.7571,-4.6756,-4.5981,-4.4787,-4.3687,-4.3529,-4.3559,-4.329,-4.329,-4.329,-4.329,-4.329,-4.329,-4.329,-4.329,-4.329,-4.329,-4.321,-4.305,-4.285,-4.2607,-4.2345,-4.1762,-4.0681,-3.9567,-3.8649,-3.7926,-3.6487,-3.4173,-3.2332,-3.0884,-3.0055,-2.9779,-2.9779,-2.9779,-2.9779,-2.9779,-2.9779,-2.9779,-2.9779,-2.9779,-2.9779,-2.9779,-2.9779,-2.9779,-2.9779,-2.9779,-2.9779,-2.9779,-2.9779,-2.9779,-2.9702,-2.956,-2.9404,-2.9145,-2.8791,-2.8155,-2.7226,-2.5944,-2.5041,-2.4102,-2.343,-2.3101,-2.3101,-2.3101,-2.3101,-2.3101,-2.3101,-2.3101,-2.3101,-2.3101,-2.3101,-2.3101,-2.3101,-2.3101,-2.3101,-2.3101,-2.3101,-2.3057,-2.3013,-2.275,-2.2397,-2.2038,-2.1695,-2.1286,-2.079,-2.0406,-1.959,-1.8003,-1.6629,-1.5809,-1.5075,-1.4461,-1.4082,-1.4082,-1.4082,-1.4082,-5.1216,-5.0984,-4.9657,-4.9061,-4.8862,-4.8398,-4.8199,-4.8166,-4.8332,-4.8365,-4.8332,-4.8199,-4.8233,-4.81,-4.81,-4.8067,-4.8133,-4.8067,-4.7469,-4.6734,-4.589,-4.4822,-4.3918,-4.4007,-4.3917,-4.3529,-4.3379,-4.329,-4.329,-4.329,-4.329,-4.329,-4.329,-4.329,-4.329,-4.329,-4.318,-4.2981,-4.2809,-4.2401,-4.1701,-4.0781,-3.9679,-3.8677,-3.7186,-3.5912,-3.3966,-3.229,-3.0934,-2.993,-2.9829,-2.9779,-2.9779,-2.9779,-2.9779,-2.9779,-2.9779,-2.9779,-2.9779,-2.9779,-2.9779,-2.9779,-2.9779,-2.9779,-2.9779,-2.9779,-2.9779,-2.9779,-2.9779,-2.9779,-2.9702,-2.9365,-2.9091,-2.8855,-2.8618,-2.7672,-2.6193,-2.5126,-2.4251,-2.3276,-2.3101,-2.3101,-2.3101,-2.3101,-2.3101,-2.3101,-2.3101,-2.3101,-2.3101,-2.3101,-2.3101,-2.3101,-2.3101,-2.3101,-2.3101,-2.3101,-2.3057,-2.2969,-2.2662,-2.2353,-2.2043,-2.1736,-2.1482,-2.1083,-2.0631,-1.9459,-1.7737,-1.6609,-1.5869,-1.495,-1.4208,-1.4082,-1.4082,-1.4082,-1.4082,-5.0618,-4.9558,-4.9226,-4.8763,-4.8365,-4.8696,-4.8862,-4.8928,-4.9491,-4.9624,-4.9558,-4.9127,-4.8862,-4.8829,-4.8332,-4.8299,-4.873,-4.8299,-4.7564,-4.6702,-4.5901,-4.5361,-4.4809,-4.4646,-4.4287,-4.4018,-4.3529,-4.3319,-4.3319,-4.3349,-4.329,-4.329,-4.329,-4.329,-4.329,-4.329,-4.321,-4.305,-4.2941,-4.2761,-4.2176,-4.1086,-4.0246,-3.9545,-3.7258,-3.5556,-3.4365,-3.2492,-3.1125,-3.0507,-3.003,-2.9779,-2.9779,-2.9779,-2.9779,-2.9779,-2.9779,-2.9779,-2.9779,-2.9779,-2.9779,-2.9779,-2.9779,-2.9779,-2.9779,-2.9779,-2.9779,-2.9779,-2.9779,-2.9779,-2.9765,-2.939,-2.9091,-2.8973,-2.8657,-2.7834,-2.6235,-2.561,-2.4766,-2.3604,-2.3101,-2.3101,-2.3101,-2.3101,-2.3101,-2.3101,-2.3101,-2.3101,-2.3101,-2.3101,-2.3101,-2.3101,-2.3101,-2.3101,-2.3101,-2.3101,-2.3013,-2.2925,-2.2618,-2.2309,-2.2043,-2.1739,-2.1511,-2.1156,-2.0778,-1.9347,-1.7692,-1.687,-1.6165,-1.5075,-1.4082,-1.4082,-1.4082,-1.4082,-1.4082,-5.0121,-4.9127,-4.9127,-4.8895,-4.8663,-4.9293,-4.9624,-4.969,-5.0021,-5.022,-5.0055,-4.9425,-4.9293,-4.9491,-4.8597,-4.8564,-4.926,-4.8829,-4.8253,-4.7677,-4.6944,-4.6661,-4.6568,-4.5751,-4.5125,-4.4736,-4.4107,-4.3798,-4.3708,-4.3469,-4.329,-4.329,-4.329,-4.329,-4.329,-4.329,-4.325,-4.317,-4.3021,-4.2822,-4.2287,-4.1469,-4.0451,-3.9566,-3.7191,-3.5438,-3.5048,-3.2702,-3.1473,-3.0859,-3.0231,-2.9779,-2.9779,-2.9779,-2.9779,-2.9779,-2.9779,-2.9779,-2.9779,-2.9779,-2.9779,-2.9779,-2.9779,-2.9779,-2.9779,-2.9779,-2.9779,-2.9779,-2.9779,-2.9779,-2.9804,-2.939,-2.9131,-2.9013,-2.8736,-2.7874,-2.6753,-2.6069,-2.5126,-2.3647,-2.3101,-2.3101,-2.3101,-2.3101,-2.3101,-2.3101,-2.3101,-2.3101,-2.3101,-2.3101,-2.3101,-2.3101,-2.3101,-2.3101,-2.3101,-2.3057,-2.3013,-2.2838,-2.2574,-2.2353,-2.2087,-2.181,-2.154,-2.1174,-2.0808,-1.9389,-1.7961,-1.7201,-1.6221,-1.4908,-1.4124,-1.4124,-1.4082,-1.4082,-1.4082,-4.9955,-4.926,-4.926,-4.926,-4.9392,-5.0055,-5.0386,-5.0386,-5.0518,-5.075,-5.0419,-4.9756,-4.9955,-4.9955,-4.8862,-4.9028,-4.9591,-4.9822,-4.9374,-4.8881,-4.7844,-4.7793,-4.7773,-4.6845,-4.5903,-4.5394,-4.4766,-4.4466,-4.4097,-4.3738,-4.3499,-4.3349,-4.329,-4.329,-4.329,-4.329,-4.329,-4.325,-4.317,-4.2912,-4.2327,-4.1617,-4.048,-3.8599,-3.6944,-3.5548,-3.4834,-3.3064,-3.1537,-3.1436,-3.0482,-3.0005,-2.9905,-2.9804,-2.9779,-2.9779,-2.9779,-2.9779,-2.9779,-2.9779,-2.9779,-2.9779,-2.9779,-2.9779,-2.9779,-2.9779,-2.9779,-2.9779,-2.9779,-2.9779,-2.974,-2.939,-2.9131,-2.9013,-2.8736,-2.8139,-2.7307,-2.6464,-2.5337,-2.3864,-2.3517,-2.3517,-2.3276,-2.3101,-2.3101,-2.3101,-2.3101,-2.3101,-2.3101,-2.3101,-2.3101,-2.3101,-2.3101,-2.3101,-2.3101,-2.3101,-2.3013,-2.2882,-2.2662,-2.2441,-2.2176,-2.1961,-2.1717,-2.1291,-2.0605,-1.9357,-1.823,-1.7333,-1.619,-1.4741,-1.4124,-1.4124,-1.4082,-1.4082,-1.4082,-5.0684,-4.9987,-5.0021,-5.0021,-5.0121,-5.0783,-5.1149,-5.1214,-5.1678,-5.2045,-5.1843,-5.1214,-5.0917,-5.0717,-4.9591,-4.916,-4.9624,-5.0051,-5.0295,-4.9535,-4.8396,-4.7989,-4.8204,-4.7178,-4.6292,-4.6022,-4.5454,-4.4915,-4.4466,-4.4197,-4.3708,-4.3409,-4.329,-4.329,-4.329,-4.329,-4.329,-4.329,-4.325,-4.313,-4.2743,-4.1607,-3.9984,-3.7947,-3.6563,-3.5575,-3.4571,-3.3152,-3.2064,-3.1964,-3.1035,-3.0583,-3.0357,-3.0055,-2.9854,-2.9779,-2.9779,-2.9779,-2.9779,-2.9779,-2.9779,-2.9779,-2.9779,-2.9779,-2.9779,-2.9779,-2.9779,-2.9779,-2.9779,-2.9779,-2.9804,-2.939,-2.9155,-2.9013,-2.8697,-2.8179,-2.747,-2.6958,-2.6299,-2.4787,-2.436,-2.3993,-2.3604,-2.3256,-2.3101,-2.3101,-2.3101,-2.3101,-2.3101,-2.3101,-2.3101,-2.3101,-2.3101,-2.3101,-2.3101,-2.3101,-2.3057,-2.3013,-2.2838,-2.2618,-2.2397,-2.2176,-2.1913,-2.1533,-2.0912,-1.9876,-1.8758,-1.7623,-1.6469,-1.52,-1.4657,-1.4166,-1.4082,-1.4082,-1.4082,-5.085,-5.0219,-5.0618,-5.075,-5.0883,-5.158,-5.1879,-5.1945,-5.2243,-5.2409,-5.2177,-5.168,-5.1547,-5.138,-5.032,-4.969,-4.992,-5.0194,-5.0363,-4.9683,-4.8464,-4.7969,-4.8429,-4.7317,-4.6706,-4.6309,-4.5933,-4.5424,-4.4796,-4.4077,-4.3828,-4.3768,-4.3499,-4.329,-4.329,-4.329,-4.329,-4.329,-4.329,-4.329,-4.317,-4.1733,-3.9973,-3.8524,-3.6788,-3.5709,-3.4954,-3.3162,-3.2256,-3.2064,-3.1436,-3.0959,-3.0633,-3.0357,-3.008,-2.9854,-2.9779,-2.9779,-2.9779,-2.9779,-2.9779,-2.9779,-2.9779,-2.9779,-2.9779,-2.9779,-2.9779,-2.9779,-2.9779,-2.9779,-2.9779,-2.939,-2.9131,-2.9052,-2.8736,-2.8339,-2.8018,-2.7874,-2.6999,-2.5841,-2.4999,-2.4402,-2.3993,-2.3604,-2.3232,-2.3101,-2.3101,-2.3101,-2.3101,-2.3101,-2.3101,-2.3101,-2.3101,-2.3101,-2.3101,-2.3101,-2.3101,-2.3057,-2.2969,-2.2794,-2.2574,-2.2353,-2.215,-2.1924,-2.1101,-2.0219,-1.8994,-1.7711,-1.6705,-1.5809,-1.5228,-1.4699,-1.4292,-1.4082,-1.4082,-5.1148,-5.0684,-5.1247,-5.1547,-5.1647,-5.2144,-5.2376,-5.2409,-5.2409,-5.2409,-5.231,-5.1879,-5.1879,-5.1943,-5.1313,-5.0618,-5.0482,-5.051,-5.0514,-5.0027,-4.8851,-4.8357,-4.8212,-4.7716,-4.686,-4.6022,-4.5963,-4.5753,-4.4915,-4.4137,-4.3858,-4.3708,-4.3439,-4.329,-4.329,-4.329,-4.329,-4.329,-4.329,-4.326,-4.2762,-4.182,-4.0601,-3.9572,-3.7388,-3.6081,-3.5292,-3.3856,-3.276,-3.2349,-3.1763,-3.1185,-3.0834,-3.0583,-3.0256,-2.988,-2.9779,-2.9779,-2.9779,-2.9779,-2.9779,-2.9779,-2.9779,-2.9779,-2.9779,-2.9779,-2.9779,-2.9779,-2.9779,-2.9779,-2.974,-2.9429,-2.917,-2.9013,-2.8816,-2.8538,-2.8419,-2.8299,-2.8099,-2.694,-2.5673,-2.4829,-2.436,-2.3604,-2.3144,-2.3101,-2.3101,-2.3101,-2.3101,-2.3101,-2.3101,-2.3101,-2.3101,-2.3101,-2.3101,-2.3101,-2.3101,-2.3101,-2.3013,-2.2882,-2.2662,-2.2441,-2.2246,-2.1994,-2.1323,-2.0359,-1.9118,-1.8025,-1.7164,-1.637,-1.5767,-1.5117,-1.4419,-1.4124,-1.4082,-5.2243,-5.2108,-5.2243,-5.2277,-5.2277,-5.2376,-5.2409,-5.2409,-5.2376,-5.2409,-5.231,-5.2277,-5.2243,-5.2208,-5.2243,-5.1678,-5.1444,-5.146,-5.1284,-5.0548,-4.9623,-4.8839,-4.846,-4.7709,-4.6604,-4.5783,-4.5514,-4.5035,-4.4496,-4.4137,-4.3888,-4.3648,-4.3499,-4.329,-4.329,-4.329,-4.329,-4.329,-4.329,-4.2971,-4.2326,-4.1688,-4.0515,-3.9054,-3.7784,-3.657,-3.5372,-3.423,-3.3672,-3.2877,-3.1938,-3.1411,-3.116,-3.0357,-2.998,-2.9804,-2.9779,-2.9779,-2.9779,-2.9779,-2.9779,-2.9779,-2.9779,-2.9779,-2.9779,-2.9779,-2.9779,-2.9779,-2.9779,-2.9779,-2.974,-2.9521,-2.9326,-2.9091,-2.8895,-2.8657,-2.8538,-2.8522,-2.8299,-2.7609,-2.6213,-2.5316,-2.4659,-2.382,-2.3101,-2.3101,-2.3101,-2.3101,-2.3101,-2.3101,-2.3101,-2.3101,-2.3101,-2.3101,-2.3101,-2.3101,-2.3101,-2.3101,-2.3057,-2.2969,-2.2794,-2.258,-2.2164,-2.1839,-2.1262,-2.0869,-2.0057,-1.9011,-1.7819,-1.6958,-1.6323,-1.5343,-1.4292,-1.4137,-1.4148,-5.2409,-5.2409,-5.2409,-5.2409,-5.2409,-5.2409,-5.2409,-5.231,-5.1978,-5.1779,-5.1812,-5.1779,-5.1812,-5.1912,-5.2177,-5.1978,-5.1475,-5.1579,-5.1177,-5.0384,-4.9559,-4.8708,-4.7934,-4.7435,-4.6591,-4.5633,-4.5155,-4.4676,-4.4097,-4.3868,-4.3808,-4.4287,-4.3648,-4.329,-4.329,-4.329,-4.329,-4.329,-4.326,-4.2921,-4.2414,-4.2004,-4.1186,-3.961,-3.8621,-3.7192,-3.5803,-3.4703,-3.3979,-3.3156,-3.224,-3.1687,-3.1336,-3.0683,-3.0156,-2.9779,-2.9779,-2.9779,-2.9779,-2.9779,-2.9779,-2.9779,-2.9779,-2.9779,-2.9779,-2.9779,-2.9779,-2.9779,-2.9779,-2.9779,-2.974,-2.956,-2.9404,-2.9223,-2.8988,-2.8831,-2.8657,-2.8538,-2.8299,-2.7585,-2.6808,-2.5817,-2.4808,-2.3864,-2.3188,-2.3101,-2.3101,-2.3101,-2.3101,-2.3101,-2.3101,-2.3101,-2.3101,-2.3101,-2.3101,-2.3101,-2.3101,-2.3101,-2.3101,-2.3013,-2.2969,-2.2717,-2.2339,-2.2008,-2.1646,-2.125,-2.0814,-2.0009,-1.8904,-1.7904,-1.6864,-1.59,-1.4979,-1.4365,-1.4362,-5.2009,-5.1877,-5.2241,-5.2409,-5.2409,-5.2409,-5.231,-5.2078,-5.1812,-5.1514,-5.1382,-5.1547,-5.1647,-5.168,-5.2144,-5.2144,-5.1609,-5.121,-5.0583,-4.9797,-4.8953,-4.8187,-4.7624,-4.7219,-4.6711,-4.5544,-4.5364,-4.4855,-4.4227,-4.3768,-4.4107,-4.4796,-4.3947,-4.3499,-4.3319,-4.329,-4.329,-4.329,-4.329,-4.305,-4.2701,-4.247,-4.1722,-4.0596,-3.9284,-3.7866,-3.6322,-3.5102,-3.4063,-3.3156,-3.229,-3.1687,-3.1336,-3.0683,-3.0156,-2.9854,-2.9779,-2.9779,-2.9779,-2.9779,-2.9779,-2.9779,-2.9779,-2.9779,-2.9779,-2.9779,-2.9779,-2.9779,-2.9779,-2.9779,-2.974,-2.9599,-2.9521,-2.9341,-2.9145,-2.8988,-2.8831,-2.8697,-2.8459,-2.7914,-2.7075,-2.5961,-2.4957,-2.3887,-2.3299,-2.3144,-2.3101,-2.3101,-2.3101,-2.3101,-2.3101,-2.3101,-2.3101,-2.3101,-2.3101,-2.3101,-2.3101,-2.3101,-2.3101,-2.3101,-2.3013,-2.2925,-2.2648,-2.2296,-2.197,-2.1714,-2.1429,-2.0747,-2.0009,-1.8862,-1.777,-1.6753,-1.5864,-1.5142,-1.466,-5.0949,-5.0485,-5.1846,-5.2376,-5.231,-5.2409,-5.1943,-5.1448,-5.1945,-5.1713,-5.1216,-5.1812,-5.191,-5.2175,-5.2144,-5.2243,-5.2208,-5.1475,-5.0615,-4.9797,-4.8953,-4.8145,-4.7538,-4.7189,-4.692,-4.6172,-4.5603,-4.5214,-4.4945,-4.4257,-4.3917,-4.3529,-4.4167,-4.3828,-4.3469,-4.329,-4.329,-4.329,-4.329,-4.329,-4.303,-4.2701,-4.2051,-4.1135,-3.9691,-3.8051,-3.6279,-3.5183,-3.4043,-3.3028,-3.2089,-3.1461,-3.116,-3.0432,-2.993,-2.9829,-2.9779,-2.9779,-2.9779,-2.9779,-2.9779,-2.9779,-2.9779,-2.9779,-2.9779,-2.9779,-2.9779,-2.9779,-2.9779,-2.9779,-2.9779,-2.974,-2.9599,-2.9482,-2.9302,-2.9106,-2.8949,-2.8791,-2.8578,-2.8179,-2.7244,-2.6005,-2.4999,-2.3887,-2.3299,-2.3144,-2.3101,-2.3101,-2.3101,-2.3101,-2.3101,-2.3101,-2.3101,-2.3101,-2.3101,-2.3101,-2.3101,-2.3101,-2.3101,-2.3101,-2.3101,-2.2969,-2.2838,-2.2624,-2.2334,-2.2171,-2.1913,-2.1268,-2.0558,-1.9641,-1.8665,-1.785,-1.6885,-1.6097,-1.5581,-5.085,-5.0353,-5.1777,-5.1877,-5.1048,-5.1048,-5.0883,-5.0618,-5.0452,-5.022,-5.0021,-5.0253,-5.0618,-5.1048,-5.158,-5.1746,-5.1706,-5.1345,-5.0583,-4.9797,-4.8953,-4.8145,-4.7581,-4.7219,-4.695,-4.6322,-4.5663,-4.5274,-4.5185,-4.4736,-4.4646,-4.4586,-4.4796,-4.4137,-4.3678,-4.3379,-4.3319,-4.329,-4.329,-4.329,-4.326,-4.309,-4.2462,-4.1338,-4.0247,-3.8364,-3.6445,-3.5251,-3.3996,-3.2777,-3.1829,-3.1361,-3.0934,-3.0181,-2.9854,-2.9779,-2.9779,-2.9779,-2.9779,-2.9779,-2.9779,-2.9779,-2.9779,-2.9779,-2.9779,-2.9779,-2.9779,-2.9779,-2.9779,-2.9779,-2.9779,-2.9779,-2.974,-2.9599,-2.9482,-2.9263,-2.9067,-2.891,-2.8355,-2.7834,-2.6835,-2.5652,-2.4723,-2.3864,-2.343,-2.3101,-2.3101,-2.3101,-2.3101,-2.3101,-2.3101,-2.3101,-2.3101,-2.3101,-2.3101,-2.3101,-2.3101,-2.3101,-2.3101,-2.3101,-2.3101,-2.3101,-2.2969,-2.2794,-2.2681,-2.2422,-2.2152,-2.1808,-2.1087,-2.014,-1.9633,-1.9196,-1.8189,-1.7143,-1.6654,-5.022,-4.969,-5.0651,-5.075,-5.0253,-5.0452,-5.0286,-4.9856,-4.9657,-4.9425,-4.9425,-4.9458,-4.9723,-5.032,-5.0949,-5.1348,-5.1229,-5.0895,-5.0365,-4.9567,-4.8666,-4.7934,-4.7495,-4.7249,-4.707,-4.6501,-4.5992,-4.5633,-4.5663,-4.5125,-4.5065,-4.5274,-4.5633,-4.5125,-4.4227,-4.3648,-4.3499,-4.3349,-4.329,-4.329,-4.329,-4.323,-4.2851,-4.1581,-4.0255,-3.8604,-3.6643,-3.5194,-3.371,-3.2558,-3.1712,-3.116,-3.0633,-3.0156,-2.9854,-2.9779,-2.9779,-2.9779,-2.9779,-2.9779,-2.9779,-2.9779,-2.9779,-2.9779,-2.9779,-2.9779,-2.9779,-2.9779,-2.9779,-2.9779,-2.9779,-2.9779,-2.9779,-2.9702,-2.9663,-2.9482,-2.917,-2.8934,-2.8195,-2.7447,-2.64,-2.5484,-2.4616,-2.382,-2.3387,-2.3101,-2.3101,-2.3101,-2.3101,-2.3101,-2.3101,-2.3101,-2.3101,-2.3101,-2.3101,-2.3101,-2.3101,-2.3101,-2.3101,-2.3101,-2.3101,-2.3101,-2.3101,-2.2969,-2.2794,-2.2637,-2.2385,-2.2095,-2.1412,-2.0669,-2.0234,-1.9838,-1.9355,-1.8396,-1.793,-4.8796,-4.8067,-4.8233,-4.9061,-5.0088,-5.0916,-5.0353,-4.9293,-4.9657,-4.9889,-4.9823,-4.9889,-4.9988,-5.022,-5.0684,-5.0949,-5.0933,-5.0258,-4.9701,-4.9213,-4.8245,-4.746,-4.7292,-4.7189,-4.7219,-4.713,-4.6561,-4.6142,-4.6292,-4.5843,-4.5693,-4.5843,-4.6262,-4.6202,-4.5244,-4.4586,-4.3988,-4.3409,-4.3319,-4.329,-4.329,-4.329,-4.2841,-4.1715,-4.0083,-3.8355,-3.6702,-3.4861,-3.3402,-3.234,-3.1788,-3.126,-3.0658,-3.0181,-2.9905,-2.9804,-2.9779,-2.9779,-2.9779,-2.9779,-2.9779,-2.9779,-2.9779,-2.9779,-2.9779,-2.9779,-2.9779,-2.9779,-2.9779,-2.9779,-2.9779,-2.9779,-2.9779,-2.9779,-2.974,-2.9585,-2.9248,-2.9052,-2.8315,-2.7366,-2.6423,-2.5442,-2.4573,-2.3777,-2.3343,-2.3101,-2.3101,-2.3101,-2.3101,-2.3101,-2.3101,-2.3101,-2.3101,-2.3101,-2.3101,-2.3101,-2.3101,-2.3101,-2.3101,-2.3101,-2.3101,-2.3101,-2.3101,-2.3057,-2.2969,-2.2794,-2.2618,-2.2378,-2.178,-2.1264,-2.0739,-2.0324,-1.998,-1.9674,-1.9257,-4.8663,-4.81,-4.9061,-4.9193,-4.8829,-4.8995,-4.8796,-4.8465,-4.863,-4.8763,-4.8763,-4.873,-4.9061,-4.9458,-4.979,-5.0187,-5.0375,-4.9668,-4.909,-4.8348,-4.7559,-4.711,-4.6911,-4.707,-4.7279,-4.713,-4.6711,-4.6651,-4.695,-4.6352,-4.6352,-4.6591,-4.6531,-4.6112,-4.5334,-4.4646,-4.3947,-4.3409,-4.329,-4.329,-4.329,-4.322,-4.2753,-4.1626,-3.9877,-3.8239,-3.6605,-3.4779,-3.3326,-3.2357,-3.1888,-3.1512,-3.0859,-3.0357,-3.0181,-2.993,-2.9804,-2.9779,-2.9779,-2.9779,-2.9779,-2.9779,-2.9779,-2.9779,-2.9779,-2.9779,-2.9779,-2.9779,-2.9779,-2.9779,-2.9779,-2.9779,-2.9779,-2.9779,-2.9702,-2.9507,-2.9248,-2.9131,-2.8593,-2.7406,-2.6381,-2.5105,-2.4059,-2.3647,-2.3232,-2.3101,-2.3101,-2.3101,-2.3101,-2.3101,-2.3101,-2.3101,-2.3101,-2.3101,-2.3101,-2.3101,-2.3101,-2.3101,-2.3101,-2.3101,-2.3101,-2.3101,-2.3101,-2.3101,-2.3013,-2.2969,-2.2706,-2.2485,-2.2309,-2.1891,-2.1401,-2.1132,-2.0934,-2.0782,-2.0629,-4.8465,-4.8133,-4.9028,-4.8928,-4.81,-4.8266,-4.8266,-4.8067,-4.8001,-4.8001,-4.8034,-4.8034,-4.8465,-4.8961,-4.916,-4.9221,-4.9674,-4.8893,-4.8084,-4.7355,-4.6852,-4.6584,-4.6526,-4.6741,-4.704,-4.707,-4.698,-4.692,-4.7219,-4.6441,-4.6501,-4.686,-4.6651,-4.6022,-4.5304,-4.4646,-4.3947,-4.3499,-4.329,-4.329,-4.329,-4.319,-4.2842,-4.1701,-4.0192,-3.8435,-3.6751,-3.5047,-3.3462,-3.2617,-3.2089,-3.1746,-3.116,-3.0809,-3.0608,-3.0256,-2.988,-2.9829,-2.9779,-2.9779,-2.9779,-2.9779,-2.9779,-2.9779,-2.9779,-2.9779,-2.9779,-2.9779,-2.9779,-2.9779,-2.9779,-2.9779,-2.9779,-2.9779,-2.9702,-2.9546,-2.9326,-2.9209,-2.8712,-2.7528,-2.6588,-2.5189,-2.38,-2.3474,-2.3144,-2.3101,-2.3101,-2.3101,-2.3101,-2.3101,-2.3101,-2.3101,-2.3101,-2.3101,-2.3101,-2.3101,-2.3101,-2.3101,-2.3101,-2.3101,-2.3101,-2.3101,-2.3101,-2.3101,-2.3057,-2.2969,-2.2794,-2.2618,-2.2441,-2.2309,-2.2024,-2.1909,-2.1865,-2.1642,-2.1419,-4.7934,-4.7968,-4.7968,-4.7934,-4.8067,-4.8531,-4.8498,-4.8001,-4.8001,-4.8001,-4.8001,-4.8001,-4.8332,-4.8928,-4.9028,-4.8887,-4.8757,-4.7992,-4.7208,-4.6523,-4.594,-4.5864,-4.6017,-4.6202,-4.6591,-4.701,-4.713,-4.695,-4.7279,-4.704,-4.71,-4.701,-4.6411,-4.5753,-4.5095,-4.4436,-4.3828,-4.3409,-4.329,-4.329,-4.329,-4.329,-4.2881,-4.1953,-4.0551,-3.895,-3.728,-3.5614,-3.3922,-3.2937,-3.2315,-3.1938,-3.1612,-3.1411,-3.106,-3.0583,-3.0005,-2.9854,-2.9779,-2.9779,-2.9779,-2.9779,-2.9779,-2.9779,-2.9779,-2.9779,-2.9779,-2.9779,-2.9779,-2.9779,-2.9779,-2.9779,-2.9779,-2.9779,-2.9779,-2.9599,-2.938,-2.9106,-2.8633,-2.7851,-2.7162,-2.5924,-2.4231,-2.356,-2.3188,-2.3101,-2.3101,-2.3101,-2.3101,-2.3101,-2.3101,-2.3101,-2.3101,-2.3101,-2.3101,-2.3101,-2.3101,-2.3101,-2.3101,-2.3101,-2.3101,-2.3101,-2.3101,-2.3101,-2.3101,-2.3013,-2.2882,-2.2794,-2.2662,-2.253,-2.2397,-2.222,-2.2087,-2.1865,-2.1642,-4.6742,-4.7139,-4.6643,-4.6709,-4.7206,-4.7438,-4.7669,-4.7968,-4.8001,-4.8001,-4.8001,-4.8001,-4.8199,-4.8332,-4.8332,-4.7964,-4.755,-4.7023,-4.6161,-4.5556,-4.5169,-4.5122,-4.521,-4.5424,-4.5963,-4.6411,-4.6638,-4.692,-4.7249,-4.7309,-4.701,-4.6561,-4.6022,-4.5334,-4.4646,-4.3917,-4.3589,-4.3349,-4.3319,-4.329,-4.329,-4.329,-4.2739,-4.1596,-4.0614,-3.8961,-3.713,-3.5679,-3.4201,-3.3507,-3.3036,-3.2566,-3.2039,-3.1587,-3.1085,-3.0156,-2.9854,-2.9779,-2.9779,-2.9779,-2.9779,-2.9779,-2.9779,-2.9779,-2.9779,-2.9779,-2.9779,-2.9779,-2.9779,-2.9779,-2.9779,-2.9779,-2.9779,-2.9779,-2.9779,-2.9702,-2.9482,-2.9223,-2.8752,-2.8275,-2.7568,-2.6216,-2.4573,-2.3691,-2.3343,-2.3188,-2.3101,-2.3101,-2.3101,-2.3101,-2.3101,-2.3101,-2.3101,-2.3101,-2.3101,-2.3101,-2.3101,-2.3101,-2.3101,-2.3101,-2.3101,-2.3101,-2.3101,-2.3101,-2.3101,-2.3101,-2.3057,-2.2925,-2.2838,-2.2794,-2.2662,-2.2485,-2.2309,-2.2132,-2.1954,-4.6046,-4.6378,-4.598,-4.6046,-4.6444,-4.6775,-4.7173,-4.757,-4.7868,-4.8001,-4.8001,-4.8001,-4.8166,-4.8431,-4.8167,-4.7634,-4.6888,-4.6454,-4.5536,-4.4488,-4.4508,-4.4478,-4.4488,-4.4736,-4.5484,-4.592,-4.6369,-4.6668,-4.71,-4.7219,-4.701,-4.6352,-4.5633,-4.4945,-4.4347,-4.3738,-4.3409,-4.3319,-4.329,-4.329,-4.329,-4.325,-4.2345,-4.1308,-4.0407,-3.8874,-3.7022,-3.5727,-3.4787,-3.3809,-3.3212,-3.2817,-3.224,-3.1662,-3.1311,-3.0482,-2.998,-2.988,-2.9779,-2.9779,-2.9779,-2.9779,-2.9779,-2.9779,-2.9779,-2.9779,-2.9779,-2.9779,-2.9779,-2.9779,-2.9779,-2.9779,-2.9779,-2.9779,-2.974,-2.974,-2.956,-2.9365,-2.8988,-2.8593,-2.7609,-2.6318,-2.5147,-2.4188,-2.3647,-2.3647,-2.343,-2.3101,-2.3101,-2.3101,-2.3101,-2.3101,-2.3101,-2.3101,-2.3101,-2.3101,-2.3101,-2.3101,-2.3101,-2.3101,-2.3101,-2.3101,-2.3101,-2.3101,-2.3101,-2.3101,-2.3101,-2.3057,-2.2969,-2.2925,-2.2925,-2.2794,-2.2618,-2.2397,-2.222,-4.5616,-4.5682,-4.5715,-4.5649,-4.5814,-4.6378,-4.6676,-4.6874,-4.7438,-4.7901,-4.7968,-4.8001,-4.82,-4.81,-4.7836,-4.7056,-4.6239,-4.5614,-4.4856,-4.3369,-4.3578,-4.3728,-4.4028,-4.4287,-4.4814,-4.5651,-4.61,-4.604,-4.683,-4.683,-4.6471,-4.6172,-4.5484,-4.4736,-4.4037,-4.3589,-4.3319,-4.329,-4.329,-4.329,-4.329,-4.321,-4.285,-4.1811,-4.0788,-3.9621,-3.79,-3.6493,-3.5315,-3.3915,-3.3061,-3.2792,-3.224,-3.1712,-3.1386,-3.0934,-3.0206,-2.9905,-2.9779,-2.9779,-2.9779,-2.9779,-2.9779,-2.9779,-2.9779,-2.9779,-2.9779,-2.9779,-2.9779,-2.9779,-2.9779,-2.9779,-2.9779,-2.9779,-2.9779,-2.974,-2.9702,-2.9365,-2.891,-2.8435,-2.7649,-2.64,-2.54,-2.4445,-2.3777,-2.3993,-2.3691,-2.3188,-2.3101,-2.3101,-2.3101,-2.3101,-2.3101,-2.3101,-2.3101,-2.3101,-2.3101,-2.3101,-2.3101,-2.3101,-2.3101,-2.3101,-2.3101,-2.3101,-2.3101,-2.3101,-2.3101,-2.3057,-2.3057,-2.3057,-2.3057,-2.3101,-2.2925,-2.2706,-2.253,-4.4456,-4.4953,-4.4953,-4.4953,-4.4953,-4.5152,-4.5549,-4.6046,-4.6212,-4.6974,-4.7835,-4.7902,-4.7441,-4.6847,-4.7007,-4.6218,-4.4757,-4.4806,-4.4174,-4.3545,-4.326,-4.3379,-4.3529,-4.3678,-4.4127,-4.4485,-4.4844,-4.5334,-4.5843,-4.5843,-4.5514,-4.4915,-4.4616,-4.4317,-4.3678,-4.3319,-4.3319,-4.329,-4.329,-4.329,-4.329,-4.309,-4.2659,-4.1491,-4.0376,-3.9305,-3.7704,-3.6302,-3.5099,-3.3928,-3.3312,-3.2792,-3.224,-3.1687,-3.121,-3.0758,-3.0256,-2.9955,-2.9779,-2.9779,-2.9779,-2.9779,-2.9779,-2.9779,-2.9779,-2.9779,-2.9779,-2.9779,-2.9779,-2.9779,-2.9779,-2.9779,-2.9779,-2.9779,-2.9779,-2.9779,-2.9779,-2.9326,-2.8831,-2.8211,-2.7568,-2.6712,-2.5735,-2.4914,-2.4188,-2.3777,-2.343,-2.3101,-2.3101,-2.3101,-2.3101,-2.3101,-2.3101,-2.3101,-2.3101,-2.3101,-2.3101,-2.3101,-2.3101,-2.3101,-2.3101,-2.3101,-2.3101,-2.3101,-2.3101,-2.3101,-2.3101,-2.3101,-2.3101,-2.3101,-2.3101,-2.3101,-2.3101,-2.2925,-2.2794,-4.383,-4.4191,-4.4224,-4.4224,-4.4257,-4.4556,-4.492,-4.5284,-4.5649,-4.6245,-4.6941,-4.6975,-4.6551,-4.5734,-4.5894,-4.5245,-4.3728,-4.392,-4.3503,-4.3115,-4.314,-4.329,-4.329,-4.3319,-4.3798,-4.4157,-4.4646,-4.5065,-4.5155,-4.5274,-4.5065,-4.4407,-4.4257,-4.3947,-4.3379,-4.329,-4.329,-4.329,-4.329,-4.329,-4.321,-4.286,-4.2099,-4.0944,-3.9956,-3.8899,-3.773,-3.6339,-3.52,-3.3846,-3.2759,-3.2466,-3.2114,-3.1964,-3.1512,-3.1035,-3.0532,-3.0055,-2.988,-2.9779,-2.9779,-2.9779,-2.9779,-2.9779,-2.9779,-2.9779,-2.9779,-2.9779,-2.9779,-2.9779,-2.9779,-2.9779,-2.9779,-2.9779,-2.9779,-2.9779,-2.9702,-2.9443,-2.9067,-2.8712,-2.8155,-2.7609,-2.6607,-2.5673,-2.4914,-2.4079,-2.3647,-2.3144,-2.3144,-2.3101,-2.3101,-2.3101,-2.3101,-2.3101,-2.3101,-2.3101,-2.3101,-2.3101,-2.3101,-2.3101,-2.3101,-2.3101,-2.3101,-2.3101,-2.3101,-2.3101,-2.3101,-2.3101,-2.3101,-2.3101,-2.3101,-2.3101,-2.3101,-2.3101,-2.3013,-4.3598,-4.3598,-4.3631,-4.3631,-4.3698,-4.4257,-4.4556,-4.4655,-4.5218,-4.545,-4.5516,-4.5516,-4.5549,-4.5302,-4.5049,-4.4194,-4.3567,-4.3314,-4.2856,-4.2784,-4.291,-4.311,-4.326,-4.3349,-4.3648,-4.4007,-4.4466,-4.4676,-4.4796,-4.4736,-4.4526,-4.4257,-4.4077,-4.3858,-4.3469,-4.329,-4.329,-4.329,-4.329,-4.329,-4.301,-4.2537,-4.1699,-4.0774,-3.9782,-3.863,-3.7684,-3.6652,-3.55,-3.3857,-3.2307,-3.2164,-3.219,-3.2215,-3.1788,-3.1311,-3.0758,-3.0281,-2.993,-2.9779,-2.9779,-2.9779,-2.9779,-2.9779,-2.9779,-2.9779,-2.9779,-2.9779,-2.9779,-2.9779,-2.9779,-2.9779,-2.9779,-2.9779,-2.9779,-2.9779,-2.9663,-2.956,-2.9326,-2.9052,-2.8673,-2.8235,-2.7325,-2.6359,-2.5526,-2.4701,-2.3993,-2.3474,-2.3144,-2.3144,-2.3101,-2.3101,-2.3101,-2.3101,-2.3101,-2.3101,-2.3101,-2.3101,-2.3101,-2.3101,-2.3101,-2.3101,-2.3101,-2.3101,-2.3101,-2.3101,-2.3101,-2.3101,-2.3101,-2.3101,-2.3101,-2.3101,-2.3101,-2.3101,-2.3101,-4.3598,-4.3598,-4.3598,-4.3598,-4.3631,-4.3764,-4.3797,-4.383,-4.3962,-4.3995,-4.4128,-4.4065,-4.4047,-4.4105,-4.4561,-4.3769,-4.2229,-4.2319,-4.2545,-4.2488,-4.247,-4.2821,-4.312,-4.309,-4.3319,-4.3589,-4.3798,-4.3708,-4.4037,-4.3888,-4.3678,-4.3559,-4.3529,-4.3469,-4.3409,-4.329,-4.326,-4.323,-4.323,-4.319,-4.3091,-4.2651,-4.2029,-4.1197,-4.0432,-3.9104,-3.7899,-3.7013,-3.5461,-3.3751,-3.2264,-3.2181,-3.2365,-3.2466,-3.2014,-3.1461,-3.0934,-3.0407,-3.003,-2.9829,-2.9779,-2.9779,-2.9779,-2.9779,-2.9779,-2.9779,-2.9779,-2.9779,-2.9779,-2.9779,-2.9779,-2.9779,-2.9779,-2.9779,-2.9779,-2.9779,-2.974,-2.956,-2.938,-2.9223,-2.9067,-2.8395,-2.7568,-2.673,-2.6069,-2.5189,-2.4317,-2.3777,-2.3144,-2.3101,-2.3101,-2.3101,-2.3101,-2.3101,-2.3101,-2.3101,-2.3101,-2.3101,-2.3101,-2.3101,-2.3101,-2.3101,-2.3101,-2.3101,-2.3101,-2.3101,-2.3101,-2.3101,-2.3101,-2.3101,-2.3101,-2.3101,-2.3101,-2.3101,-2.3101]},{"header":{"parameterUnit":"m.s-1","parameterCategory":1,"la1":31.0,"la2":29.5877,"lo1":-88.7671,"lo2":-86.6584,"dy":0.0162,"dx":0.0185,"nx":115,"ny":88,"refTime":"2023-08-03T00:00:00:Z","depth":0,"parameterNumber":3,"parameterNumberName":"V-component_of_WINDS"},"data":[0.0,0.0,0.0,0.0,0.0,0.0,0.0,0.0,0.0,0.0,0.0,0.0,0.0,0.0,0.0,0.0,0.0,0.0,0.0,0.0,0.0,0.0,0.0,0.0,0.0,0.0,0.0,0.0,0.0,0.0,0.0,0.0,0.0,0.0,0.0,0.0,0.0,0.0,0.0,0.0,0.0,0.0,0.0,0.0,0.0,0.0,0.0,0.0,0.0,0.0,0.0,0.0,0.0,0.0,0.0,0.0,0.0,0.0,0.0,0.0,0.0,0.0,0.0,0.0,0.0,0.0,0.0,0.0,0.0,0.0,0.0,0.0,0.0,0.0,0.0,0.0,0.0,0.0,0.0,0.0,0.0,0.0,0.0,0.0,0.0,0.0,0.0,0.0,0.0,0.0,0.0,0.0,0.0,0.0,0.0,0.0,0.0,0.0,0.0,0.0,0.0,0.0,0.0,0.0,0.0,0.0,0.0,0.0,0.0,0.0,0.0,0.0,0.0,0.0,0.0,0.0,0.0,0.0,0.0,0.0,0.0,0.0,0.0,0.0,0.0,0.0,0.0,0.0,0.0,0.0,0.0,0.0,0.0,0.0,0.0,0.0,0.0,0.0,0.0,0.0,0.0,0.0,0.0,0.0,0.0,0.0,0.0,0.0,0.0,0.0,0.0,0.0,0.0,0.0,0.0,0.0,0.0,0.0,0.0,0.0,0.0,0.0,0.0,0.0,0.0,0.0,0.0,0.0,0.0,0.0,0.0,0.0,0.0,0.0,0.0,0.0,0.0,0.0,0.0,0.0,0.0,0.0,0.0,0.0,0.0,0.0,0.0,0.0,0.0,0.0,0.0,0.0,0.0,0.0,0.0,0.0,0.0,0.0,0.0,0.0,0.0,0.0,0.0,0.0,0.0,0.0,0.0,0.0,0.0,0.0,0.0,0.0,0.0,0.0,0.0,0.0,0.0,0.0,0.0,0.0,0.0,0.0,0.0,0.0,0.0,0.0,0.0,0.0,0.0,0.0,0.0,0.0,0.0,0.0,0.0,0.0,0.0,0.0,0.0,0.0,0.0,0.0,0.0,0.0,0.0,0.0,0.0,0.0,0.0,0.0,0.0,0.0,0.0,0.0,0.0,0.0,0.0,0.0,0.0,0.0,0.0,0.0,0.0,0.0,0.0,0.0,0.0,0.0,0.0,0.0,0.0,0.0,0.0,0.0,0.0,0.0,0.0,0.0,0.0,0.0,0.0,0.0,0.0,0.0,0.0,0.0,0.0,0.0,0.0,0.0,0.0,0.0,0.0,0.0,0.0,0.0,0.0,0.0,0.0,0.0,0.0,0.0,0.0,0.0,0.0,0.0,0.0,0.0,0.0,0.0,0.0,0.0,0.0,0.0,0.0,0.0,0.0,0.0,0.0,0.0,0.0,0.0,0.0,0.0,0.0,0.0,0.0,0.0,0.0,0.0,0.0,0.0,0.0,0.0,0.0,0.0,0.0,0.0,0.0,0.0,0.0,0.0,0.0,0.0,0.0,0.0,0.0,0.0,0.0,0.0,0.0,0.0,0.0,0.0,0.0,0.0,0.0,0.0,0.0,0.0,0.0,0.0,0.0,0.0,0.0,0.0,0.0,0.0,0.0,0.0,0.0,0.0,0.0,0.0,0.0,0.0,0.0,0.0,0.0,0.0,0.0,0.0,0.0,0.0,0.0,0.0,0.0,0.0,0.0,0.0,0.0,0.0,0.0,0.0,0.0,0.0,0.0,0.0,0.0,0.0,0.0,0.0,0.0,0.0,0.0,0.0,0.0,0.0,0.0,0.0,0.0,0.0,0.0,0.0,0.0,0.0,0.0,0.0,0.0,0.0,0.0,0.0,0.0,0.0,0.0,0.0,0.0,0.0,0.0,0.0,0.0,0.0,0.0,0.0,0.0,0.0,0.0,0.0,0.0,0.0,0.0,0.0,0.0,0.0,0.0,0.0,0.0,0.0,0.0,0.0,0.0,0.0,0.0,0.0,0.0,0.0,0.0,0.0,0.0,0.0,0.0,0.0,0.0,0.0,0.0,0.0,0.0,0.0,0.0,0.0,0.0,0.0,0.0,0.0,0.0,0.0,0.0,0.0,0.0,0.0,0.0,0.0,0.0,0.0,0.0,0.0,0.0,0.0,0.0,0.0,0.0,0.0,0.0,0.0,0.0,0.0,0.0,0.0,0.0,0.0,0.0,0.0,0.0,0.0,0.0,0.0,0.0,0.0,0.0,0.0,0.0,0.0,0.0,0.0,0.0,0.0,0.0,0.0,0.0,0.0,0.0,0.0,0.0,0.0,0.0,0.0,0.0,0.0,0.0,0.0,0.0,0.0,0.0,0.0,0.0,0.0,0.0,0.0,0.0,0.0,0.0,0.0,0.0,0.0,0.0,0.0,0.0,0.0,0.0,0.0,0.0,0.0,0.0,0.0,0.0,0.0,0.0,0.0,0.0,0.0,0.0,0.0,0.0,0.0,0.0,0.0,0.0,0.0,0.0,0.0,0.0,0.0,0.0,0.0,0.0,0.0,0.0,0.0,0.0,0.0,0.0,0.0,0.0,0.0,0.0,0.0,0.0,0.0,0.0,0.0,0.0,0.0,0.0,0.0,0.0,0.0,0.0,0.0,0.0,0.0,0.0,0.0,0.0,0.0,0.0,0.0,0.0,0.0,0.0,0.0,0.0,0.0,0.0,0.0,0.0,0.0,0.0,0.0,0.0,0.0,0.0,0.0,0.0,0.0,0.0,0.0,0.0,0.0,0.0,0.0,0.0,0.0,0.0,0.0,0.0,0.0,0.0,0.0,0.0,0.0,0.0,0.0,0.0,0.0,0.0,0.0,0.0,0.0,0.0,0.0,0.0,0.0,0.0,0.0,0.0,0.0,0.0,0.0,0.0,0.0,0.0,0.0,0.0,0.0,0.0,0.0,0.0,0.0,0.0,0.0,0.0,0.0,0.0,0.0,0.0,0.0,0.0,0.0,0.0,0.0,0.0,0.0,0.0,0.0,0.0,0.0,0.0,0.0,0.0,0.0,0.0,0.0,0.0,0.0,0.0,0.0,0.0,0.0,0.0,0.0,0.0,0.0,0.0,0.0,0.0,0.0,0.0,0.0,0.0,0.0,0.0,0.0,0.0,0.0,0.0,0.0,0.0,0.0,0.0,0.0,0.0,0.0,0.0,0.0,0.0,0.0,0.0,0.0,0.0,0.0,0.0,0.0,0.0,0.0,0.0,0.0,0.0,0.0,0.0,0.0,0.0,0.0,0.0,0.0,0.0,0.0,0.0,0.0,0.0,0.0,0.0,0.0,0.0,0.0,0.0,0.0,0.0,0.0,0.0,0.0,0.0,0.0,0.0,0.0,0.0,0.0,0.0,0.0,0.0,0.0,0.0,0.0,0.0,0.0,0.0,0.0,0.0,0.0,0.0,0.0,0.0,0.0,0.0,0.0,0.0,0.0,0.0,0.0,0.0,0.0,0.0,0.0,0.0,0.0,0.0,0.0,0.0,0.0,0.0,0.0,0.0,0.0,0.0,0.0,0.0,0.0,0.0,0.0,0.0,0.0,0.0,0.0,0.0,0.0,0.0,0.0,0.0,0.0,0.0,0.0,0.0,0.0,0.0,0.0,0.0,0.0,0.0,0.0,0.0,0.0,0.0,0.0,0.0,0.0,0.0,0.0,0.0,0.0,0.0,0.0,0.0,0.0,0.0,0.0,0.0,0.0,0.0,0.0,0.0,0.0,0.0,0.0,0.0,0.0,0.0,0.0,0.0,0.0,0.0,0.0,0.0,0.0,0.0,0.0,0.0,0.0,0.0,0.0,0.0,0.0,0.0,0.0,0.0,0.0,0.0,0.0,0.0,0.0,0.0,0.0,0.0,0.0,0.0,0.0,0.0,0.0,0.0,0.0,0.0,0.0,0.0,0.0,0.0,0.0,0.0,0.0,0.0,0.0,0.0,0.0,0.0,0.0,0.0,0.0,0.0,0.0,0.0,0.0,0.0,0.0,0.0,0.0,0.0,0.0,0.0,0.0,0.0,0.0,0.0,0.0,0.0,0.0,0.0,0.0,0.0,0.0,0.0,0.0,0.0,0.0,0.0,0.0,0.0,0.0,0.0,0.0,0.0,0.0,0.0,0.0,0.0,0.0,0.0,0.0,0.0,0.0,0.0,0.0,0.0,0.0,0.0,0.0,0.0,0.0,0.0,0.0,0.0,0.0,0.0,0.0,0.0,0.0,0.0,0.0,0.0,0.0,-0.7284,0.0,0.0,0.0,0.0,0.0,0.0,0.0,0.0,0.0,0.0,0.0,0.0,0.0,0.0,0.0,0.0,0.0,0.0,0.0,0.0,0.0,0.0,0.0,0.0,0.0,0.0,0.0,0.0,0.0,0.0,0.0,0.0,0.0,0.0,0.0,0.0,0.0,0.0,0.0,0.0,0.0,0.0,0.0,0.0,0.0,0.0,0.0,0.0,0.0,0.0,0.0,0.0,0.0,0.0,0.0,0.0,0.0,0.0,0.0,0.0,0.0,0.0,0.0,0.0,0.0,0.0,0.0,0.0,0.0,0.0,0.0,0.0,0.0,0.0,0.0,0.0,0.0,0.0,0.0,0.0,0.0,0.0,0.0,0.0,0.0,0.0,0.0,0.0,0.0,0.0,0.0,0.0,0.0,0.0,0.0,0.0,0.0,0.0,0.0,0.0,0.0,0.0,0.0,0.0,0.0,0.0,0.0,0.0,0.0,0.0,-0.4289,-0.5113,-0.6096,-0.7209,-0.8538,0.0,0.0,0.0,0.0,0.0,0.0,0.0,0.0,0.0,0.0,0.0,0.0,0.0,0.0,0.0,0.0,0.0,0.0,0.0,0.0,0.0,0.0,0.0,0.0,0.0,0.0,0.0,0.0,0.0,0.0,0.0,0.0,0.0,0.0,0.0,0.0,0.0,0.0,0.0,0.0,0.0,0.0,0.0,0.0,0.0,0.0,0.0,0.0,0.0,0.0,0.0,0.0,0.0,0.0,0.0,0.0,0.0,0.0,0.0,0.0,0.0,0.0,0.0,0.0,0.0,0.0,0.0,0.0,0.0,0.0,0.0,0.0,0.0,0.0,0.0,0.0,0.0,0.0,0.0,0.0,0.0,0.0,0.0,0.0,0.0,0.0,0.0,0.0,0.0,0.0,0.0,0.0,0.0,0.0,0.0,0.0,0.0,0.0,0.0,0.0,0.0,0.0,0.0,0.0,0.0,0.0,0.0,0.0,0.0,0.0,0.0,0.0,-0.738,-0.881,-1.056,0.0,0.0,0.0,0.0,0.0,0.0,0.0,0.0,0.0,0.0,0.0,0.0,0.0,0.0,0.0,0.0,0.0,0.0,0.0,0.0,0.0,0.0,0.0,0.0,0.0,0.0,0.0,0.0,0.0,0.0,0.0,0.0,0.0,0.0,0.0,0.0,0.0,0.0,0.0,0.0,0.0,0.0,0.0,0.0,0.0,0.0,0.0,0.0,0.0,0.0,0.0,0.0,0.0,0.0,0.0,0.0,0.0,0.0,0.0,0.0,0.0,0.0,0.0,0.0,0.0,0.0,0.0,0.0,0.0,0.0,0.0,0.0,0.0,0.0,0.0,0.0,0.0,0.0,0.0,0.0,0.0,0.0,0.0,0.0,0.0,0.0,0.0,0.0,0.0,0.0,0.0,0.0,0.0,0.0,0.0,0.0,0.0,0.0,0.0,0.0,0.0,0.0,0.0,0.0,0.0,0.0,0.0,0.0,0.0,0.0,-0.6386,-0.6852,-0.9064,0.0,-1.3754,0.0,0.0,0.0,0.0,0.0,0.0,0.0,0.0,0.0,0.0,0.0,0.0,0.0,0.0,0.0,0.0,0.0,0.0,0.0,0.0,0.0,0.0,0.0,0.0,0.0,0.0,0.0,0.0,0.0,0.0,0.0,0.0,0.0,0.0,0.0,0.0,0.0,0.0,0.0,0.0,0.0,0.0,0.0,0.0,0.0,0.0,0.0,0.0,0.0,0.0,0.0,0.0,0.0,0.0,0.0,0.0,0.0,0.0,0.0,0.0,0.0,0.0,0.0,0.0,0.0,0.0,0.0,0.0,0.0,0.0,0.0,0.0,0.0,0.0,0.0,0.0,0.0,0.0,0.0,0.0,0.0,0.0,0.0,0.0,0.0,0.0,0.0,0.0,0.0,0.0,0.0,0.0,0.0,0.0,0.0,0.0,0.0,0.0,0.0,0.0,0.0,0.0,0.0,0.0,0.0,0.0,0.0,0.0,0.0,0.0,-0.7008,-0.8282,-1.056,-1.2491,0.0,0.0,0.0,0.0,0.0,0.0,0.0,0.0,0.0,0.0,0.0,0.0,0.0,0.0,0.0,0.0,0.0,0.0,0.0,0.0,0.0,0.0,0.0,0.0,0.0,0.0,0.0,0.0,0.0,0.0,0.0,0.0,0.0,0.0,0.0,0.0,0.0,0.0,0.0,0.0,0.0,0.0,0.0,0.0,0.0,0.0,0.0,0.0,0.0,0.0,0.0,0.0,0.0,0.0,0.0,0.0,0.0,0.0,0.0,0.0,0.0,0.0,0.0,0.0,0.0,0.0,0.0,0.0,0.0,0.0,0.0,0.0,0.0,0.0,0.0,0.0,0.0,0.0,0.0,0.0,0.0,0.0,0.0,0.0,0.0,0.0,0.0,0.0,0.0,0.0,0.0,0.0,0.0,0.0,0.0,0.0,0.0,0.0,0.0,0.0,0.0,0.0,0.0,0.0,0.0,0.0,0.0,0.0,0.0,0.0,-0.6595,-0.8045,-1.0407,-1.1958,-1.3332,-1.452,0.0,0.0,0.0,0.0,0.0,0.0,0.0,0.0,0.0,0.0,0.0,0.0,0.0,0.0,0.0,0.0,0.0,0.0,0.0,0.0,0.0,0.0,0.0,0.0,0.0,0.0,0.0,0.0,0.0,0.0,0.0,0.0,0.0,0.0,0.0,0.0,0.0,0.0,0.0,0.0,0.0,0.0,0.0,0.0,0.0,0.0,0.0,0.0,0.0,0.0,0.0,0.0,0.0,0.0,0.0,0.0,0.0,0.0,0.0,0.0,0.0,0.0,0.0,0.0,0.0,0.0,0.0,0.0,0.0,0.0,0.0,0.0,0.0,0.0,0.0,0.0,0.0,0.0,0.0,0.0,0.0,0.0,0.0,0.0,0.0,0.0,0.0,0.0,0.0,0.0,0.0,0.0,0.0,0.0,0.0,0.0,0.0,0.0,0.0,0.0,0.0,0.0,0.0,0.0,0.0,0.0,0.0,0.0,-0.7685,-0.8015,-0.9854,-1.3316,-1.3299,-1.4285,0.0,0.0,0.0,0.0,0.0,0.0,0.0,0.0,0.0,0.0,0.0,0.0,0.0,0.0,0.0,0.0,0.0,0.0,0.0,0.0,0.0,0.0,0.0,0.0,0.0,0.0,0.0,0.0,0.0,0.0,0.0,0.0,0.0,0.0,0.0,0.0,0.0,0.0,0.0,0.0,0.0,0.0,0.0,0.0,0.0,0.0,0.0,0.0,0.0,0.0,0.0,0.0,0.0,0.0,0.0,0.0,0.0,0.0,0.0,0.0,0.0,0.0,0.0,0.0,0.0,0.0,0.0,0.0,0.0,0.0,0.0,0.0,0.0,0.0,0.0,0.0,0.0,0.0,0.0,0.0,0.0,0.0,0.0,0.0,0.0,0.0,0.0,0.0,0.0,0.0,0.0,0.0,0.0,0.0,0.0,0.0,0.0,0.0,0.0,0.0,0.0,0.0,0.0,0.0,0.0,0.0,0.0,0.0,0.0,-0.7771,-0.9558,-1.1621,-1.39,-1.4236,-1.534,0.0,0.0,0.0,0.0,0.0,0.0,0.0,0.0,0.0,0.0,0.0,0.0,0.0,0.0,0.0,0.0,0.0,0.0,0.0,0.0,0.0,0.0,0.0,0.0,0.0,0.0,0.0,0.0,0.0,0.0,0.0,0.0,0.0,0.0,0.0,0.0,0.0,0.0,0.0,0.0,0.0,0.0,0.0,0.0,0.0,0.0,0.0,0.0,0.0,0.0,0.0,0.0,0.0,0.0,0.0,0.0,0.0,0.0,0.0,0.0,0.0,0.0,0.0,0.0,0.0,0.0,0.0,0.0,0.0,0.0,0.0,0.0,0.0,0.0,0.0,0.0,0.0,0.0,0.0,0.0,0.0,0.0,0.0,0.0,0.0,0.0,0.0,0.0,0.0,0.0,0.0,0.0,0.0,0.0,0.0,0.0,0.0,0.0,0.0,0.0,0.0,0.0,0.0,0.0,0.0,0.0,0.0,0.0,0.0,-0.893,0.0,-1.3341,-1.4611,-1.5278,-1.6405,0.0,0.0,0.0,0.0,0.0,0.0,0.0,0.0,0.0,0.0,0.0,0.0,0.0,0.0,0.0,0.0,0.0,0.0,0.0,0.0,0.0,0.0,0.0,0.0,0.0,0.0,0.0,0.0,0.0,0.0,0.0,0.0,0.0,0.0,0.0,0.0,0.0,0.0,0.0,0.0,0.0,0.0,0.0,0.0,0.0,0.0,0.0,0.0,0.0,0.0,0.0,0.0,0.0,0.0,0.0,0.0,0.0,0.0,0.0,0.0,0.0,0.0,0.0,0.0,0.0,0.0,0.0,0.0,0.0,0.0,0.0,0.0,0.0,0.0,0.0,0.0,0.0,0.0,0.0,0.0,0.0,0.0,0.0,0.0,0.0,0.0,0.0,0.0,0.0,0.0,0.0,0.0,0.0,0.0,0.0,0.0,0.0,0.0,0.0,0.0,0.0,0.0,0.0,0.0,0.0,0.0,0.0,0.0,-0.8801,-1.1333,-1.3549,-1.501,-1.5643,-1.6476,-1.7471,0.0,0.0,0.0,0.0,0.0,0.0,0.0,0.0,0.0,0.0,0.0,0.0,0.0,0.0,0.0,0.0,0.0,0.0,0.0,0.0,0.0,0.0,0.0,0.0,0.0,0.0,0.0,0.0,0.0,0.0,0.0,0.0,0.0,0.0,0.0,0.0,0.0,0.0,0.0,0.0,0.0,0.0,0.0,0.0,0.0,0.0,0.0,0.0,0.0,0.0,0.0,0.0,0.0,0.0,0.0,0.0,0.0,0.0,0.0,0.0,0.0,0.0,0.0,0.0,0.0,0.0,0.0,0.0,0.0,0.0,0.0,0.0,0.0,0.0,0.0,0.0,0.0,0.0,0.0,0.0,0.0,0.0,0.0,0.0,0.0,0.0,0.0,0.0,0.0,0.0,0.0,0.0,0.0,0.0,0.0,0.0,0.0,0.0,0.0,0.0,0.0,0.0,0.0,0.0,0.0,0.0,0.0,0.0,0.0,-1.2885,-1.483,-1.6486,-1.7742,-1.7992,-1.9102,0.0,0.0,0.0,0.0,0.0,0.0,0.0,0.0,0.0,0.0,0.0,0.0,0.0,0.0,0.0,0.0,0.0,0.0,0.0,0.0,0.0,0.0,0.0,0.0,0.0,0.0,0.0,0.0,0.0,0.0,0.0,0.0,0.0,0.0,0.0,0.0,0.0,0.0,0.0,0.0,0.0,0.0,0.0,0.0,0.0,0.0,0.0,0.0,0.0,0.0,0.0,0.0,0.0,0.0,0.0,0.0,0.0,0.0,0.0,0.0,0.0,0.0,0.0,0.0,0.0,0.0,0.0,0.0,0.0,0.0,0.0,0.0,0.0,0.0,0.0,0.0,0.0,0.0,0.0,0.0,0.0,0.0,0.0,0.0,0.0,0.0,0.0,0.0,0.0,0.0,0.0,0.0,0.0,0.0,0.0,0.0,0.0,0.0,0.0,0.0,0.0,0.0,0.0,0.0,0.0,0.0,0.0,0.0,0.0,-1.604,-1.7015,-1.8161,-1.9465,-1.9561,-2.0418,-2.2114,0.0,0.0,0.0,0.0,0.0,0.0,0.0,0.0,0.0,0.0,0.0,0.0,0.0,0.0,0.0,0.0,0.0,0.0,0.0,0.0,0.0,0.0,0.0,0.0,0.0,0.0,0.0,0.0,0.0,0.0,0.0,0.0,0.0,0.0,0.0,0.0,0.0,0.0,0.0,0.0,0.0,0.0,0.0,0.0,0.0,0.0,0.0,0.0,0.0,0.0,0.0,0.0,0.0,0.0,0.0,0.0,0.0,0.0,0.0,0.0,0.0,0.0,0.0,0.0,0.0,0.0,0.0,0.0,0.0,0.0,0.0,0.0,0.0,0.0,0.0,0.0,0.0,0.0,0.0,0.0,0.0,0.0,0.0,0.0,0.0,0.0,0.0,0.0,0.0,0.0,0.0,0.0,0.0,0.0,0.0,0.0,0.0,0.0,0.0,0.0,0.0,0.0,0.0,0.0,0.0,0.0,0.0,0.0,-2.0411,-2.0156,-2.0398,-2.0979,-2.1334,-2.1552,0.0,0.0,0.0,0.0,0.0,0.0,0.0,0.0,0.0,0.0,0.0,0.0,0.0,0.0,0.0,0.0,0.0,0.0,0.0,0.0,0.0,0.0,0.0,0.0,0.0,0.0,0.0,0.0,0.0,0.0,0.0,0.0,0.0,0.0,0.0,0.0,0.0,0.0,0.0,0.0,0.0,0.0,0.0,0.0,0.0,0.0,0.0,0.0,0.0,0.0,0.0,0.0,0.0,0.0,0.0,0.0,0.0,0.0,0.0,0.0,0.0,0.0,0.0,0.0,0.0,0.0,0.0,0.0,0.0,0.0,0.0,0.0,0.0,0.0,0.0,0.0,0.0,0.0,0.0,0.0,0.0,0.0,0.0,0.0,0.0,0.0,0.0,0.0,0.0,0.0,0.0,0.0,0.0,0.0,0.0,0.0,0.0,0.0,0.0,0.0,0.0,0.0,0.0,0.0,0.0,0.0,0.0,0.0,0.0,-2.3845,-2.5802,-2.6005,-2.4393,-2.4139,-2.4151,0.0,0.0,0.0,0.0,0.0,0.0,0.0,0.0,0.0,0.0,0.0,0.0,0.0,0.0,0.0,0.0,0.0,0.0,0.0,0.0,0.0,0.0,0.0,0.0,0.0,0.0,0.0,0.0,0.0,0.0,0.0,0.0,0.0,0.0,0.0,0.0,0.0,0.0,0.0,0.0,0.0,0.0,0.0,0.0,0.0,0.0,0.0,0.0,0.0,0.0,0.0,0.0,0.0,0.0,0.0,0.0,0.0,0.0,0.0,0.0,0.0,0.0,0.0,0.0,0.0,0.0,0.0,0.0,0.0,0.0,0.0,0.0,0.0,0.0,0.0,0.0,0.0,0.0,0.0,0.0,0.0,0.0,0.0,0.0,0.0,0.0,0.0,0.0,0.0,0.0,0.0,0.0,0.0,0.0,0.0,0.0,0.0,0.0,0.0,0.0,0.0,0.0,0.0,0.0,0.0,0.0,0.0,0.0,-2.4477,-2.6523,-2.9318,-3.0294,-2.9346,-2.8516,-2.7666,0.0,0.0,0.0,0.0,0.0,0.0,0.0,0.0,0.0,0.0,0.0,0.0,0.0,0.0,0.0,0.0,0.0,0.0,0.0,0.0,0.0,0.0,0.0,0.0,0.0,0.0,0.0,0.0,0.0,0.0,0.0,0.0,0.0,0.0,0.0,0.0,0.0,0.0,0.0,0.0,0.0,0.0,0.0,0.0,0.0,0.0,0.0,0.0,0.0,0.0,0.0,0.0,0.0,0.0,0.0,0.0,0.0,0.0,0.0,0.0,0.0,0.0,0.0,0.0,0.0,0.0,0.0,0.0,0.0,0.0,0.0,0.0,0.0,0.0,0.0,0.0,0.0,0.0,0.0,0.0,0.0,0.0,0.0,0.0,0.0,0.0,0.0,0.0,0.0,0.0,0.0,0.0,0.0,0.0,0.0,0.0,0.0,0.0,0.0,0.0,0.0,0.0,0.0,0.0,0.0,0.0,0.0,0.0,-2.6683,-2.8738,-3.1653,-3.3768,-3.4827,-3.3165,-3.1082,0.0,0.0,0.0,0.0,0.0,0.0,0.0,0.0,0.0,0.0,0.0,0.0,0.0,0.0,0.0,0.0,0.0,0.0,0.0,0.0,0.0,0.0,0.0,0.0,0.0,0.0,0.0,0.0,0.0,0.0,0.0,0.0,0.0,0.0,0.0,0.0,0.0,0.0,0.0,0.0,0.0,0.0,0.0,0.0,0.0,0.0,0.0,0.0,0.0,0.0,0.0,0.0,0.0,0.0,0.0,0.0,0.0,0.0,0.0,0.0,0.0,0.0,0.0,0.0,0.0,0.0,0.0,0.0,0.0,0.0,0.0,0.0,0.0,0.0,0.0,0.0,0.0,0.0,0.0,0.0,0.0,0.0,0.0,0.0,0.0,0.0,0.0,0.0,0.0,0.0,0.0,0.0,0.0,0.0,0.0,0.0,0.0,0.0,0.0,0.0,0.0,0.0,0.0,0.0,0.0,0.0,0.0,0.0,-2.8647,-3.1211,-3.5121,-3.7377,-3.7703,-3.3541,-3.066,0.0,0.0,0.0,0.0,0.0,0.0,0.0,0.0,0.0,0.0,0.0,0.0,0.0,0.0,0.0,0.0,0.0,0.0,0.0,0.0,0.0,0.0,0.0,0.0,0.0,0.0,0.0,0.0,0.0,0.0,0.0,0.0,0.0,0.0,0.0,0.0,0.0,0.0,0.0,0.0,0.0,0.0,0.0,0.0,0.0,0.0,0.0,0.0,-2.3782,0.0,0.0,0.0,0.0,0.0,0.0,0.0,0.0,0.0,0.0,0.0,0.0,0.0,0.0,0.0,0.0,0.0,0.0,0.0,0.0,0.0,0.0,0.0,0.0,0.0,0.0,0.0,0.0,0.0,0.0,0.0,0.0,0.0,0.0,0.0,0.0,0.0,0.0,0.0,0.0,0.0,0.0,0.0,0.0,0.0,0.0,0.0,0.0,0.0,0.0,0.0,0.0,0.0,0.0,0.0,0.0,0.0,0.0,0.0,-2.9986,-3.2736,-3.6151,-3.8196,-3.8432,-3.4925,-3.2569,0.0,0.0,0.0,0.0,0.0,0.0,0.0,0.0,0.0,0.0,0.0,0.0,0.0,0.0,0.0,0.0,0.0,0.0,0.0,0.0,0.0,0.0,0.0,0.0,0.0,0.0,0.0,0.0,0.0,0.0,0.0,0.0,0.0,0.0,0.0,0.0,0.0,0.0,0.0,0.0,0.0,0.0,0.0,0.0,0.0,0.0,0.0,0.0,0.0,0.0,0.0,0.0,0.0,0.0,0.0,0.0,0.0,0.0,0.0,0.0,0.0,0.0,0.0,0.0,0.0,0.0,0.0,0.0,0.0,0.0,0.0,0.0,0.0,0.0,0.0,0.0,0.0,0.0,0.0,0.0,0.0,0.0,0.0,0.0,0.0,0.0,0.0,0.0,0.0,0.0,0.0,0.0,0.0,0.0,0.0,0.0,0.0,0.0,0.0,0.0,0.0,0.0,0.0,0.0,0.0,0.0,0.0,-2.8197,-3.0944,-3.3665,-3.64,-3.8075,-3.8557,-3.6515,-3.5001,-3.412,0.0,0.0,0.0,0.0,0.0,0.0,0.0,0.0,0.0,0.0,0.0,0.0,0.0,0.0,0.0,0.0,0.0,0.0,0.0,0.0,0.0,0.0,0.0,0.0,0.0,0.0,0.0,0.0,0.0,0.0,0.0,0.0,0.0,0.0,0.0,0.0,0.0,0.0,-2.6239,-2.615,0.0,0.0,0.0,0.0,0.0,0.0,0.0,0.0,-2.3631,0.0,0.0,0.0,0.0,0.0,0.0,0.0,0.0,0.0,0.0,0.0,0.0,0.0,0.0,0.0,0.0,0.0,0.0,0.0,0.0,0.0,0.0,0.0,0.0,0.0,0.0,0.0,0.0,0.0,0.0,0.0,0.0,0.0,0.0,0.0,0.0,0.0,0.0,0.0,0.0,0.0,0.0,0.0,0.0,0.0,0.0,0.0,0.0,0.0,0.0,0.0,0.0,0.0,0.0,0.0,0.0,-2.65,-2.8874,-3.1421,-3.422,-3.7521,-3.9033,-3.8598,-3.7121,-3.5422,-3.3667,0.0,0.0,0.0,0.0,0.0,0.0,0.0,0.0,0.0,0.0,0.0,0.0,0.0,0.0,0.0,0.0,0.0,0.0,0.0,0.0,0.0,0.0,0.0,0.0,0.0,0.0,0.0,0.0,0.0,0.0,0.0,0.0,0.0,0.0,0.0,0.0,0.0,0.0,0.0,-2.5848,-2.5462,0.0,0.0,0.0,0.0,0.0,0.0,0.0,0.0,-2.376,0.0,0.0,0.0,0.0,0.0,0.0,0.0,0.0,0.0,0.0,0.0,0.0,0.0,0.0,0.0,0.0,0.0,0.0,0.0,0.0,0.0,0.0,0.0,0.0,0.0,0.0,0.0,0.0,0.0,0.0,0.0,0.0,0.0,0.0,0.0,0.0,0.0,0.0,0.0,0.0,0.0,0.0,0.0,0.0,0.0,0.0,0.0,0.0,0.0,0.0,0.0,0.0,0.0,0.0,0.0,-2.7289,-3.0173,-3.28,-3.5061,-3.814,-3.9316,-3.8307,-3.6805,-3.504,0.0,0.0,0.0,0.0,0.0,0.0,0.0,0.0,0.0,0.0,0.0,0.0,0.0,0.0,0.0,0.0,0.0,0.0,0.0,0.0,0.0,0.0,0.0,0.0,0.0,0.0,0.0,0.0,0.0,0.0,0.0,0.0,0.0,0.0,0.0,0.0,0.0,0.0,0.0,0.0,-2.6904,-2.6301,-2.5584,0.0,0.0,0.0,0.0,0.0,0.0,-2.3988,-2.4316,0.0,0.0,0.0,0.0,0.0,0.0,0.0,0.0,0.0,0.0,0.0,0.0,0.0,0.0,0.0,0.0,0.0,0.0,0.0,0.0,0.0,0.0,0.0,0.0,0.0,0.0,0.0,0.0,0.0,0.0,0.0,0.0,0.0,0.0,0.0,0.0,0.0,0.0,0.0,0.0,0.0,0.0,0.0,0.0,0.0,0.0,0.0,0.0,0.0,0.0,0.0,0.0,0.0,0.0,0.0,-2.7548,-3.0939,-3.3642,-3.5491,-3.8076,-3.8909,-3.7829,-3.6035,-3.4233,0.0,0.0,0.0,0.0,0.0,0.0,0.0,0.0,0.0,0.0,0.0,0.0,0.0,0.0,0.0,0.0,0.0,0.0,0.0,0.0,0.0,0.0,0.0,0.0,0.0,0.0,0.0,0.0,0.0,0.0,0.0,0.0,0.0,0.0,0.0,0.0,0.0,0.0,0.0,0.0,0.0,-2.7251,-2.603,-2.57,0.0,0.0,0.0,0.0,-2.3871,-2.4754,0.0,0.0,0.0,0.0,0.0,0.0,0.0,0.0,0.0,0.0,0.0,0.0,0.0,0.0,0.0,0.0,0.0,0.0,0.0,0.0,0.0,0.0,0.0,0.0,0.0,0.0,0.0,0.0,0.0,0.0,0.0,0.0,0.0,0.0,0.0,0.0,0.0,0.0,0.0,0.0,0.0,0.0,0.0,0.0,0.0,0.0,0.0,0.0,0.0,0.0,0.0,0.0,0.0,0.0,0.0,0.0,-2.6952,-2.9882,-3.2535,-3.4838,-3.6552,-3.7358,-3.7155,-3.4942,-3.3066,0.0,0.0,0.0,0.0,0.0,0.0,0.0,0.0,0.0,0.0,0.0,0.0,0.0,0.0,0.0,0.0,0.0,0.0,0.0,0.0,0.0,0.0,0.0,0.0,0.0,0.0,0.0,0.0,0.0,0.0,0.0,0.0,0.0,0.0,0.0,0.0,0.0,0.0,0.0,0.0,0.0,-2.7322,-2.5638,-2.6009,-2.5775,0.0,0.0,-2.5871,-2.4814,-2.6317,0.0,0.0,0.0,0.0,0.0,0.0,0.0,0.0,0.0,0.0,0.0,0.0,0.0,0.0,0.0,0.0,0.0,0.0,0.0,0.0,0.0,0.0,0.0,0.0,0.0,0.0,0.0,0.0,0.0,0.0,0.0,0.0,0.0,0.0,0.0,0.0,0.0,0.0,0.0,0.0,0.0,0.0,0.0,0.0,0.0,0.0,0.0,0.0,0.0,0.0,0.0,0.0,0.0,0.0,0.0,-2.6575,-2.7755,-3.048,-3.277,-3.4427,-3.5963,-3.6586,-3.6202,-3.3716,-3.1928,0.0,0.0,0.0,0.0,0.0,0.0,0.0,0.0,0.0,0.0,0.0,0.0,0.0,0.0,0.0,0.0,0.0,0.0,0.0,0.0,0.0,0.0,0.0,0.0,0.0,0.0,0.0,0.0,0.0,0.0,0.0,0.0,0.0,0.0,0.0,0.0,0.0,0.0,0.0,0.0,0.0,0.0,-2.6649,-2.6927,0.0,0.0,0.0,-2.6753,-2.6637,0.0,0.0,0.0,0.0,0.0,0.0,0.0,0.0,0.0,0.0,0.0,0.0,0.0,0.0,0.0,0.0,0.0,0.0,0.0,0.0,0.0,0.0,0.0,0.0,0.0,0.0,0.0,0.0,0.0,0.0,0.0,0.0,0.0,0.0,0.0,0.0,0.0,0.0,0.0,0.0,0.0,0.0,0.0,0.0,0.0,0.0,0.0,0.0,0.0,0.0,0.0,0.0,0.0,0.0,0.0,0.0,0.0,-2.8185,-3.0671,-3.2645,-3.3966,-3.5127,-3.5565,-3.522,-3.2647,0.0,0.0,0.0,0.0,0.0,0.0,0.0,0.0,0.0,0.0,0.0,0.0,0.0,0.0,0.0,0.0,0.0,0.0,0.0,0.0,0.0,0.0,0.0,0.0,0.0,0.0,0.0,-2.7348,0.0,0.0,0.0,0.0,0.0,0.0,0.0,0.0,0.0,0.0,0.0,0.0,0.0,0.0,-2.9125,-2.7909,-2.8196,-2.8449,0.0,0.0,-2.8014,-2.8033,-2.8137,-2.821,0.0,0.0,0.0,0.0,0.0,0.0,0.0,0.0,0.0,0.0,0.0,0.0,0.0,0.0,0.0,0.0,0.0,0.0,0.0,0.0,0.0,0.0,0.0,0.0,0.0,0.0,0.0,0.0,0.0,0.0,0.0,0.0,0.0,0.0,0.0,0.0,0.0,0.0,0.0,0.0,0.0,0.0,0.0,0.0,0.0,0.0,0.0,0.0,0.0,0.0,0.0,0.0,0.0,0.0,0.0,-2.7628,-2.9531,-3.1481,-3.3283,-3.3518,-3.3921,-3.4502,-3.1958,-3.0283,0.0,0.0,0.0,0.0,0.0,0.0,0.0,0.0,0.0,0.0,0.0,0.0,0.0,0.0,0.0,0.0,0.0,0.0,0.0,0.0,0.0,0.0,0.0,0.0,0.0,0.0,0.0,0.0,0.0,0.0,0.0,0.0,0.0,0.0,0.0,0.0,0.0,0.0,0.0,0.0,0.0,-3.0038,-2.9032,-2.9853,-3.0219,0.0,0.0,-3.0167,-2.8436,-2.9715,-3.0322,-2.8639,0.0,0.0,0.0,0.0,0.0,0.0,0.0,0.0,0.0,0.0,0.0,0.0,0.0,0.0,0.0,0.0,0.0,0.0,0.0,0.0,0.0,0.0,0.0,0.0,0.0,0.0,0.0,0.0,0.0,0.0,0.0,0.0,0.0,0.0,0.0,0.0,0.0,0.0,0.0,0.0,0.0,0.0,0.0,0.0,0.0,0.0,0.0,0.0,0.0,0.0,0.0,0.0,0.0,-2.7855,-2.8629,-3.0201,-3.1774,-3.3164,-3.3387,-3.3594,-3.3873,-3.133,-2.9861,0.0,0.0,0.0,0.0,0.0,0.0,0.0,0.0,0.0,0.0,0.0,0.0,0.0,0.0,0.0,0.0,0.0,0.0,0.0,0.0,0.0,0.0,0.0,0.0,0.0,0.0,0.0,0.0,-2.7911,-2.8234,-2.9031,0.0,0.0,0.0,0.0,0.0,0.0,0.0,0.0,0.0,0.0,-3.1341,-2.9824,-3.0776,0.0,0.0,-3.1148,-3.1018,-3.0273,-3.0119,-2.9843,-2.9125,-2.8535,0.0,0.0,0.0,0.0,0.0,0.0,0.0,0.0,0.0,0.0,0.0,0.0,0.0,0.0,0.0,0.0,0.0,0.0,0.0,0.0,0.0,0.0,0.0,0.0,0.0,0.0,0.0,0.0,0.0,0.0,0.0,0.0,0.0,0.0,0.0,0.0,0.0,0.0,0.0,0.0,0.0,0.0,0.0,0.0,0.0,0.0,0.0,0.0,0.0,0.0,0.0,0.0,-2.8121,-2.9371,-3.0568,-3.1859,-3.3277,-3.32,-3.3269,-3.3425,-3.112,-2.9801,0.0,0.0,0.0,0.0,0.0,0.0,0.0,0.0,0.0,0.0,0.0,0.0,0.0,0.0,0.0,0.0,0.0,0.0,0.0,0.0,0.0,0.0,0.0,0.0,0.0,0.0,0.0,0.0,-2.8478,-2.8951,-2.9916,0.0,0.0,0.0,0.0,0.0,0.0,0.0,0.0,0.0,0.0,-3.1716,-3.0846,-3.1579,-3.228,-3.2522,-3.1897,-3.1362,-3.1151,-3.032,-2.9556,-2.9181,0.0,0.0,0.0,0.0,0.0,0.0,0.0,0.0,0.0,0.0,0.0,0.0,0.0,0.0,0.0,0.0,0.0,0.0,0.0,0.0,0.0,0.0,0.0,0.0,0.0,0.0,0.0,0.0,0.0,0.0,-2.3184,0.0,0.0,0.0,0.0,0.0,0.0,0.0,0.0,0.0,0.0,0.0,0.0,0.0,0.0,0.0,0.0,0.0,0.0,0.0,0.0,0.0,0.0,-2.8146,-2.9475,-3.0174,-3.1461,-3.338,-3.2803,-3.2803,-3.3394,-3.1539,-3.0193,-2.9594,0.0,0.0,0.0,0.0,0.0,0.0,0.0,0.0,0.0,0.0,0.0,0.0,0.0,0.0,0.0,0.0,0.0,0.0,0.0,0.0,0.0,0.0,0.0,0.0,0.0,0.0,-2.9967,-3.0539,-3.0751,0.0,0.0,0.0,0.0,0.0,0.0,0.0,0.0,0.0,0.0,-3.0936,-3.0773,-3.2109,-3.2272,-3.2492,-3.3216,-3.2228,-3.1182,-3.0566,-3.0417,-2.9925,0.0,0.0,0.0,0.0,0.0,0.0,0.0,0.0,0.0,0.0,0.0,0.0,0.0,0.0,0.0,0.0,0.0,0.0,0.0,0.0,0.0,0.0,0.0,0.0,0.0,0.0,0.0,-2.4251,-2.3989,0.0,0.0,0.0,0.0,0.0,0.0,0.0,0.0,0.0,0.0,0.0,-2.4104,-2.4871,0.0,0.0,0.0,0.0,0.0,0.0,0.0,0.0,0.0,0.0,0.0,0.0,-2.8365,-3.0025,-3.0776,-3.1895,-3.3383,-3.3221,-3.303,-3.2856,-3.133,-3.0223,-2.9594,0.0,0.0,0.0,0.0,0.0,0.0,0.0,0.0,0.0,0.0,0.0,0.0,0.0,0.0,0.0,0.0,0.0,0.0,0.0,0.0,0.0,0.0,0.0,0.0,0.0,-2.8842,0.0,0.0,0.0,0.0,0.0,0.0,0.0,0.0,0.0,0.0,0.0,-3.2761,-3.253,-3.3054,-3.3188,-3.2492,-3.2754,-3.2942,0.0,0.0,0.0,0.0,0.0,0.0,0.0,0.0,0.0,0.0,0.0,0.0,0.0,0.0,-2.9934,-2.8076,-2.755,-2.7334,-2.7163,0.0,0.0,0.0,0.0,0.0,0.0,0.0,0.0,0.0,0.0,0.0,0.0,0.0,0.0,-2.5163,0.0,-2.4797,0.0,0.0,0.0,0.0,0.0,0.0,0.0,0.0,-2.3826,-2.4449,-2.5527,-2.6358,-2.7223,0.0,-2.915,-2.9164,0.0,0.0,0.0,0.0,0.0,0.0,0.0,0.0,-2.863,-3.0358,-3.1316,-3.244,-3.3612,-3.3589,-3.3305,-3.2856,-3.133,-3.0432,-3.0253,-3.0013,-3.0013,0.0,0.0,0.0,0.0,0.0,0.0,0.0,0.0,0.0,0.0,0.0,0.0,0.0,0.0,0.0,0.0,0.0,0.0,0.0,0.0,0.0,0.0,0.0,-2.9443,0.0,0.0,0.0,0.0,0.0,0.0,0.0,0.0,0.0,-3.3633,-3.3426,-3.3237,-3.321,-3.3712,-3.3678,-3.2551,0.0,0.0,0.0,0.0,0.0,0.0,0.0,-3.1151,-3.0509,-3.0597,-3.0725,-3.0751,-3.0845,-3.0955,-3.0907,0.0,0.0,-2.932,-2.8809,-2.8586,-2.8411,-2.8362,-2.8415,-2.8626,-2.8725,-2.8673,0.0,0.0,0.0,0.0,0.0,0.0,0.0,0.0,-2.5896,-2.5875,0.0,-2.5378,0.0,0.0,0.0,0.0,0.0,-2.4364,0.0,0.0,-2.507,-2.6036,-2.7437,-2.8454,-2.9261,-2.9731,-3.0851,-3.0879,-2.9818,-2.8881,0.0,0.0,0.0,0.0,0.0,0.0,-2.9061,-3.0378,-3.1672,-3.297,-3.4196,-3.3765,-3.3484,-3.3395,-3.1569,-3.0851,-3.1421,-3.0853,-3.0851,-3.1451,-3.1481,0.0,0.0,0.0,0.0,0.0,0.0,0.0,0.0,0.0,0.0,0.0,0.0,0.0,0.0,0.0,0.0,0.0,0.0,0.0,0.0,-3.0361,0.0,0.0,0.0,0.0,0.0,0.0,0.0,0.0,0.0,0.0,-3.4539,-3.2597,-3.1797,-3.3866,0.0,0.0,0.0,0.0,-3.241,-3.2437,-3.1913,-3.1543,-3.1516,-3.1459,-3.1274,-3.0632,0.0,0.0,-3.1482,-3.1393,-3.1575,-3.2184,-3.2265,-3.208,-3.2104,-3.1398,-3.0878,-3.0857,-3.0662,-3.048,-3.0172,-3.033,-3.0299,-2.6287,0.0,0.0,0.0,0.0,-2.6156,-2.614,-2.5896,-2.6273,-2.602,-2.5399,-2.5251,0.0,0.0,0.0,0.0,0.0,0.0,-2.5543,-2.6475,-2.6626,-2.7697,-2.9503,-2.9439,-2.9894,-3.073,-3.0881,-3.0776,-3.0413,-2.9897,-2.9222,-2.8386,0.0,0.0,0.0,0.0,-2.9061,-3.0378,-3.1158,-3.2234,-3.3641,-3.3521,-3.3225,-3.2826,-3.175,-3.1301,-3.1511,-3.1301,-3.1301,-3.1481,-3.1511,0.0,0.0,0.0,0.0,0.0,0.0,0.0,0.0,0.0,0.0,0.0,0.0,0.0,0.0,0.0,0.0,0.0,0.0,0.0,-2.9134,-3.0766,-3.1469,0.0,0.0,0.0,0.0,0.0,0.0,0.0,0.0,0.0,-3.5105,-3.469,-3.4728,0.0,0.0,-3.3726,-3.4328,-3.3583,-3.2975,-3.2975,-3.3226,0.0,-3.2869,-3.2813,-3.2752,-3.2567,-3.2644,-3.2688,-3.2662,-3.3157,-3.364,-3.4007,-3.4259,-3.4474,-3.4544,-3.2673,-3.1111,-3.0792,-3.1145,-3.1483,-3.1357,-3.167,-3.184,-2.856,-2.7667,-2.6907,-2.6736,-2.6993,-2.7262,-2.722,-2.6972,-2.7262,-2.6972,-2.6289,-2.6103,-2.5771,-2.5337,-2.515,0.0,0.0,0.0,-2.629,-2.7722,-2.7722,-2.8958,-3.104,-3.0891,-3.1223,-3.1974,-3.1669,-3.1357,-3.1149,-3.0455,-2.9771,-2.9091,0.0,0.0,-2.8255,-2.8778,-2.9469,-3.0271,-3.1118,-3.1991,-3.2885,-3.2939,-3.2828,-3.2527,-3.1839,-3.1511,-3.1511,-3.1511,-3.1511,-3.1511,-3.1511,-3.1511,0.0,0.0,0.0,0.0,0.0,0.0,0.0,0.0,0.0,0.0,0.0,-2.9402,-2.8923,0.0,0.0,0.0,-2.8971,-2.9454,-3.0037,-3.1109,0.0,0.0,0.0,0.0,0.0,0.0,0.0,-3.4323,-3.448,-3.5095,-3.643,-3.6531,-3.6451,-3.6215,-3.5112,-3.4423,-3.467,0.0,-3.3617,-3.393,-3.4345,-3.4595,-3.4581,-3.4278,-3.3999,-3.3689,-3.3578,-3.3527,-3.3521,-3.4161,-3.4706,-3.492,-3.5293,-3.5689,-3.5844,-3.4275,-3.294,-3.2722,-3.3,-3.3324,-3.3314,-3.3584,-3.3583,-2.9883,-2.9973,-2.885,-2.8489,-2.8607,-2.8607,-2.8607,-2.8607,-2.8607,-2.8338,-2.7841,-2.7496,-2.704,-2.6542,-2.6107,0.0,-2.6073,-2.6073,-2.7005,-2.8679,-2.8679,-2.9999,-3.2389,-3.2599,-3.2836,-3.3234,-3.288,-3.2411,-3.185,-3.0805,-3.0283,-3.0231,-2.9745,-2.9441,-2.9301,-2.9849,-3.01,-3.01,-3.1332,-3.2037,-3.211,-3.2302,-3.2445,-3.2497,-3.184,-3.1511,-3.1511,-3.1511,-3.1511,-3.1511,-3.1511,-3.1511,-3.1511,0.0,0.0,0.0,0.0,0.0,0.0,0.0,0.0,0.0,0.0,0.0,0.0,0.0,0.0,0.0,-3.0628,0.0,-3.1424,-3.1455,0.0,0.0,0.0,-3.2635,-3.345,-3.4428,-3.5139,-3.549,0.0,0.0,-3.8059,-3.7977,-3.7134,-3.5276,-3.4949,-3.4748,-3.4373,-3.4208,-3.4345,-3.498,-3.5175,-3.5467,-3.5817,-3.5435,-3.4801,-3.4233,-3.4068,-3.4086,-3.4201,-3.4658,-3.5038,-3.5108,-3.5588,-3.5997,-3.6019,-3.5873,-3.5975,-3.5686,-3.5632,-3.5577,-3.5497,-3.535,-3.4873,-3.0689,-3.0512,-3.0231,-2.9529,-2.8628,-2.8607,-2.8607,-2.8607,-2.8607,-2.8173,-2.7407,-2.7351,-2.6853,-2.6041,-2.5982,-2.6515,-2.7513,-2.7513,-2.8836,-3.11,-3.1144,-3.2049,-3.3615,-3.3248,-3.3199,-3.348,-3.2986,-3.262,-3.2489,-3.2228,-3.1862,-3.1406,-3.1275,-3.0581,-2.9353,-2.9813,-3.01,-3.01,-3.0871,-3.1542,-3.2083,-3.2302,-3.2396,-3.2411,-3.1842,-3.1511,-3.1511,-3.1511,-3.1511,-3.1511,-3.1511,-3.1511,-3.1511,-3.1511,0.0,0.0,0.0,0.0,0.0,0.0,0.0,0.0,0.0,-3.015,-2.9784,0.0,-2.975,0.0,-3.0905,-3.1424,-3.1424,-3.1886,0.0,0.0,-3.311,-3.3609,-3.4788,-3.5106,-3.5609,-3.6568,-3.6522,-3.6795,-3.7834,-3.7577,-3.7293,-3.7143,-3.631,-3.6031,-3.6783,-3.556,-3.4667,-3.4955,-3.5449,-3.5603,-3.5402,-3.5202,-3.5065,-3.4961,-3.4775,-3.4847,-3.5497,-3.5559,-3.5644,-3.5756,-3.5954,-3.6105,-3.6161,-3.6161,-3.6161,-3.6118,-3.6096,-3.6075,-3.6041,-3.5227,-3.4349,-3.1289,-3.1278,-3.1071,-3.0553,-2.9808,-2.9415,-2.9228,-2.9228,-2.9228,-2.8835,-2.8152,-2.7945,-2.7572,-2.7096,-2.6889,-2.7191,-2.7964,-2.8188,-2.9398,-3.1335,-3.1889,-3.2846,-3.4063,-3.3835,-3.3803,-3.3927,-3.3378,-3.3091,-3.3064,-3.2568,-3.2111,-3.1797,-3.1601,-3.0973,-3.0111,-3.0346,-3.0466,-3.0529,-3.0817,-3.1357,-3.2046,-3.1999,-3.2184,-3.28,-3.1959,-3.166,-3.1929,-3.166,-3.1511,-3.1511,-3.1511,-3.1511,-3.1511,-3.1511,-3.1182,0.0,0.0,0.0,0.0,0.0,0.0,0.0,0.0,0.0,0.0,0.0,-3.0525,-3.0817,-3.1459,-3.1951,-3.2259,-3.2351,-3.2813,-3.3767,-3.3808,-3.4335,-3.5679,-3.6027,-3.6648,-3.7885,-3.7735,-3.7866,-3.8747,-3.8614,-3.8539,-3.8845,-3.7975,-3.7465,-3.7691,-3.6851,-3.6281,-3.664,-3.675,-3.6528,-3.5902,-3.5811,-3.5737,-3.543,-3.5305,-3.5404,-3.5877,-3.5983,-3.5975,-3.6096,-3.617,-3.6233,-3.6233,-3.6233,-3.6233,-3.6233,-3.6233,-3.6109,-3.5715,-3.472,-3.3888,-3.1804,-3.1946,-3.1629,-3.1422,-3.1374,-3.045,-3.0077,-3.0077,-3.0015,-2.9746,-2.927,-2.8814,-2.8587,-2.8483,-2.8041,-2.7931,-2.8042,-2.8498,-2.9441,-3.0732,-3.1777,-3.2932,-3.4131,-3.4272,-3.4397,-3.4371,-3.3927,-3.3692,-3.3666,-3.2633,-3.2084,-3.2006,-3.1575,-3.1287,-3.1209,-3.1209,-3.113,-3.1037,-3.1011,-3.1283,-3.1928,-3.1612,-3.1957,-3.3017,-3.2165,-3.1869,-3.2347,-3.1809,-3.1511,-3.1511,-3.1511,-3.1511,-3.1511,-3.1511,-3.1241,0.0,-3.1182,0.0,0.0,0.0,0.0,0.0,0.0,0.0,0.0,-3.1362,-3.1386,-3.152,-3.2105,-3.2752,-3.3336,-3.2936,-3.3211,-3.4443,-3.4585,-3.5102,-3.6454,-3.7094,-3.79,-3.9176,-3.9242,-3.9401,-3.9944,-4.0113,-4.0113,-3.9977,-3.9445,-3.8845,-3.8362,-3.7966,-3.7942,-3.8802,-3.8227,-3.7287,-3.6804,-3.6624,-3.6354,-3.587,-3.5768,-3.5868,-3.6004,-3.6134,-3.6204,-3.6225,-3.6255,-3.6284,-3.6284,-3.6284,-3.6284,-3.6284,-3.6215,-3.5876,-3.5145,-3.4384,-3.3576,-3.2092,-3.1967,-3.1884,-3.1712,-3.134,-3.0781,-3.0553,-3.0532,-3.016,-2.9725,-2.927,-2.8814,-2.84,-2.7999,-2.7917,-2.8151,-2.8528,-2.8675,-2.9761,-3.1713,-3.1933,-3.276,-3.4089,-3.4173,-3.423,-3.4397,-3.4293,-3.4241,-3.4241,-3.4005,-3.3692,-3.3273,-3.3143,-3.2855,-3.2385,0.0,0.0,0.0,-3.1011,-3.1048,-3.1209,-3.1748,-3.1915,-3.1721,-3.2097,0.0,-3.172,-3.157,-3.1511,-3.1511,-3.1511,0.0,0.0,0.0,0.0,0.0,0.0,0.0,0.0,0.0,0.0,0.0,-3.1751,-3.1812,-3.2007,-3.2118,-3.217,-3.2228,-3.2813,-3.3275,-3.3398,-3.3829,-3.4443,-3.5212,-3.5712,-3.6508,-3.7762,-3.8056,-3.8564,-3.9765,-3.9513,-3.9435,-4.0011,-4.0113,-4.0113,-4.0113,-3.9977,-3.9842,-3.9673,-3.8667,-3.8024,-3.8058,-3.7618,-3.7032,-3.6829,-3.6332,-3.6152,-3.6378,-3.6095,-3.6117,-3.6737,-3.6482,-3.6247,-3.6276,-3.6262,-3.6284,-3.6284,-3.6284,-3.6284,-3.6284,-3.5835,-3.5352,-3.5173,-3.4533,-3.3776,-3.2798,0.0,-3.2421,-3.2194,0.0,-3.1547,-3.1236,-3.0988,-3.0284,-2.987,-2.9642,-2.9394,-2.9166,-2.8918,-2.8462,-2.8376,-2.8657,-2.8661,-2.9578,-3.1113,-3.1713,-3.2655,-3.3793,-3.3979,-3.4173,-3.423,-3.4356,-3.4397,-3.4371,-3.4136,-3.3849,-3.3587,-3.33,-3.2986,-3.2698,-3.2672,-3.2254,-3.1418,-3.113,-3.1011,-3.1022,-3.1424,-3.1868,-3.2224,0.0,0.0,0.0,0.0,0.0,0.0,0.0,0.0,0.0,0.0,0.0,-3.1511,-3.1511,-3.1689,-3.2076,-3.2106,-3.2343,-3.2878,-3.3025,-3.2837,-3.2364,-3.2385,-3.2536,-3.2875,-3.3213,-3.3675,-3.4382,-3.5047,-3.5718,-3.6372,-3.7256,-3.8061,-3.863,-3.8995,-3.9428,-3.9927,-3.9825,-3.9773,-4.0062,-4.0113,-4.0113,-4.0113,-4.0113,-4.0113,-4.0045,-3.9503,-3.8903,-3.8531,-3.8159,-3.7753,-3.7347,-3.6671,-3.6321,-3.6695,-3.631,-3.6171,-3.6554,-3.6444,-3.6255,-3.6284,-3.6284,-3.6284,-3.6284,-3.6284,-3.6284,-3.6249,-3.6008,-3.5594,-3.5249,-3.4283,-3.3386,-3.3368,-3.3327,-3.2913,-3.2669,-3.2628,-3.2173,-3.1754,-3.1195,0.0,0.0,0.0,-2.9994,-2.9953,-2.9829,-2.9083,-2.869,-2.8616,-2.8726,-2.9344,-3.033,-3.1451,-3.2481,-3.3386,-3.381,-3.4089,-3.4131,-3.4314,-3.4397,-3.4371,-3.3953,-3.3744,-3.3692,-3.3221,-3.2986,-3.2986,-3.2908,-3.262,-3.2111,-3.147,-3.1078,-3.1011,-3.1145,-3.185,-3.301,-3.2753,-3.312,-3.4262,-3.3784,-3.3245,-3.2706,-3.2706,-3.2407,-3.1899,-3.1839,-3.1839,-3.1869,-3.1869,-3.2079,-3.2676,-3.2796,-3.3096,-3.3728,-3.406,-3.3836,-3.2844,-3.278,-3.2936,-3.3367,-3.3614,-3.4198,-3.5244,-3.6001,-3.6639,-3.7205,-3.8339,-3.9028,-3.9082,-3.9696,-4.0062,-4.0113,-4.0087,-4.0113,-4.0113,-4.0113,-4.0113,-4.0113,-4.0113,-4.0113,-4.0113,-4.0045,-3.9774,-3.9334,-3.8937,-3.87,-3.8193,-3.7483,-3.6998,-3.6887,-3.6513,-3.6168,-3.6118,-3.6212,-3.6284,-3.6284,-3.6284,-3.6284,-3.6284,-3.6284,-3.6284,-3.6284,-3.6284,-3.6111,-3.5456,-3.4283,-3.3352,-3.3389,-3.3327,-3.2913,-3.2669,-3.2628,-3.2173,-3.1567,-3.076,-3.0222,-2.9994,-2.9994,-2.9994,-2.9766,-2.9394,-2.927,-2.898,-2.8636,-2.9069,-2.9786,0.0,-3.1371,-3.2283,-3.3386,-3.3641,-3.3894,-3.4131,-3.4314,-3.4397,-3.4397,-3.4319,-3.4293,-3.4267,-3.4188,-3.4136,-3.411,-3.3692,-3.343,-3.3326,-3.228,-3.147,-3.1037,-3.1619,-3.2069,-3.2352,-3.2954,-3.3355,-3.3603,-3.3574,-3.3455,-3.3365,-3.3365,-3.3305,-3.3215,-3.3185,-3.3215,-3.3215,-3.3215,-3.3306,-3.3517,-3.3426,-3.3547,-3.394,-3.4238,-3.4383,-3.4227,-3.4227,-3.4012,-3.3552,-3.4475,-3.4999,-3.4813,-3.5797,-3.6569,-3.6754,-3.7738,-3.8418,-3.853,-3.9454,-4.0113,-4.0113,-4.0113,-4.0113,-4.0113,-4.0113,-4.0113,-4.0113,-4.0113,-4.0113,-4.0113,-4.0113,-4.0079,-3.991,-3.9402,-3.9005,-3.8802,-3.8227,-3.7621,-3.7149,-3.699,-3.6691,-3.6281,-3.6241,-3.6284,-3.6284,-3.6284,-3.6284,-3.6284,-3.6284,-3.6284,-3.6284,-3.6284,-3.6215,-3.6042,-3.5318,-3.4421,-3.3762,-3.3658,-3.3016,-3.2669,-3.2649,-3.223,-3.1671,-3.1029,-3.0574,-3.0243,-3.0015,-2.9994,-2.9891,-2.9663,-2.9415,-2.9187,-2.8959,-2.895,-2.9816,-3.1271,-3.1507,-3.2512,-3.401,-3.4168,-3.4409,-3.4796,-3.4855,-3.5025,-3.5286,-3.5025,-3.4894,-3.4868,-3.458,-3.4397,-3.4371,-3.4162,-3.3875,-3.3587,-3.2751,-3.2176,-3.1914,-3.1917,-3.2343,-3.3192,-3.33,-3.3723,-3.456,-3.4592,-3.4412,-3.4084,-3.4023,-3.3873,-3.3514,-3.3514,-3.3514,-3.3514,-3.3514,-3.3665,-3.4117,-3.4384,-3.4749,-3.5063,-3.5217,-3.5401,-3.5553,-3.4936,-3.4536,-3.4566,-3.5153,-3.5552,-3.5583,-3.6443,-3.7118,-3.7445,-3.8311,-3.892,-3.9269,-3.9722,-4.0087,-4.0113,-4.0113,-4.0113,-4.0113,-4.0113,-4.0113,-4.0113,-4.0113,-4.0113,-4.0113,-4.0113,-4.0113,-4.0079,-3.9808,-3.9639,-3.9571,-3.8971,-3.8299,-3.7682,-3.7308,-3.6896,-3.6384,-3.6276,-3.6284,-3.6284,-3.6284,-3.6284,-3.6284,-3.6284,-3.6284,-3.6284,-3.6284,-3.6284,-3.6215,-3.5697,-3.4835,-3.4072,-3.3989,-3.3099,-3.2669,-3.2649,-3.2297,-3.1878,-3.1415,-3.0988,-3.0532,-3.0036,-2.9994,-2.9994,-2.9953,-2.9622,-2.9456,-2.9445,-2.9212,-2.9975,-3.1414,-3.1874,-3.2863,-3.4243,-3.4559,-3.4944,-3.5321,-3.5313,-3.5574,-3.5957,-3.5592,-3.5452,-3.5417,-3.4894,-3.4607,-3.4607,-3.4476,-3.4188,-3.377,-3.33,-3.296,-3.2672,-3.2111,-3.2508,-3.3904,-3.3487,-3.3934,-3.5392,-3.5489,-3.525,-3.4803,-3.4743,-3.4472,-3.3993,-3.3933,-3.3933,-3.3963,-3.3933,-3.4173,-3.4681,-3.5222,-3.5651,-3.591,-3.6005,-3.6163,-3.6291,-3.5553,-3.509,-3.546,-3.5645,-3.5891,-3.6168,-3.6814,-3.7385,-3.7851,-3.859,-3.9082,-3.9584,-3.9901,-4.0113,-4.0113,-4.0113,-4.0113,-4.0113,-4.0113,-4.0113,-4.0113,-4.0113,-4.0113,-4.0113,-4.0113,-4.0113,-4.0113,-4.0113,-4.0079,-4.0079,-3.9614,-3.9011,-3.8384,-3.7786,-3.7273,-3.6719,-3.6448,-3.6284,-3.6284,-3.6284,-3.6284,-3.6284,-3.6284,-3.6284,-3.6284,-3.6284,-3.6284,-3.6249,-3.5994,-3.5272,-3.4132,-3.3927,-3.312,-3.2669,-3.2669,-3.2628,-3.2168,-3.1422,-3.1319,-3.0822,-3.0036,-2.9994,-2.9994,-2.9994,-2.9932,-2.9911,-2.9922,-3.0384,-3.07,-3.1081,-3.2345,-3.3071,-3.3468,-3.4515,-3.5079,-3.5226,-3.5372,-3.5594,-3.5945,-3.5841,-3.5825,-3.5922,-3.5469,-3.5208,-3.5155,-3.4685,-3.4371,-3.4319,-3.4267,-3.3718,-3.2725,-3.2111,-3.2546,-3.4004,-3.3515,-3.3934,-3.5424,-3.5489,-3.5459,-3.5429,-3.537,-3.537,-3.531,-3.531,-3.531,-3.528,-3.528,-3.537,-3.54,-3.5591,-3.5688,-3.5752,-3.6006,-3.6195,-3.6258,-3.626,-3.6045,-3.5737,-3.6045,-3.6138,-3.5707,-3.623,-3.6723,-3.6906,-3.7767,-3.8418,-3.8668,-3.9428,-4.0113,-4.0113,-4.0113,-4.0113,-4.0113,-4.0113,-4.0113,-4.0113,-4.0113,-4.0113,-4.0113,-4.0113,-4.0113,-4.0113,-4.0113,-4.0113,-4.0079,-4.0079,-3.967,-3.9252,-3.8606,-3.7877,-3.7335,-3.6711,-3.6284,-3.6284,-3.6284,-3.6284,-3.6284,-3.6284,-3.6284,-3.6284,-3.6284,-3.6284,-3.6326,-3.6435,-3.6097,-3.438,-3.401,-3.3389,-3.2954,-3.269,-3.2669,-3.2209,-3.1402,-3.1381,-3.0864,-3.0056,-2.9994,-2.9994,-2.9994,-2.9994,-2.9994,-3.0026,-3.0233,-3.0691,-3.133,-3.2551,-3.3479,-3.4197,-3.5098,-3.5745,-3.5999,-3.5947,-3.6245,-3.6658,-3.6605,-3.6243,-3.5704,-3.5704,-3.5626,-3.5312,-3.5051,-3.4763,-3.4424,-3.4397,-3.4162,-3.3692,-3.3169,-3.3391,-3.4381,-3.4012,-3.4243,-3.5323,-3.5489,-3.5489,-3.5489,-3.5489,-3.5489,-3.5489,-3.5489,-3.5489,-3.5489,-3.5489,-3.5489,-3.5489,-3.5554,-3.5621,-3.5688,-3.5816,-3.5943,-3.61,-3.6226,-3.6166,-3.592,-3.6229,-3.6353,-3.6138,-3.6322,-3.6631,-3.6997,-3.7474,-3.8026,-3.8783,-3.9242,-3.967,-4.0037,-4.0113,-4.0113,-4.0113,-4.0113,-4.0113,-4.0113,-4.0113,-4.0113,-4.0113,-4.0113,-4.0113,-4.0113,-4.0113,-4.0113,-4.0113,-4.0188,-3.9948,-3.9447,-3.8813,-3.8174,-3.7585,-3.6835,-3.6318,-3.6284,-3.6284,-3.6284,-3.6284,-3.6284,-3.6284,-3.6284,-3.6284,-3.6284,-3.6284,-3.66,-3.6587,-3.436,-3.3903,-3.3389,-3.3016,-3.2669,-3.2545,-3.2106,-3.1402,-3.1257,-3.0739,-3.0036,-2.9994,-2.9994,-2.9994,-2.9994,-2.9994,-2.9994,-2.9994,-3.0391,-3.1278,-3.2549,-3.3648,-3.4435,-3.5533,-3.6261,-3.6514,-3.6421,-3.6678,-3.7335,-3.7345,-3.6828,-3.6149,-3.6253,-3.6149,-3.5783,-3.5626,-3.5312,-3.492,-3.4868,-3.4789,-3.4633,-3.4267,-3.4313,-3.4748,-3.4351,-3.4511,-3.5363,-3.5448,-3.5489,-3.5489,-3.5489,-3.5489,-3.5489,-3.5489,-3.5489,-3.5489,-3.5489,-3.5489,-3.5489,-3.5489,-3.5554,-3.5621,-3.5655,-3.5752,-3.5879,-3.6038,-3.6132,-3.607,-3.6289,-3.6414,-3.6414,-3.6445,-3.6693,-3.7088,-3.7268,-3.7825,-3.875,-3.9055,-3.9461,-3.9978,-4.0113,-4.0113,-4.0113,-4.0113,-4.0113,-4.0113,-4.0113,-4.0113,-4.0113,-4.0113,-4.0113,-4.0113,-4.0113,-4.0113,-4.0113,-4.0163,-4.0007,-3.9675,-3.9052,-3.822,-3.7723,-3.7008,-3.6318,-3.6284,-3.6284,-3.6284,-3.6284,-3.6284,-3.6305,-3.6305,-3.6367,-3.6451,-3.6533,-3.688,-3.7302,-3.3883,-3.3389,-3.2954,-3.2768,-3.2649,-3.2215,-3.1816,-3.134,-3.0926,-3.045,-3.0036,-2.9994,-2.9994,-2.9994,-2.9994,-2.9994,-2.9994,-2.9994,-3.0047,-3.0391,-3.2246,-3.325,-3.34,-3.5355,-3.638,-3.6452,-3.6402,-3.6611,-3.7083,-3.7618,-3.7848,-3.7717,-3.7194,-3.6959,-3.675,-3.6332,-3.6044,-3.5913,-3.5913,-3.5757,-3.5312,-3.5208,-3.5024,-3.4736,-3.4372,-3.4555,-3.5149,-3.5392,-3.5519,-3.5489,-3.5489,-3.5489,-3.5489,-3.5489,-3.5489,-3.5489,-3.5489,-3.5489,-3.5489,-3.5489,-3.5489,-3.5522,-3.5621,-3.5688,-3.572,-3.591,-3.6037,-3.6164,-3.6195,-3.6196,-3.6227,-3.6383,-3.6507,-3.66,-3.7058,-3.7621,-3.8278,-3.8838,-3.9401,-3.9927,-4.0113,-4.0113,-4.0113,-4.0113,-4.0113,-4.0113,-4.0113,-4.0113,-4.0113,-4.0113,-4.0113,-4.0113,-4.0113,-4.0113,-4.0113,-4.0163,-4.0229,-3.9993,-3.92,-3.8288,-3.7932,-3.7491,-3.6766,-3.6284,-3.6284,-3.6284,-3.6284,-3.6305,-3.6326,-3.6409,-3.662,-3.6741,-3.6841,-3.7542,-3.7897,-3.3803,-3.3348,-3.2913,-3.2669,-3.2628,-3.223,-3.1795,-3.134,-3.0884,-3.0429,-3.0036,-2.9994,-2.9994,-2.9994,-2.9994,-2.9994,-2.9994,-2.9994,-2.9994,-3.0256,-3.2196,-3.3201,-3.3449,-3.5379,-3.6405,-3.6405,-3.6405,-3.637,-3.6416,-3.7186,-3.7462,-3.7202,-3.7417,-3.7403,-3.7037,-3.6802,-3.6488,-3.6149,-3.6096,-3.5992,-3.5809,-3.5469,-3.522,-3.5092,-3.5201,-3.5249,-3.516,-3.5807,-3.5938,-3.5519,-3.5489,-3.5489,-3.5489,-3.5489,-3.5489,-3.5489,-3.5489,-3.5489,-3.5489,-3.5489,-3.5489,-3.5489,-3.5554,-3.5587,-3.5589,-3.5718,-3.5784,-3.5782,-3.5973,-3.6068,-3.6132,-3.632,-3.6507,-3.6507,-3.6693,-3.7238,-3.8051,-3.8502,-3.9001,-3.9825,-4.0113,-4.0113,-4.0113,-4.0113,-4.0113,-4.0113,-4.0113,-4.0113,-4.0113,-4.0113,-4.0113,-4.0113,-4.0113,-4.0113,-4.0113,-4.0188,-4.022,-3.9993,-3.9463,-3.8723,-3.8183,-3.7318,-3.6525,-3.6353,-3.6318,-3.6353,-3.6387,-3.6367,-3.6388,-3.665,-3.6856,-3.7151,-3.721,-3.7791,-3.8051,-3.3451,-3.3161,-3.2851,-3.2644,-3.2401,-3.1967,-3.1567,-3.1112,-3.0657,-3.0284,-3.0036,-2.9994,-2.9994,-2.9994,-2.9994,-2.9994,-2.9994,-2.9994,-2.9994,-3.0203,-3.2196,-3.3201,-3.3549,-3.5379,-3.6405,-3.6405,-3.6452,-3.6391,-3.6252,-3.6975,-3.7134,-3.6825,-3.7462,-3.7554,-3.726,-3.7254,-3.7063,-3.6724,-3.6698,-3.6619,-3.6358,-3.5861,-3.5469,-3.5437,-3.5894,-3.5949,-3.5447,-3.6143,-3.6297,-3.5878,-3.5609,-3.5489,-3.5489,-3.5489,-3.5489,-3.5489,-3.5489,-3.5489,-3.5489,-3.5489,-3.5489,-3.5489,-3.5489,-3.5489,-3.5519,-3.5587,-3.5619,-3.5651,-3.5814,-3.6005,-3.61,-3.632,-3.6507,-3.6507,-3.6507,-3.6906,-3.7883,-3.8165,-3.8892,-3.9825,-4.0113,-4.0113,-4.0113,-4.0113,-4.0113,-4.0113,-4.0113,-4.0113,-4.0113,-4.0113,-4.0113,-4.0113,-4.0113,-4.0113,-4.0113,-4.0163,-4.0238,-4.0056,-3.9382,-3.8768,-3.8332,-3.7344,-3.6663,-3.6456,-3.6387,-3.6456,-3.6464,-3.6444,-3.6629,-3.6886,-3.726,-3.756,-3.7774,-3.8,-3.8238,-3.269,-3.2727,-3.2669,-3.238,-3.1946,-3.1567,-3.1112,-3.0698,-3.0222,-3.0036,-2.9994,-2.9994,-2.9994,-2.9994,-2.9994,-2.9994,-2.9994,-2.9994,-2.9994,-3.0203,-3.2196,-3.3201,-3.335,-3.5379,-3.6405,-3.6405,-3.6593,-3.6662,-3.6611,-3.6943,-3.7083,-3.7129,-3.7315,-3.7479,-3.7479,-3.7612,-3.7776,-3.7697,-3.7717,-3.7508,-3.7011,-3.6358,-3.5852,-3.5594,-3.6318,-3.649,-3.6014,-3.6377,-3.6507,-3.6327,-3.5818,-3.5519,-3.5489,-3.5489,-3.5489,-3.5489,-3.5489,-3.5489,-3.5489,-3.5489,-3.5489,-3.5489,-3.5489,-3.5489,-3.5489,-3.5489,-3.5554,-3.5686,-3.5816,-3.6005,-3.6163,-3.632,-3.6476,-3.6507,-3.6507,-3.6816,-3.7415,-3.7994,-3.875,-3.9825,-4.0113,-4.0113,-4.0113,-4.0113,-4.0113,-4.0113,-4.0113,-4.0113,-4.0113,-4.0113,-4.0113,-4.0113,-4.0113,-4.0113,-4.0113,-4.0113,-4.0188,-4.0093,-3.9218,-3.8505,-3.854,-3.7885,-3.7249,-3.696,-3.6628,-3.6684,-3.6602,-3.6615,-3.6866,-3.7177,-3.7595,-3.7966,-3.8171,-3.8372,-3.8501,-3.2504,-3.2215,-3.2194,-3.2002,-3.1547,-3.1091,-3.0801,-3.0636,-3.0201,-2.9994,-2.9994,-2.9994,-2.9994,-2.9994,-2.9994,-2.9994,-2.9994,-2.9994,-2.9994,-3.0391,-3.2196,-3.3201,-3.3598,-3.5427,-3.6405,-3.6405,-3.6452,-3.6499,-3.6546,-3.6734,-3.6803,-3.6875,-3.7108,-3.7201,-3.7248,-3.7505,-3.7598,-3.7644,-3.7808,-3.7795,-3.7534,-3.6619,-3.6279,-3.6657,-3.6321,-3.6459,-3.7413,-3.727,-3.6683,-3.5908,-3.5609,-3.5489,-3.5489,-3.5489,-3.5489,-3.5489,-3.5489,-3.5489,-3.5489,-3.5489,-3.5489,-3.5489,-3.5489,-3.5489,-3.5489,-3.5489,-3.5489,-3.5587,-3.5619,-3.5748,-3.6005,-3.61,-3.6258,-3.6445,-3.6538,-3.6906,-3.7883,-3.8892,-3.9644,-3.9978,-4.0113,-4.0113,-4.0113,-4.0113,-4.0113,-4.0113,-4.0113,-4.0113,-4.0113,-4.0113,-4.0113,-4.0113,-4.0113,-4.0113,-4.0113,-4.0113,-4.0138,-4.0102,-3.9374,-3.88,-3.878,-3.8642,-3.7986,-3.7409,-3.7098,-3.6824,-3.6774,-3.6856,-3.7122,-3.7483,-3.7933,-3.8221,-3.8474,-3.8601,-3.8658,-3.2504,-3.2235,-3.205,-3.1774,-3.134,-3.0884,-3.0594,-3.0408,-3.0118,-2.9994,-2.9994,-2.9994,-2.9994,-2.9994,-2.9994,-2.9994,-2.9994,-2.9994,-3.0256,-3.0785,-3.2348,-3.3201,-3.3499,-3.5427,-3.6405,-3.6405,-3.6405,-3.6405,-3.6405,-3.6546,-3.6593,-3.6615,-3.6828,-3.6968,-3.6968,-3.7201,-3.7366,-3.7505,-3.767,-3.7808,-3.7665,-3.6724,-3.6532,-3.7142,-3.6593,-3.6788,-3.7721,-3.7523,-3.7045,-3.6267,-3.5789,-3.5519,-3.5489,-3.5489,-3.5489,-3.5489,-3.5489,-3.5489,-3.5489,-3.5489,-3.5489,-3.5489,-3.5489,-3.5489,-3.5489,-3.5489,-3.5489,-3.5489,-3.5554,-3.5653,-3.5846,-3.6037,-3.6163,-3.6352,-3.6445,-3.7028,-3.8137,-3.9162,-3.9825,-3.9978,-4.0113,-4.0113,-4.0113,-4.0113,-4.0113,-4.0113,-4.0113,-4.0113,-4.0113,-4.0113,-4.0113,-4.0113,-4.0113,-4.0113,-4.0113,-4.0113,-4.0113,-3.9942,-3.9657,-3.9334,-3.9213,-3.917,-3.8767,-3.803,-3.7581,-3.7082,-3.696,-3.7106,-3.7319,-3.7756,-3.8221,-3.8437,-3.8632,-3.8664,-3.8689,-3.2628,-3.2545,-3.2132,-3.1671,-3.1215,-3.0781,-3.0387,-3.0056,-2.9994,-2.9994,-2.9994,-2.9994,-2.9994,-2.9994,-2.9994,-2.9994,-2.9994,-2.9994,-3.0547,-3.1534,-3.2678,-3.335,-3.3993,-3.5619,-3.6358,-3.6405,-3.6405,-3.6405,-3.6405,-3.6405,-3.6405,-3.6452,-3.6593,-3.6687,-3.6734,-3.6968,-3.7227,-3.7413,-3.7505,-3.7644,-3.7776,-3.6724,-3.6532,-3.7292,-3.6809,-3.6747,-3.7374,-3.7434,-3.7345,-3.7105,-3.6028,-3.5489,-3.5489,-3.5489,-3.5489,-3.5489,-3.5489,-3.5489,-3.5489,-3.5489,-3.5489,-3.5489,-3.5489,-3.5489,-3.5489,-3.5489,-3.5489,-3.5519,-3.5589,-3.5718,-3.5752,-3.5943,-3.6133,-3.6227,-3.6476,-3.7117,-3.8137,-3.8865,-3.9454,-3.9952,-4.0113,-4.0113,-4.0113,-4.0113,-4.0113,-4.0113,-4.0113,-4.0113,-4.0113,-4.0113,-4.0113,-4.0113,-4.0113,-4.0113,-4.0113,-4.0113,-4.0113,-4.0052,-3.9904,-3.9846,-3.96,-3.9582,-3.925,-3.856,-3.7914,-3.7457,-3.7191,-3.7314,-3.7632,-3.8087,-3.8405,-3.8611,-3.8689,-3.8689,-3.8689,-3.2333,-3.1733,-3.1588,-3.1091,-3.0408,-3.0222,-3.0118,-2.9994,-2.9994,-2.9994,-2.9994,-2.9994,-2.9994,-2.9994,-2.9994,-2.9994,-2.9994,-2.9994,-3.0599,-3.1637,-3.27,-3.419,-3.5331,-3.6073,-3.643,-3.6405,-3.6405,-3.6405,-3.6405,-3.6405,-3.6405,-3.6405,-3.6452,-3.6499,-3.6499,-3.6687,-3.6922,-3.7201,-3.7413,-3.7598,-3.7645,-3.6724,-3.6558,-3.7153,-3.5936,-3.616,-3.7639,-3.7582,-3.6892,-3.6058,-3.5729,-3.5489,-3.5489,-3.5489,-3.5489,-3.5489,-3.5489,-3.5489,-3.5489,-3.5489,-3.5489,-3.5489,-3.5489,-3.5489,-3.5489,-3.5489,-3.5489,-3.5489,-3.5554,-3.5589,-3.5688,-3.5784,-3.5943,-3.6227,-3.6693,-3.7356,-3.8165,-3.8805,-3.9428,-3.9986,-4.0113,-4.0113,-4.0113,-4.0113,-4.0113,-4.0113,-4.0113,-4.0113,-4.0113,-4.0113,-4.0113,-4.0113,-4.0113,-4.0113,-4.0113,-4.0113,-4.0113,-4.0163,-4.0152,-4.0314,-4.0093,-3.9937,-3.9376,-3.872,-3.8134,-3.7594,-3.747,-3.7468,-3.7933,-3.8307,-3.8517,-3.8689,-3.8689,-3.8689,-3.8689,-3.207,-3.1609,-3.1236,-3.0781,-3.0284,-3.0077,-2.9994,-2.9994,-2.9994,-2.9994,-2.9994,-2.9994,-2.9994,-2.9994,-2.9994,-2.9994,-2.9994,-2.9994,-3.0599,-3.1761,-3.3407,-3.4992,-3.6173,-3.6606,-3.6631,-3.6405,-3.6405,-3.6405,-3.6405,-3.6405,-3.6405,-3.6405,-3.6405,-3.6405,-3.6405,-3.6499,-3.6687,-3.6922,-3.7201,-3.7381,-3.7274,-3.6549,-3.6495,-3.6676,-3.5678,-3.5934,-3.7457,-3.7523,-3.6806,-3.5818,-3.5489,-3.5489,-3.5489,-3.5489,-3.5489,-3.5489,-3.5489,-3.5489,-3.5489,-3.5489,-3.5489,-3.5489,-3.5489,-3.5489,-3.5489,-3.5489,-3.5489,-3.5489,-3.5489,-3.5554,-3.5621,-3.575,-3.5911,-3.6196,-3.6693,-3.7387,-3.8193,-3.8838,-3.9428,-3.9876,-4.0113,-4.0113,-4.0113,-4.0113,-4.0113,-4.0113,-4.0113,-4.0113,-4.0113,-4.0113,-4.0113,-4.0113,-4.0113,-4.0113,-4.0113,-4.0113,-4.0138,-4.0163,-4.0313,-4.051,-4.0484,-4.027,-3.9824,-3.9203,-3.8479,-3.7935,-3.7851,-3.7792,-3.7931,-3.8271,-3.8549,-3.8689,-3.8689,-3.8689,-3.8689,-3.1926,-3.1781,-3.1029,-3.0657,-3.0532,-3.0243,-3.0118,-3.0098,-3.0201,-3.0222,-3.0201,-3.0118,-3.0139,-3.0056,-3.0056,-3.0036,-3.0077,-3.0036,-3.09,-3.2345,-3.419,-3.5893,-3.6689,-3.7008,-3.6933,-3.6606,-3.648,-3.6405,-3.6405,-3.6405,-3.6405,-3.6405,-3.6405,-3.6405,-3.6405,-3.6405,-3.6474,-3.6709,-3.6968,-3.7021,-3.6813,-3.6319,-3.62,-3.6305,-3.6225,-3.6069,-3.6905,-3.7146,-3.6866,-3.5669,-3.5549,-3.5489,-3.5489,-3.5489,-3.5489,-3.5489,-3.5489,-3.5489,-3.5489,-3.5489,-3.5489,-3.5489,-3.5489,-3.5489,-3.5489,-3.5489,-3.5489,-3.5489,-3.5489,-3.5489,-3.5554,-3.5782,-3.6005,-3.6195,-3.6383,-3.7058,-3.8023,-3.8783,-3.9382,-4.0011,-4.0113,-4.0113,-4.0113,-4.0113,-4.0113,-4.0113,-4.0113,-4.0113,-4.0113,-4.0113,-4.0113,-4.0113,-4.0113,-4.0113,-4.0113,-4.0113,-4.0138,-4.0188,-4.0362,-4.0534,-4.0704,-4.0558,-4.0295,-3.9756,-3.8801,-3.8397,-3.8364,-3.8312,-3.8075,-3.832,-3.8643,-3.8689,-3.8689,-3.8689,-3.8689,-3.1629,-3.0967,-3.076,-3.047,-3.0222,-3.0429,-3.0532,-3.0574,-3.0926,-3.1008,-3.0967,-3.0698,-3.0532,-3.0512,-3.0201,-3.018,-3.045,-3.0327,-3.1184,-3.3543,-3.4825,-3.6406,-3.7267,-3.7462,-3.7161,-3.6935,-3.6606,-3.643,-3.643,-3.6455,-3.6405,-3.6405,-3.6405,-3.6405,-3.6405,-3.6405,-3.6499,-3.6687,-3.6756,-3.6845,-3.6744,-3.627,-3.5921,-3.5999,-3.6375,-3.642,-3.6372,-3.6969,-3.7011,-3.6357,-3.5789,-3.5489,-3.5489,-3.5489,-3.5489,-3.5489,-3.5489,-3.5489,-3.5489,-3.5489,-3.5489,-3.5489,-3.5489,-3.5489,-3.5489,-3.5489,-3.5489,-3.5489,-3.5489,-3.5489,-3.5552,-3.5812,-3.6005,-3.61,-3.6352,-3.6937,-3.7994,-3.8418,-3.8968,-3.9773,-4.0113,-4.0113,-4.0113,-4.0113,-4.0113,-4.0113,-4.0113,-4.0113,-4.0113,-4.0113,-4.0113,-4.0113,-4.0113,-4.0113,-4.0113,-4.0113,-4.0163,-4.0213,-4.0387,-4.0558,-4.0704,-4.0778,-4.0457,-3.9894,-3.9077,-3.8804,-3.8599,-3.8113,-3.7738,-3.8271,-3.8689,-3.8689,-3.8689,-3.8689,-3.8689,-3.1319,-3.0698,-3.0698,-3.0553,-3.0408,-3.0801,-3.1008,-3.105,-3.1257,-3.1381,-3.1278,-3.0884,-3.0801,-3.0926,-3.0367,-3.0346,-3.0781,-3.0586,-3.1486,-3.3384,-3.4737,-3.621,-3.771,-3.7967,-3.7864,-3.7538,-3.701,-3.6832,-3.6757,-3.6556,-3.6405,-3.6405,-3.6405,-3.6405,-3.6405,-3.6405,-3.6452,-3.6546,-3.6662,-3.6654,-3.6437,-3.6367,-3.5867,-3.586,-3.6388,-3.6697,-3.6531,-3.7045,-3.7178,-3.6776,-3.6028,-3.5489,-3.5489,-3.5489,-3.5489,-3.5489,-3.5489,-3.5489,-3.5489,-3.5489,-3.5489,-3.5489,-3.5489,-3.5489,-3.5489,-3.5489,-3.5489,-3.5489,-3.5489,-3.5489,-3.5519,-3.5812,-3.5973,-3.6068,-3.6289,-3.6906,-3.7679,-3.8108,-3.8783,-3.9747,-4.0113,-4.0113,-4.0113,-4.0113,-4.0113,-4.0113,-4.0113,-4.0113,-4.0113,-4.0113,-4.0113,-4.0113,-4.0113,-4.0113,-4.0113,-4.0138,-4.0163,-4.0263,-4.0412,-4.0534,-4.068,-4.0696,-4.0618,-3.9928,-3.9238,-3.8783,-3.8518,-3.7964,-3.7756,-3.8336,-3.8673,-3.8673,-3.8689,-3.8689,-3.8689,-3.1215,-3.0781,-3.0781,-3.0781,-3.0864,-3.1278,-3.1485,-3.1485,-3.1567,-3.1712,-3.1505,-3.1091,-3.1215,-3.1215,-3.0532,-3.0636,-3.0988,-3.1208,-3.1911,-3.336,-3.4364,-3.6015,-3.7577,-3.8359,-3.8517,-3.809,-3.7563,-3.7312,-3.7084,-3.6782,-3.6581,-3.6455,-3.6405,-3.6405,-3.6405,-3.6405,-3.6405,-3.6452,-3.6546,-3.6489,-3.6151,-3.6257,-3.5893,-3.5759,-3.6305,-3.6972,-3.7111,-3.7455,-3.7584,-3.7464,-3.6327,-3.5759,-3.5639,-3.5519,-3.5489,-3.5489,-3.5489,-3.5489,-3.5489,-3.5489,-3.5489,-3.5489,-3.5489,-3.5489,-3.5489,-3.5489,-3.5489,-3.5489,-3.5489,-3.5489,-3.5522,-3.5812,-3.5973,-3.6068,-3.6289,-3.6754,-3.7328,-3.7883,-3.8645,-3.9618,-3.9825,-3.9825,-4.0011,-4.0113,-4.0113,-4.0113,-4.0113,-4.0113,-4.0113,-4.0113,-4.0113,-4.0113,-4.0113,-4.0113,-4.0113,-4.0113,-4.0163,-4.0238,-4.0362,-4.0485,-4.0631,-4.0659,-4.0524,-4.0043,-3.9477,-3.893,-3.8435,-3.8033,-3.8025,-3.8526,-3.8673,-3.8673,-3.8689,-3.8689,-3.8689,-3.1671,-3.1311,-3.1257,-3.1257,-3.1319,-3.1733,-3.1884,-3.2002,-3.2292,-3.2442,-3.2395,-3.2002,-3.174,-3.1692,-3.0988,-3.0719,-3.1008,-3.1504,-3.2429,-3.3648,-3.46,-3.608,-3.7661,-3.8632,-3.8843,-3.8617,-3.814,-3.7688,-3.7312,-3.7086,-3.6757,-3.6505,-3.6405,-3.6405,-3.6405,-3.6405,-3.6405,-3.6405,-3.6452,-3.6351,-3.6265,-3.5851,-3.5687,-3.5541,-3.6246,-3.7,-3.7728,-3.8053,-3.8212,-3.8093,-3.6985,-3.6447,-3.6178,-3.5818,-3.5579,-3.5489,-3.5489,-3.5489,-3.5489,-3.5489,-3.5489,-3.5489,-3.5489,-3.5489,-3.5489,-3.5489,-3.5489,-3.5489,-3.5489,-3.5489,-3.5519,-3.5812,-3.6004,-3.6068,-3.632,-3.6723,-3.7208,-3.7533,-3.7998,-3.9001,-3.9269,-3.954,-3.9773,-3.9978,-4.0113,-4.0113,-4.0113,-4.0113,-4.0113,-4.0113,-4.0113,-4.0113,-4.0113,-4.0113,-4.0113,-4.0113,-4.0138,-4.0163,-4.0263,-4.0387,-4.051,-4.0631,-4.0463,-4.018,-3.9537,-3.8799,-3.8354,-3.79,-3.799,-3.8221,-3.8433,-3.8658,-3.8689,-3.8689,-3.8689,-3.1774,-3.1457,-3.1629,-3.1712,-3.1795,-3.2153,-3.2339,-3.238,-3.2566,-3.2669,-3.2525,-3.2215,-3.2132,-3.2106,-3.1443,-3.105,-3.1345,-3.2441,-3.3255,-3.3987,-3.5373,-3.6559,-3.8007,-3.8832,-3.9018,-3.8944,-3.8542,-3.8115,-3.7588,-3.6985,-3.6857,-3.6807,-3.6581,-3.6405,-3.6405,-3.6405,-3.6405,-3.6405,-3.6405,-3.6405,-3.6304,-3.5643,-3.5287,-3.5378,-3.6073,-3.6816,-3.732,-3.8148,-3.8357,-3.8212,-3.7464,-3.6896,-3.6507,-3.6178,-3.5848,-3.5579,-3.5489,-3.5489,-3.5489,-3.5489,-3.5489,-3.5489,-3.5489,-3.5489,-3.5489,-3.5489,-3.5489,-3.5489,-3.5489,-3.5489,-3.5489,-3.5812,-3.5973,-3.6037,-3.6289,-3.66,-3.6846,-3.6906,-3.7504,-3.8311,-3.8865,-3.9242,-3.954,-3.9773,-4.0037,-4.0113,-4.0113,-4.0113,-4.0113,-4.0113,-4.0113,-4.0113,-4.0113,-4.0113,-4.0113,-4.0113,-4.0113,-4.0138,-4.0188,-4.0288,-4.0412,-4.0534,-4.069,-4.059,-3.979,-3.8841,-3.7888,-3.7341,-3.7631,-3.7931,-3.8168,-3.8417,-3.8611,-3.8689,-3.8689,-3.1961,-3.1671,-3.2023,-3.2132,-3.2194,-3.2504,-3.2649,-3.2669,-3.2669,-3.2669,-3.2607,-3.2339,-3.2339,-3.2457,-3.2064,-3.1629,-3.1698,-3.2959,-3.3593,-3.4383,-3.5901,-3.7273,-3.8093,-3.8899,-3.932,-3.8617,-3.8567,-3.8391,-3.7688,-3.7036,-3.6883,-3.6757,-3.6531,-3.6405,-3.6405,-3.6405,-3.6405,-3.6405,-3.6405,-3.638,-3.6121,-3.5481,-3.4984,-3.4857,-3.5791,-3.6397,-3.7109,-3.7849,-3.8442,-3.8381,-3.7853,-3.7165,-3.6746,-3.6447,-3.6058,-3.5609,-3.5489,-3.5489,-3.5489,-3.5489,-3.5489,-3.5489,-3.5489,-3.5489,-3.5489,-3.5489,-3.5489,-3.5489,-3.5489,-3.5489,-3.5522,-3.578,-3.5941,-3.6068,-3.6226,-3.6445,-3.6538,-3.6631,-3.6785,-3.7594,-3.8423,-3.8974,-3.9269,-3.9773,-4.0087,-4.0113,-4.0113,-4.0113,-4.0113,-4.0113,-4.0113,-4.0113,-4.0113,-4.0113,-4.0113,-4.0113,-4.0113,-4.0113,-4.0163,-4.0238,-4.0362,-4.0485,-4.0549,-4.0508,-3.9893,-3.8901,-3.7826,-3.706,-3.7338,-3.765,-3.7948,-3.8254,-3.8564,-3.8673,-3.8689,-3.2566,-3.2561,-3.2566,-3.2587,-3.2587,-3.2649,-3.2669,-3.2669,-3.2649,-3.2669,-3.2607,-3.2587,-3.2566,-3.2623,-3.2566,-3.2292,-3.2224,-3.2784,-3.3703,-3.4659,-3.5971,-3.7222,-3.8031,-3.9154,-3.9019,-3.8417,-3.8191,-3.7789,-3.7337,-3.7036,-3.6908,-3.6707,-3.6581,-3.6405,-3.6405,-3.6405,-3.6405,-3.6405,-3.6405,-3.6298,-3.5911,-3.5214,-3.5142,-3.5319,-3.5544,-3.6016,-3.7193,-3.7933,-3.848,-3.9009,-3.8063,-3.7434,-3.7135,-3.6178,-3.5729,-3.5519,-3.5489,-3.5489,-3.5489,-3.5489,-3.5489,-3.5489,-3.5489,-3.5489,-3.5489,-3.5489,-3.5489,-3.5489,-3.5489,-3.5489,-3.5522,-3.5653,-3.5814,-3.6005,-3.6163,-3.6352,-3.6445,-3.6507,-3.6631,-3.7057,-3.7962,-3.8613,-3.9082,-3.9644,-4.0113,-4.0113,-4.0113,-4.0113,-4.0113,-4.0113,-4.0113,-4.0113,-4.0113,-4.0113,-4.0113,-4.0113,-4.0113,-4.0113,-4.0138,-4.0188,-4.0288,-4.0319,-4.0192,-4.0014,-3.9571,-3.925,-3.8529,-3.7923,-3.7463,-3.7646,-3.8223,-3.8458,-3.8611,-3.871,-3.8872,-3.2669,-3.2669,-3.2669,-3.2669,-3.2669,-3.2669,-3.2669,-3.2607,-3.2401,-3.2277,-3.2297,-3.2277,-3.2297,-3.2359,-3.2525,-3.2401,-3.2321,-3.3177,-3.4357,-3.5443,-3.6588,-3.7713,-3.8816,-3.9364,-3.9094,-3.8291,-3.7889,-3.7487,-3.7084,-3.681,-3.6759,-3.7161,-3.6707,-3.6405,-3.6405,-3.6405,-3.6405,-3.6405,-3.638,-3.6175,-3.5747,-3.5324,-3.5021,-3.4813,-3.5157,-3.5995,-3.6833,-3.7872,-3.8575,-3.9079,-3.8422,-3.7764,-3.7345,-3.6567,-3.5938,-3.5489,-3.5489,-3.5489,-3.5489,-3.5489,-3.5489,-3.5489,-3.5489,-3.5489,-3.5489,-3.5489,-3.5489,-3.5489,-3.5489,-3.5489,-3.5522,-3.5621,-3.575,-3.5847,-3.6038,-3.6164,-3.6352,-3.6445,-3.6631,-3.7025,-3.7496,-3.8185,-3.8941,-3.9618,-4.0062,-4.0113,-4.0113,-4.0113,-4.0113,-4.0113,-4.0113,-4.0113,-4.0113,-4.0113,-4.0113,-4.0113,-4.0113,-4.0113,-4.0113,-4.0163,-4.0188,-4.0152,-4.0095,-4.0011,-3.9763,-3.9445,-3.9146,-3.8642,-3.802,-3.8286,-3.867,-3.8865,-3.9021,-3.9334,-3.946,-3.2499,-3.2416,-3.2644,-3.2669,-3.2669,-3.2669,-3.2607,-3.2463,-3.2297,-3.2112,-3.2029,-3.2132,-3.2194,-3.2215,-3.2504,-3.2504,-3.2327,-3.3815,-3.509,-3.6263,-3.7394,-3.8502,-3.9258,-3.9622,-3.9195,-3.8216,-3.8065,-3.7638,-3.7111,-3.6807,-3.701,-3.7588,-3.6958,-3.6581,-3.643,-3.6405,-3.6405,-3.6405,-3.6405,-3.6204,-3.583,-3.5558,-3.4931,-3.4749,-3.5063,-3.5855,-3.6322,-3.7396,-3.8501,-3.9079,-3.8482,-3.7764,-3.7345,-3.6567,-3.5938,-3.5579,-3.5489,-3.5489,-3.5489,-3.5489,-3.5489,-3.5489,-3.5489,-3.5489,-3.5489,-3.5489,-3.5489,-3.5489,-3.5489,-3.5489,-3.5522,-3.5589,-3.5653,-3.5752,-3.5911,-3.6038,-3.6164,-3.632,-3.6507,-3.6876,-3.7352,-3.804,-3.8799,-3.9558,-3.9952,-4.0087,-4.0113,-4.0113,-4.0113,-4.0113,-4.0113,-4.0113,-4.0113,-4.0113,-4.0113,-4.0113,-4.0113,-4.0113,-4.0113,-4.0113,-4.0163,-4.0213,-4.0235,-4.0119,-3.9942,-3.9993,-3.9881,-3.9226,-3.8642,-3.8781,-3.8993,-3.9229,-3.9512,-3.9836,-4.0141,-3.1836,-3.1547,-3.2318,-3.2649,-3.2607,-3.2669,-3.2457,-3.207,-3.238,-3.2235,-3.1926,-3.2297,-3.2437,-3.2602,-3.2504,-3.2566,-3.2623,-3.3909,-3.5113,-3.6263,-3.7394,-3.8554,-3.9362,-3.9597,-3.9371,-3.8743,-3.8266,-3.7939,-3.7713,-3.7136,-3.6933,-3.6606,-3.7061,-3.6857,-3.6556,-3.6405,-3.6405,-3.6405,-3.6405,-3.6405,-3.6107,-3.583,-3.5207,-3.49,-3.5193,-3.5716,-3.62,-3.7319,-3.831,-3.9188,-3.8242,-3.7494,-3.7135,-3.6267,-3.5669,-3.5549,-3.5489,-3.5489,-3.5489,-3.5489,-3.5489,-3.5489,-3.5489,-3.5489,-3.5489,-3.5489,-3.5489,-3.5489,-3.5489,-3.5489,-3.5489,-3.5522,-3.5589,-3.5686,-3.5784,-3.5943,-3.607,-3.6196,-3.6414,-3.6723,-3.7326,-3.8104,-3.8772,-3.9558,-3.9952,-4.0087,-4.0113,-4.0113,-4.0113,-4.0113,-4.0113,-4.0113,-4.0113,-4.0113,-4.0113,-4.0113,-4.0113,-4.0113,-4.0113,-4.0113,-4.0113,-4.0188,-4.0263,-4.0294,-4.0188,-4.0412,-4.0463,-3.979,-3.9282,-3.918,-3.9353,-3.9857,-4.0021,-4.0219,-4.0589,-3.1774,-3.1464,-3.2354,-3.2416,-3.1899,-3.1899,-3.1795,-3.1629,-3.1526,-3.1381,-3.1257,-3.1402,-3.1629,-3.1899,-3.2153,-3.2256,-3.2467,-3.3823,-3.509,-3.6263,-3.7394,-3.8554,-3.931,-3.9622,-3.9396,-3.8868,-3.8316,-3.799,-3.7914,-3.7538,-3.7462,-3.7412,-3.7588,-3.7036,-3.6732,-3.648,-3.643,-3.6405,-3.6405,-3.6405,-3.638,-3.6157,-3.5629,-3.4841,-3.5686,-3.601,-3.6365,-3.7309,-3.809,-3.8377,-3.7849,-3.7375,-3.6866,-3.5968,-3.5579,-3.5489,-3.5489,-3.5489,-3.5489,-3.5489,-3.5489,-3.5489,-3.5489,-3.5489,-3.5489,-3.5489,-3.5489,-3.5489,-3.5489,-3.5489,-3.5489,-3.5489,-3.5522,-3.5589,-3.5686,-3.5816,-3.5975,-3.6101,-3.6538,-3.6937,-3.7621,-3.839,-3.8995,-3.9618,-3.9876,-4.0113,-4.0113,-4.0113,-4.0113,-4.0113,-4.0113,-4.0113,-4.0113,-4.0113,-4.0113,-4.0113,-4.0113,-4.0113,-4.0113,-4.0113,-4.0113,-4.0113,-4.0188,-4.0288,-4.0396,-4.0451,-4.0377,-4.0165,-3.9974,-3.9848,-4.0143,-4.07,-4.0733,-4.0633,-4.0963,-3.1381,-3.105,-3.165,-3.1712,-3.1402,-3.1526,-3.1422,-3.1153,-3.1029,-3.0884,-3.0884,-3.0905,-3.1071,-3.1443,-3.1836,-3.2008,-3.2637,-3.4007,-3.5266,-3.6511,-3.7767,-3.8816,-3.9413,-3.9647,-3.9496,-3.9019,-3.8592,-3.8291,-3.8316,-3.7864,-3.7814,-3.799,-3.8291,-3.7864,-3.7111,-3.6707,-3.6581,-3.6455,-3.6405,-3.6405,-3.6405,-3.6355,-3.5956,-3.5279,-3.6087,-3.6554,-3.6884,-3.7577,-3.8187,-3.8204,-3.7793,-3.7135,-3.6507,-3.5938,-3.5579,-3.5489,-3.5489,-3.5489,-3.5489,-3.5489,-3.5489,-3.5489,-3.5489,-3.5489,-3.5489,-3.5489,-3.5489,-3.5489,-3.5489,-3.5489,-3.5489,-3.5489,-3.5489,-3.5554,-3.5587,-3.5686,-3.5941,-3.6132,-3.6662,-3.7177,-3.7879,-3.8502,-3.9109,-3.9644,-3.9901,-4.0113,-4.0113,-4.0113,-4.0113,-4.0113,-4.0113,-4.0113,-4.0113,-4.0113,-4.0113,-4.0113,-4.0113,-4.0113,-4.0113,-4.0113,-4.0113,-4.0113,-4.0113,-4.0188,-4.0288,-4.0421,-4.0383,-4.0275,-4.0377,-4.0456,-4.0806,-4.1129,-4.1273,-4.1196,-4.1359,-3.0491,-3.0036,-3.0139,-3.0657,-3.1298,-3.1816,-3.1464,-3.0801,-3.1029,-3.1174,-3.1133,-3.1174,-3.1236,-3.1381,-3.1671,-3.1836,-3.2448,-3.446,-3.5862,-3.6333,-3.7863,-3.921,-3.9595,-3.9597,-3.9622,-3.9546,-3.9069,-3.8718,-3.8843,-3.8467,-3.8341,-3.8467,-3.8818,-3.8768,-3.7965,-3.7412,-3.691,-3.6505,-3.643,-3.6405,-3.6405,-3.6405,-3.6028,-3.6024,-3.6569,-3.7039,-3.743,-3.8045,-3.8509,-3.8286,-3.7883,-3.7255,-3.6537,-3.5968,-3.5639,-3.5519,-3.5489,-3.5489,-3.5489,-3.5489,-3.5489,-3.5489,-3.5489,-3.5489,-3.5489,-3.5489,-3.5489,-3.5489,-3.5489,-3.5489,-3.5489,-3.5489,-3.5489,-3.5489,-3.5522,-3.5651,-3.5878,-3.6037,-3.6569,-3.7237,-3.7911,-3.853,-3.9135,-3.967,-3.9927,-4.0113,-4.0113,-4.0113,-4.0113,-4.0113,-4.0113,-4.0113,-4.0113,-4.0113,-4.0113,-4.0113,-4.0113,-4.0113,-4.0113,-4.0113,-4.0113,-4.0113,-4.0113,-4.0138,-4.0188,-4.0288,-4.0387,-4.0476,-4.0535,-4.0631,-4.1033,-4.1327,-4.1538,-4.1598,-4.1534,-3.0408,-3.0056,-3.0657,-3.0739,-3.0512,-3.0615,-3.0491,-3.0284,-3.0387,-3.047,-3.047,-3.045,-3.0657,-3.0905,-3.1112,-3.136,-3.2015,-3.3031,-3.4294,-3.5531,-3.7408,-3.8405,-3.9016,-3.9496,-3.9672,-3.9546,-3.9195,-3.9145,-3.9396,-3.8894,-3.8894,-3.9094,-3.9044,-3.8693,-3.804,-3.7462,-3.6958,-3.6505,-3.6405,-3.6405,-3.6405,-3.6427,-3.6434,-3.6425,-3.7023,-3.7495,-3.7906,-3.8542,-3.8677,-3.8476,-3.8003,-3.7554,-3.6776,-3.6178,-3.5968,-3.5669,-3.5519,-3.5489,-3.5489,-3.5489,-3.5489,-3.5489,-3.5489,-3.5489,-3.5489,-3.5489,-3.5489,-3.5489,-3.5489,-3.5489,-3.5489,-3.5489,-3.5489,-3.5489,-3.5554,-3.5716,-3.5878,-3.5973,-3.6352,-3.7207,-3.794,-3.875,-3.9454,-3.9747,-4.0037,-4.0113,-4.0113,-4.0113,-4.0113,-4.0113,-4.0113,-4.0113,-4.0113,-4.0113,-4.0113,-4.0113,-4.0113,-4.0113,-4.0113,-4.0113,-4.0113,-4.0113,-4.0113,-4.0113,-4.0163,-4.0188,-4.0337,-4.0461,-4.0558,-4.0741,-4.1001,-4.114,-4.1197,-4.123,-4.1263,-3.0284,-3.0077,-3.0636,-3.0574,-3.0056,-3.016,-3.016,-3.0036,-2.9994,-2.9994,-3.0015,-3.0015,-3.0284,-3.0594,-3.0719,-3.1282,-3.1951,-3.3134,-3.4298,-3.5362,-3.6853,-3.8061,-3.8867,-3.922,-3.9471,-3.9496,-3.9421,-3.9371,-3.9622,-3.8969,-3.9019,-3.932,-3.9145,-3.8617,-3.8015,-3.7462,-3.6958,-3.6581,-3.6405,-3.6405,-3.6405,-3.6402,-3.651,-3.6813,-3.7316,-3.7853,-3.8307,-3.8668,-3.8921,-3.8615,-3.8242,-3.7918,-3.7135,-3.6716,-3.6477,-3.6058,-3.5609,-3.5549,-3.5489,-3.5489,-3.5489,-3.5489,-3.5489,-3.5489,-3.5489,-3.5489,-3.5489,-3.5489,-3.5489,-3.5489,-3.5489,-3.5489,-3.5489,-3.5489,-3.5554,-3.5683,-3.5814,-3.591,-3.6258,-3.7117,-3.7796,-3.8695,-3.961,-3.985,-4.0087,-4.0113,-4.0113,-4.0113,-4.0113,-4.0113,-4.0113,-4.0113,-4.0113,-4.0113,-4.0113,-4.0113,-4.0113,-4.0113,-4.0113,-4.0113,-4.0113,-4.0113,-4.0113,-4.0113,-4.0138,-4.0188,-4.0288,-4.0387,-4.0485,-4.0558,-4.0669,-4.0776,-4.0799,-4.0918,-4.1035,-2.9953,-2.9973,-2.9973,-2.9953,-3.0036,-3.0325,-3.0305,-2.9994,-2.9994,-2.9994,-2.9994,-2.9994,-3.0201,-3.0574,-3.0636,-3.137,-3.2425,-3.3683,-3.4773,-3.5941,-3.6871,-3.7892,-3.8442,-3.8768,-3.9094,-3.9446,-3.9546,-3.9396,-3.9672,-3.9471,-3.9521,-3.9446,-3.8944,-3.8391,-3.7839,-3.7287,-3.6857,-3.6505,-3.6405,-3.6405,-3.6405,-3.6405,-3.6705,-3.7117,-3.7732,-3.8276,-3.8774,-3.9208,-3.9195,-3.8907,-3.8512,-3.8063,-3.7674,-3.7434,-3.7015,-3.6447,-3.5759,-3.5579,-3.5489,-3.5489,-3.5489,-3.5489,-3.5489,-3.5489,-3.5489,-3.5489,-3.5489,-3.5489,-3.5489,-3.5489,-3.5489,-3.5489,-3.5489,-3.5489,-3.5489,-3.5589,-3.572,-3.5943,-3.6321,-3.6875,-3.7385,-3.8254,-3.9348,-3.9799,-4.0062,-4.0113,-4.0113,-4.0113,-4.0113,-4.0113,-4.0113,-4.0113,-4.0113,-4.0113,-4.0113,-4.0113,-4.0113,-4.0113,-4.0113,-4.0113,-4.0113,-4.0113,-4.0113,-4.0113,-4.0113,-4.0163,-4.0238,-4.0288,-4.0362,-4.0436,-4.051,-4.0607,-4.068,-4.0799,-4.0918,-2.9208,-2.9456,-2.9145,-2.9187,-2.9497,-2.9642,-2.9787,-2.9973,-2.9994,-2.9994,-2.9994,-2.9994,-3.0118,-3.0201,-3.0201,-3.0999,-3.1772,-3.2545,-3.3692,-3.4956,-3.6333,-3.6949,-3.7518,-3.8115,-3.8567,-3.8944,-3.9221,-3.9371,-3.9647,-3.9697,-3.9446,-3.9069,-3.8617,-3.804,-3.7462,-3.6933,-3.6656,-3.6455,-3.643,-3.6405,-3.6405,-3.6405,-3.6989,-3.7866,-3.8122,-3.8876,-3.9991,-3.9887,-3.978,-3.9755,-3.9284,-3.8811,-3.8182,-3.7644,-3.7045,-3.5938,-3.5579,-3.5489,-3.5489,-3.5489,-3.5489,-3.5489,-3.5489,-3.5489,-3.5489,-3.5489,-3.5489,-3.5489,-3.5489,-3.5489,-3.5489,-3.5489,-3.5489,-3.5489,-3.5489,-3.5554,-3.5686,-3.5847,-3.6227,-3.66,-3.7087,-3.8055,-3.9135,-3.9722,-3.9927,-4.0062,-4.0113,-4.0113,-4.0113,-4.0113,-4.0113,-4.0113,-4.0113,-4.0113,-4.0113,-4.0113,-4.0113,-4.0113,-4.0113,-4.0113,-4.0113,-4.0113,-4.0113,-4.0113,-4.0113,-4.0113,-4.0138,-4.0213,-4.0263,-4.0288,-4.0362,-4.0461,-4.0558,-4.0655,-4.0752,-2.8773,-2.898,-2.8731,-2.8773,-2.9021,-2.9228,-2.9477,-2.9725,-2.9911,-2.9994,-2.9994,-2.9994,-3.0098,-3.0263,-3.0244,-3.0934,-3.2603,-3.2679,-3.3618,-3.5308,-3.5722,-3.6502,-3.7165,-3.7538,-3.8165,-3.8617,-3.8994,-3.9246,-3.9521,-3.9622,-3.9446,-3.8894,-3.8291,-3.7713,-3.7211,-3.6782,-3.6505,-3.643,-3.6405,-3.6405,-3.6405,-3.6452,-3.7381,-3.8352,-3.8512,-3.9732,-4.0937,-4.0471,-4.0461,-4.0114,-3.9493,-3.911,-3.8422,-3.7734,-3.7315,-3.6327,-3.5729,-3.5609,-3.5489,-3.5489,-3.5489,-3.5489,-3.5489,-3.5489,-3.5489,-3.5489,-3.5489,-3.5489,-3.5489,-3.5489,-3.5489,-3.5489,-3.5489,-3.5489,-3.5522,-3.5522,-3.5621,-3.5782,-3.6038,-3.6352,-3.7057,-3.7937,-3.8723,-3.9375,-3.9747,-3.9747,-3.9876,-4.0113,-4.0113,-4.0113,-4.0113,-4.0113,-4.0113,-4.0113,-4.0113,-4.0113,-4.0113,-4.0113,-4.0113,-4.0113,-4.0113,-4.0113,-4.0113,-4.0113,-4.0113,-4.0113,-4.0113,-4.0138,-4.0188,-4.0213,-4.0213,-4.0288,-4.0387,-4.051,-4.0607,-2.8504,-2.8545,-2.8566,-2.8524,-2.8628,-2.898,-2.9166,-2.929,-2.9642,-2.9932,-2.9973,-2.9994,-3.0265,-3.0496,-3.0475,-3.1665,-3.2982,-3.3446,-3.4264,-3.631,-3.6243,-3.6611,-3.6862,-3.7161,-3.7687,-3.8391,-3.8768,-3.8718,-3.9295,-3.9295,-3.8994,-3.8743,-3.8165,-3.7538,-3.7033,-3.6656,-3.643,-3.6405,-3.6405,-3.6405,-3.6405,-3.6499,-3.6922,-3.7978,-3.8791,-3.9707,-4.0554,-4.0887,-4.0985,-3.9973,-3.9313,-3.908,-3.8422,-3.7793,-3.7404,-3.6866,-3.5998,-3.5639,-3.5489,-3.5489,-3.5489,-3.5489,-3.5489,-3.5489,-3.5489,-3.5489,-3.5489,-3.5489,-3.5489,-3.5489,-3.5489,-3.5489,-3.5489,-3.5489,-3.5489,-3.5522,-3.5554,-3.5782,-3.6101,-3.6476,-3.7027,-3.7879,-3.8557,-3.9216,-3.967,-3.954,-3.9722,-4.0062,-4.0113,-4.0113,-4.0113,-4.0113,-4.0113,-4.0113,-4.0113,-4.0113,-4.0113,-4.0113,-4.0113,-4.0113,-4.0113,-4.0113,-4.0113,-4.0113,-4.0113,-4.0113,-4.0113,-4.0138,-4.0138,-4.0138,-4.0138,-4.0113,-4.0213,-4.0337,-4.0436,-2.7779,-2.809,-2.809,-2.809,-2.809,-2.8214,-2.8462,-2.8773,-2.8876,-2.9352,-2.9891,-3.0005,-3.0223,-3.0496,-3.0893,-3.2062,-3.3422,-3.4071,-3.5138,-3.5976,-3.638,-3.648,-3.6606,-3.6732,-3.7109,-3.741,-3.7712,-3.804,-3.8467,-3.8467,-3.8191,-3.7688,-3.7437,-3.7186,-3.6732,-3.643,-3.643,-3.6405,-3.6405,-3.6405,-3.6405,-3.664,-3.7083,-3.827,-3.9332,-4.0348,-4.1056,-4.1213,-4.0914,-4.0166,-3.9612,-3.908,-3.8422,-3.7764,-3.7195,-3.6656,-3.6058,-3.5699,-3.5489,-3.5489,-3.5489,-3.5489,-3.5489,-3.5489,-3.5489,-3.5489,-3.5489,-3.5489,-3.5489,-3.5489,-3.5489,-3.5489,-3.5489,-3.5489,-3.5489,-3.5489,-3.5489,-3.5814,-3.6164,-3.66,-3.7087,-3.7709,-3.8334,-3.892,-3.9375,-3.967,-3.9876,-4.0113,-4.0113,-4.0113,-4.0113,-4.0113,-4.0113,-4.0113,-4.0113,-4.0113,-4.0113,-4.0113,-4.0113,-4.0113,-4.0113,-4.0113,-4.0113,-4.0113,-4.0113,-4.0113,-4.0113,-4.0113,-4.0113,-4.0113,-4.0113,-4.0113,-4.0113,-4.0213,-4.0288,-2.7455,-2.7614,-2.7634,-2.7634,-2.7655,-2.7841,-2.8069,-2.8297,-2.8524,-2.8897,-2.9332,-2.9424,-2.9585,-2.9985,-3.0593,-3.1681,-3.3101,-3.4007,-3.4915,-3.57,-3.6279,-3.6405,-3.6405,-3.643,-3.6832,-3.7134,-3.7462,-3.7814,-3.7889,-3.799,-3.7814,-3.7262,-3.7136,-3.6958,-3.648,-3.6405,-3.6405,-3.6405,-3.6405,-3.6405,-3.6499,-3.6849,-3.7658,-3.8854,-3.9869,-4.0901,-4.172,-4.1804,-4.1033,-3.998,-3.8955,-3.8691,-3.8272,-3.8093,-3.7554,-3.6985,-3.6387,-3.5818,-3.5609,-3.5489,-3.5489,-3.5489,-3.5489,-3.5489,-3.5489,-3.5489,-3.5489,-3.5489,-3.5489,-3.5489,-3.5489,-3.5489,-3.5489,-3.5489,-3.5489,-3.5489,-3.5554,-3.5718,-3.5975,-3.6258,-3.6693,-3.7057,-3.7735,-3.8423,-3.892,-3.9487,-3.9747,-4.0087,-4.0087,-4.0113,-4.0113,-4.0113,-4.0113,-4.0113,-4.0113,-4.0113,-4.0113,-4.0113,-4.0113,-4.0113,-4.0113,-4.0113,-4.0113,-4.0113,-4.0113,-4.0113,-4.0113,-4.0113,-4.0113,-4.0113,-4.0113,-4.0113,-4.0113,-4.0113,-4.0163,-2.7309,-2.7309,-2.733,-2.733,-2.7372,-2.7655,-2.7841,-2.7903,-2.8255,-2.84,-2.8442,-2.8442,-2.8462,-2.9,-2.9676,-3.073,-3.1945,-3.3386,-3.4472,-3.5425,-3.6006,-3.6254,-3.638,-3.6455,-3.6707,-3.7008,-3.7312,-3.7487,-3.7588,-3.7538,-3.7362,-3.7136,-3.6985,-3.6883,-3.6556,-3.6405,-3.6405,-3.6405,-3.6405,-3.6405,-3.6734,-3.7222,-3.8043,-3.9033,-4.0043,-4.1155,-4.2129,-4.2256,-4.129,-3.9817,-3.8417,-3.8332,-3.8362,-3.8392,-3.7883,-3.7315,-3.6656,-3.6088,-3.5669,-3.5489,-3.5489,-3.5489,-3.5489,-3.5489,-3.5489,-3.5489,-3.5489,-3.5489,-3.5489,-3.5489,-3.5489,-3.5489,-3.5489,-3.5489,-3.5489,-3.5489,-3.5587,-3.5621,-3.5814,-3.6037,-3.629,-3.6631,-3.7266,-3.7908,-3.8474,-3.9055,-3.954,-3.985,-4.0087,-4.0087,-4.0113,-4.0113,-4.0113,-4.0113,-4.0113,-4.0113,-4.0113,-4.0113,-4.0113,-4.0113,-4.0113,-4.0113,-4.0113,-4.0113,-4.0113,-4.0113,-4.0113,-4.0113,-4.0113,-4.0113,-4.0113,-4.0113,-4.0113,-4.0113,-4.0113,-2.7309,-2.7309,-2.7309,-2.7309,-2.733,-2.7413,-2.7434,-2.7455,-2.7537,-2.7558,-2.7641,-2.7668,-2.8061,-2.9262,-2.9845,-3.0861,-3.2039,-3.3138,-3.4299,-3.5415,-3.5558,-3.5931,-3.6182,-3.6157,-3.643,-3.6656,-3.6832,-3.6757,-3.7033,-3.6908,-3.6732,-3.6631,-3.6606,-3.6556,-3.6505,-3.6405,-3.638,-3.6355,-3.6355,-3.6402,-3.6398,-3.6913,-3.7678,-3.8585,-3.9387,-4.076,-4.1724,-4.1836,-4.0704,-3.9343,-3.8197,-3.8267,-3.8571,-3.8691,-3.8153,-3.7494,-3.6866,-3.6237,-3.5789,-3.5549,-3.5489,-3.5489,-3.5489,-3.5489,-3.5489,-3.5489,-3.5489,-3.5489,-3.5489,-3.5489,-3.5489,-3.5489,-3.5489,-3.5489,-3.5489,-3.5489,-3.5522,-3.5621,-3.572,-3.5847,-3.5975,-3.6507,-3.7087,-3.7648,-3.8108,-3.8695,-3.9295,-3.967,-4.0087,-4.0113,-4.0113,-4.0113,-4.0113,-4.0113,-4.0113,-4.0113,-4.0113,-4.0113,-4.0113,-4.0113,-4.0113,-4.0113,-4.0113,-4.0113,-4.0113,-4.0113,-4.0113,-4.0113,-4.0113,-4.0113,-4.0113,-4.0113,-4.0113,-4.0113,-4.0113]}]]